[[{"header":{"parameterUnit":"m.s-1","parameterCategory":1,"la1":30.6,"la2":29.2853,"lo1":-89.7004,"lo2":-87.6739,"dx":0.0162,"dy":0.0183,"nx":112,"ny":82,"refTime":"2023-01-02T18:00:00:Z","depth":0,"parameterNumber":2,"parameterNumberName":"U-component_of_WINDS"},"data":[0.0,0.0,0.0,0.0,0.0,0.0,0.0,0.0,0.0,0.0,0.0,0.0,0.0,0.0,0.0,0.0,0.0,0.0,0.0,0.0,0.0,0.0,0.0,0.0,0.0,0.0,0.0,0.0,0.0,0.0,0.0,0.0,0.0,0.0,0.0,0.0,0.0,0.0,0.0,0.0,0.0,0.0,0.0,0.0,0.0,0.0,0.0,0.0,0.0,0.0,0.0,0.0,0.0,0.0,0.0,0.0,0.0,0.0,0.0,0.0,0.0,0.0,0.0,0.0,0.0,0.0,0.0,0.0,0.0,0.0,0.0,0.0,0.0,0.0,0.0,0.0,0.0,0.0,0.0,0.0,0.0,0.0,0.0,0.0,0.0,0.0,0.0,0.0,0.0,0.0,1.4935,1.6539,1.7943,1.8368,1.7468,1.6953,1.6037,1.4316,0.0,0.0,0.0,0.0,0.0,0.0,0.0,0.0,0.0,0.0,0.0,0.0,0.0,0.0,0.0,0.0,0.0,0.0,0.0,0.0,0.0,0.0,0.0,0.0,0.0,0.0,0.0,0.0,0.0,0.0,0.0,0.0,0.0,0.0,0.0,0.0,0.0,0.0,0.0,0.0,0.0,0.0,0.0,0.0,0.0,0.0,0.0,0.0,0.0,0.0,0.0,0.0,0.0,0.0,0.0,0.0,0.0,0.0,0.0,0.0,0.0,0.0,0.0,0.0,0.0,0.0,0.0,0.0,0.0,0.0,0.0,0.0,0.0,0.0,0.0,0.0,0.0,0.0,0.0,0.0,0.0,0.0,0.0,0.0,0.0,0.0,0.0,0.0,0.0,0.0,0.0,0.0,0.0,0.0,0.0,0.0,0.0,0.0,0.0,0.0,0.0,0.0,0.0,0.0,1.436,1.7719,1.8279,1.8348,1.823,1.74,1.6417,1.532,0.0,0.0,0.0,0.0,0.0,0.0,0.0,0.0,0.0,0.0,0.0,0.0,0.0,0.0,0.0,0.0,0.0,0.0,0.0,0.0,0.0,0.0,0.0,0.0,0.0,0.0,0.0,0.0,0.0,0.0,0.0,0.0,0.0,0.0,0.0,0.0,0.0,0.0,0.0,0.0,0.0,0.0,0.0,0.0,0.0,0.0,0.0,0.0,0.0,0.0,0.0,0.0,0.0,0.0,0.0,0.0,0.0,0.0,0.0,0.0,0.0,0.0,0.0,0.0,0.0,0.0,0.0,0.0,0.0,0.0,0.0,0.0,0.0,0.0,0.0,0.0,0.0,0.0,0.0,0.0,0.0,0.0,0.0,0.0,0.0,0.0,0.0,0.0,0.0,0.0,0.0,0.0,0.0,0.0,0.0,0.0,0.0,0.0,0.0,0.0,0.0,0.0,0.0,1.446,1.5621,1.8213,1.8567,1.837,1.7935,1.7546,1.6695,1.533,1.3067,0.0,0.0,0.0,0.0,0.0,0.0,0.0,0.0,0.0,0.0,0.0,0.0,0.0,0.0,0.0,0.0,0.0,0.0,0.0,0.0,0.0,0.0,0.0,0.0,0.0,0.0,0.0,0.0,0.0,0.0,0.0,0.0,0.0,0.0,0.0,0.0,0.0,0.0,0.0,0.0,0.0,0.0,0.0,0.0,0.0,0.0,0.0,0.0,0.0,0.0,0.0,0.0,0.0,0.0,0.0,0.0,0.0,0.0,0.0,0.0,0.0,0.0,0.0,0.0,0.0,0.0,0.0,0.0,0.0,0.0,0.0,0.0,0.0,0.0,0.0,0.0,0.0,0.0,0.0,0.0,0.0,0.0,0.0,0.0,0.0,0.0,0.0,0.0,0.0,0.0,0.0,0.0,0.0,0.0,0.0,0.0,0.0,0.0,0.0,0.0,0.0,0.0,1.6313,1.6977,1.8467,1.8697,1.844,1.7764,1.7658,1.6884,1.5059,1.3173,0.0,0.0,0.0,0.0,0.0,0.0,0.0,0.0,0.0,0.0,0.0,0.0,0.0,0.0,0.0,0.0,0.0,0.0,0.0,0.0,0.0,0.0,0.0,0.0,0.0,0.0,0.0,0.0,0.0,0.0,0.0,0.0,0.0,0.0,0.0,0.0,0.0,0.0,0.0,0.0,0.0,0.0,0.0,0.0,0.0,0.0,0.0,0.0,0.0,0.0,0.0,0.0,0.0,0.0,0.0,0.0,0.0,0.0,0.0,0.0,0.0,0.0,0.0,0.0,0.0,0.0,0.0,0.0,0.0,0.0,0.0,0.0,0.0,0.0,0.0,0.0,0.0,0.0,0.0,0.0,0.0,0.0,0.0,0.0,0.0,0.0,0.0,0.0,0.0,0.0,0.0,0.0,0.0,0.0,0.0,0.0,0.0,0.0,0.0,0.0,0.0,0.0,1.5975,1.7549,1.8524,1.8599,1.858,1.8543,1.7788,1.6619,1.4918,1.294,0.0,0.0,0.0,0.0,0.0,0.0,0.0,0.0,0.0,0.0,0.0,0.0,0.0,0.0,0.0,0.0,0.0,0.0,0.0,0.0,0.0,0.0,0.0,0.0,0.0,0.0,0.0,0.0,0.0,0.0,0.0,0.0,0.0,0.0,0.0,0.0,0.0,0.0,0.0,0.0,0.0,0.0,0.0,0.0,0.0,0.0,0.0,0.0,0.0,0.0,0.0,0.0,0.0,0.0,0.0,0.0,0.0,0.0,0.0,0.0,0.0,0.0,0.0,0.0,0.0,0.0,0.0,0.0,0.0,0.0,0.0,0.0,0.0,0.0,0.0,0.0,0.0,0.0,0.0,0.0,0.0,0.0,0.0,0.0,0.0,0.0,0.0,0.0,0.0,0.0,0.0,0.0,0.0,0.0,0.0,0.0,0.0,0.0,0.0,0.0,0.0,0.0,1.659,1.7953,1.9298,1.9524,1.9594,1.9594,1.9171,1.7869,1.5606,0.0,0.0,0.0,0.0,0.0,0.0,0.0,0.0,0.0,0.0,0.0,0.0,0.0,0.0,0.0,0.0,0.0,0.0,0.0,0.0,0.0,0.0,0.0,0.0,0.0,0.0,0.0,0.0,0.0,0.0,0.0,0.0,0.0,0.0,0.0,0.0,0.0,0.0,0.0,0.0,0.0,0.0,0.0,0.0,0.0,0.0,0.0,0.0,0.0,0.0,0.0,0.0,0.0,0.0,0.0,0.0,0.0,0.0,0.0,0.0,0.0,0.0,0.0,0.0,0.0,0.0,0.0,0.0,0.0,0.0,0.0,0.0,0.0,0.0,0.0,0.0,0.0,0.0,0.0,0.0,0.0,0.0,0.0,0.0,0.0,0.0,0.0,0.0,0.0,0.0,0.0,0.0,0.0,0.0,0.0,0.0,0.0,0.0,0.0,0.0,0.0,0.0,1.5688,1.6955,1.819,1.9627,1.9811,1.9851,1.9985,1.9826,1.8482,1.5625,0.0,0.0,0.0,0.0,0.0,0.0,0.0,0.0,0.0,0.0,0.0,0.0,0.0,0.0,0.0,0.0,0.0,0.0,0.0,0.0,0.0,0.0,0.0,0.0,0.0,0.0,0.0,0.0,0.0,0.0,0.0,0.0,0.0,0.0,0.0,0.0,0.0,0.0,0.0,0.0,0.0,0.0,0.0,0.0,0.0,0.0,0.0,0.0,0.0,0.0,0.0,0.0,0.0,0.0,0.0,0.0,0.0,0.0,0.0,0.0,0.0,0.0,0.0,0.0,0.0,0.0,0.0,0.0,0.0,0.0,0.0,0.0,0.0,0.0,0.0,0.0,0.0,0.0,0.0,0.0,0.0,0.0,0.0,0.0,0.0,0.0,0.0,0.0,0.0,0.0,0.0,0.0,0.0,0.0,0.0,0.0,0.0,0.0,0.0,0.0,0.0,0.0,1.5423,1.6881,1.8177,1.9444,1.9227,1.9155,1.9534,1.9478,1.7996,0.0,0.0,0.0,0.0,0.0,0.0,0.0,0.0,0.0,0.0,0.0,0.0,0.0,0.0,0.0,0.0,0.0,0.0,0.0,0.0,0.0,0.0,0.0,0.0,0.0,0.0,0.0,0.0,0.0,0.0,0.0,0.0,0.0,0.0,0.0,0.0,0.0,0.0,0.0,0.0,0.0,0.0,0.0,0.0,0.0,0.0,0.0,0.0,0.0,0.0,0.0,0.0,0.0,0.0,0.0,0.0,0.0,0.0,0.0,0.0,0.0,0.0,0.0,0.0,0.0,0.0,0.0,0.0,0.0,0.0,0.0,0.0,0.0,0.0,0.0,0.0,0.0,0.0,0.0,0.0,0.0,0.0,0.0,0.0,0.0,0.0,0.0,0.0,0.0,0.0,0.0,0.0,0.0,0.0,0.0,0.0,0.0,0.0,0.0,0.0,0.0,0.0,0.0,1.6491,1.8978,2.1011,2.2029,2.2029,2.201,2.2129,2.1507,1.9656,1.6176,0.0,0.0,0.0,0.0,0.0,0.0,0.0,0.0,0.0,0.0,0.0,0.0,0.0,0.0,0.0,0.0,0.0,0.0,0.0,0.0,0.0,0.0,0.0,0.0,0.0,0.0,0.0,0.0,0.0,0.0,0.0,0.0,0.0,0.0,0.0,0.0,0.0,0.0,0.0,0.0,0.0,0.0,0.0,0.0,0.0,0.0,0.0,0.0,0.0,0.0,0.0,0.0,0.0,0.0,0.0,0.0,0.0,0.0,0.0,0.0,0.0,0.0,0.0,0.0,0.0,0.0,0.0,0.0,0.0,0.0,0.0,0.0,0.0,0.0,0.0,0.0,0.0,0.0,0.0,0.0,0.0,0.0,0.0,0.0,0.0,0.0,0.0,0.0,0.0,0.0,0.0,0.0,0.0,0.0,0.0,0.0,0.0,0.0,0.0,0.0,0.0,0.0,1.6831,1.9364,2.1352,2.2158,2.2284,2.2429,2.2589,2.2451,2.0987,1.7914,0.0,0.0,0.0,0.0,0.0,0.0,0.0,0.0,0.0,0.0,0.0,0.0,0.0,0.0,0.0,0.0,0.0,0.0,0.0,0.0,0.0,0.0,0.0,0.0,0.0,0.0,0.0,0.0,0.0,0.0,0.0,0.0,0.0,0.0,0.0,0.0,0.0,0.0,0.0,0.0,0.0,0.0,0.0,0.0,0.0,0.0,0.0,0.0,0.0,0.0,0.0,0.0,0.0,0.0,0.0,0.0,0.0,0.0,0.0,0.0,0.0,0.0,0.0,0.0,0.0,0.0,0.0,0.0,0.0,0.0,0.0,0.0,0.0,0.0,0.0,0.0,0.0,0.0,0.0,0.0,0.0,0.0,0.0,0.0,0.0,0.0,0.0,0.0,0.0,0.0,0.0,0.0,0.0,0.0,0.0,0.0,0.0,0.0,0.0,0.0,0.0,0.0,1.6815,1.8803,2.0329,2.1034,2.1344,2.1606,2.1969,2.2732,2.2216,1.9596,0.0,0.0,0.0,0.0,0.0,0.0,0.0,0.0,0.0,0.0,0.0,0.0,0.0,0.0,0.0,0.0,0.0,0.0,0.0,0.0,0.0,0.0,0.0,0.0,0.0,0.0,0.0,0.0,0.0,0.0,0.0,0.0,0.0,0.0,0.0,0.0,0.0,0.0,0.0,0.0,0.0,0.0,0.0,0.0,0.0,0.0,0.0,0.0,0.0,0.0,0.0,0.0,0.0,0.0,0.0,0.0,0.0,0.0,0.0,0.0,1.3062,1.1468,0.0,0.0,0.0,0.0,0.0,0.0,0.0,0.0,0.0,0.0,0.0,0.0,0.0,0.0,0.0,0.0,0.0,0.0,0.0,0.0,0.0,0.0,0.0,0.0,0.0,0.0,0.0,0.0,0.0,0.0,0.0,0.0,0.0,0.0,0.0,0.0,0.0,0.0,0.0,0.0,1.7542,2.0492,2.2777,2.3579,2.3791,2.3856,2.3851,2.3803,2.2894,2.0875,1.9287,0.0,0.0,0.0,0.0,0.0,0.0,0.0,0.0,0.0,0.0,0.0,0.0,0.0,0.0,0.0,0.0,0.0,0.0,0.0,0.0,0.0,0.0,0.0,0.0,0.0,0.0,0.0,0.0,0.0,0.0,0.0,0.0,0.0,0.0,0.0,0.0,0.0,0.0,0.0,0.0,0.0,0.0,0.0,0.0,0.0,0.0,0.0,0.0,0.0,0.0,0.0,0.0,0.0,0.0,0.0,0.0,0.0,0.0,0.0,1.5152,1.3931,0.0,0.0,0.0,0.0,0.0,0.0,0.0,0.0,0.0,0.0,0.0,0.0,0.0,0.0,0.0,0.0,0.0,0.0,0.0,0.0,0.0,0.0,0.0,0.0,0.0,0.0,0.0,0.0,0.0,0.0,0.0,0.0,0.0,0.0,0.0,0.0,0.0,0.0,0.0,0.0,1.7154,2.0023,2.2233,2.296,2.3299,2.3647,2.4013,2.4152,2.3701,2.2522,2.0948,0.0,0.0,0.0,0.0,0.0,0.0,0.0,0.0,0.0,0.0,0.0,0.0,0.0,0.0,0.0,0.0,0.0,0.0,0.0,0.0,0.0,0.0,0.0,0.0,0.0,0.0,0.0,0.0,0.0,0.0,0.0,0.0,0.0,0.0,0.0,0.0,0.0,0.0,0.0,0.0,0.0,0.0,0.0,0.0,0.0,0.0,0.0,0.0,0.0,0.0,0.0,0.0,0.0,1.7884,1.8132,1.8132,1.8278,1.8733,1.9313,1.745,1.6933,1.7243,1.5173,0.0,0.0,0.0,0.0,0.0,0.0,0.0,0.0,0.0,0.0,0.0,0.0,0.0,0.0,0.0,0.0,0.0,0.0,0.0,0.0,0.0,0.0,1.6953,1.7698,1.8733,1.8713,1.5691,0.0,0.0,0.0,0.0,0.0,0.0,0.0,0.0,0.0,0.0,0.0,1.7235,1.9451,2.1255,2.1765,2.2138,2.2668,2.3406,2.4034,2.4214,2.4012,2.248,2.0969,0.0,0.0,0.0,0.0,0.0,0.0,0.0,0.0,0.0,0.0,0.0,0.0,0.0,0.0,0.0,0.0,0.0,0.0,0.0,0.0,0.0,0.0,0.0,0.0,0.0,0.0,0.0,0.0,0.0,0.0,0.0,0.0,1.3207,1.3331,0.0,0.0,0.0,0.0,0.0,0.0,0.0,0.0,0.0,0.0,0.0,0.0,0.0,1.675,1.745,1.8299,1.8733,1.8816,1.9665,2.0058,2.0079,2.0493,2.0741,2.0824,2.0534,0.0,1.8713,1.7636,0.0,0.0,0.0,0.0,0.0,0.0,0.0,0.0,0.0,0.0,0.0,0.0,0.0,0.0,0.0,0.0,0.0,0.0,0.0,0.0,0.0,0.0,2.1031,2.1155,2.1321,2.1321,2.0824,1.8299,1.5863,1.4915,1.4634,1.408,0.0,0.0,0.0,0.0,0.0,0.0,2.0377,2.1706,2.2656,2.3193,2.2775,2.2668,2.3406,2.358,2.382,2.4361,2.3867,2.2894,2.1507,2.012,0.0,0.0,0.0,0.0,0.0,0.0,0.0,0.0,0.0,0.0,0.0,0.0,0.0,0.0,0.0,0.0,0.0,0.0,0.0,0.0,0.0,0.0,0.0,0.0,0.0,0.0,0.0,0.0,0.0,1.2917,1.3621,1.3621,1.3434,1.316,0.0,0.0,0.0,0.0,0.0,0.0,0.0,0.0,0.0,1.7843,1.8071,1.8651,1.9624,2.0017,2.0472,2.101,2.1404,2.1735,2.1983,2.219,2.2273,2.2273,2.2273,2.1942,2.1259,1.9561,1.8133,1.6933,0.0,0.0,0.0,0.0,1.6581,1.714,1.8257,1.8526,1.8299,1.805,0.0,0.0,0.0,0.0,0.0,0.0,0.0,1.7864,1.9451,2.0658,2.1673,2.2729,2.2977,2.2897,2.2473,2.141,2.0079,1.8171,1.7302,1.6317,1.4509,1.5371,0.0,0.0,0.0,1.9183,1.9358,2.1165,2.2555,2.3191,2.3602,2.4008,2.4763,2.4852,2.4941,2.5295,2.5109,2.4612,2.3764,2.2418,2.0659,0.0,0.0,0.0,0.0,0.0,0.0,0.0,0.0,0.0,0.0,0.0,0.0,0.0,0.0,0.0,0.0,0.0,0.0,0.0,0.0,0.0,0.0,0.0,0.0,0.0,0.0,0.0,0.0,1.3683,1.4324,1.4324,1.4531,1.4449,0.0,0.0,0.0,0.0,0.0,0.0,1.7036,1.7491,1.8361,1.9727,1.9893,2.0493,2.1631,2.1652,2.2004,2.2666,2.2666,2.2853,2.3184,2.3184,2.3184,2.3184,2.3184,2.3184,2.306,2.1342,2.0224,1.9561,1.921,1.8961,1.8796,1.9003,1.9375,1.9893,2.0803,2.1135,2.1073,2.0741,2.0389,1.9913,1.8899,0.0,0.0,0.0,0.0,1.9576,2.0742,2.142,2.2022,2.3203,2.3696,2.3632,2.3103,2.3342,2.2982,2.0831,1.9965,1.8942,1.6837,1.7551,0.0,1.6253,1.8377,2.0093,2.0007,2.1441,2.2722,2.3453,2.3924,2.4579,2.5513,2.5603,2.5694,2.5875,2.5875,2.573,2.542,2.4405,2.3163,2.1673,0.0,0.0,0.0,0.0,0.0,0.0,0.0,0.0,0.0,0.0,0.0,0.0,0.0,0.0,0.0,0.0,0.0,0.0,0.0,0.0,0.0,0.0,0.0,0.0,0.0,0.0,0.0,0.0,0.0,1.6249,1.6995,0.0,0.0,0.0,0.0,1.7472,1.7595,1.8009,1.8899,1.9443,2.0265,2.1631,2.2087,2.2563,2.308,2.308,2.3101,2.3143,2.3143,2.3163,2.3184,2.3184,2.3184,2.3184,2.3184,2.3184,2.3184,2.306,2.2232,2.101,2.099,2.0452,1.9789,2.0659,2.128,2.1797,2.2729,2.3039,2.3039,2.3018,2.2128,2.1031,2.0969,2.0038,0.0,0.0,2.13,2.1788,2.2529,2.3018,2.3268,2.261,2.2999,2.3474,2.3474,2.3222,2.2745,2.2125,2.2514,2.2306,2.0202,0.0,2.0119,2.0938,2.1163,2.2363,2.5173,2.4408,2.3913,2.4631,2.356,2.328,2.4762,2.4854,2.5128,2.5875,2.5875,2.5875,2.5854,2.5771,2.4902,2.3122,2.2108,0.0,0.0,0.0,0.0,0.0,0.0,0.0,0.0,0.0,0.0,0.0,0.0,0.0,0.0,0.0,0.0,0.0,0.0,0.0,0.0,0.0,0.0,0.0,0.0,0.0,0.0,0.0,0.0,1.6829,1.7595,0.0,1.7305,1.8071,1.8713,1.9023,1.9851,2.0617,2.1238,2.1714,2.219,2.2687,2.2853,2.3018,2.3184,2.3184,2.3329,2.3639,2.3639,2.3784,2.4053,2.4053,2.4053,2.4053,2.4053,2.4053,2.4053,2.4053,2.3598,2.2915,2.3205,2.3122,2.2873,2.3205,2.3432,2.3619,2.395,2.4053,2.4053,2.4053,2.3722,2.3329,2.3329,2.2655,2.205,2.2533,2.2423,2.2279,2.2775,2.3082,2.3166,2.3161,2.3309,2.3419,2.2943,2.3104,2.3242,2.3178,2.3327,2.3304,2.2615,2.3243,2.3308,2.1774,2.2351,2.31,2.3689,2.3994,2.4354,2.5179,2.5436,2.5924,2.6778,2.6798,2.7017,2.7614,2.7634,2.7634,2.7634,2.7345,2.6765,2.5834,2.4902,2.2729,0.0,0.0,0.0,0.0,0.0,0.0,0.0,0.0,0.0,0.0,0.0,0.0,0.0,0.0,0.0,0.0,0.0,0.0,0.0,0.0,0.0,0.0,0.0,0.0,0.0,1.6857,1.7818,1.7698,1.8651,1.9065,1.8485,1.952,2.0348,2.0659,2.1673,2.2418,2.2708,2.3018,2.3267,2.3412,2.3412,2.3494,2.3639,2.3639,2.3805,2.4095,2.4095,2.426,2.455,2.455,2.455,2.455,2.455,2.455,2.455,2.455,2.4364,2.4136,2.4426,2.455,2.455,2.455,2.455,2.455,2.455,2.455,2.455,2.455,2.455,2.455,2.455,2.4308,2.3994,2.3712,2.3437,2.3166,2.2906,2.2797,2.2852,2.2756,2.3017,2.3017,2.2623,2.3017,2.3617,2.3843,2.3679,2.3654,2.3814,2.4386,2.4141,2.2367,2.3166,2.3786,2.3588,2.4447,2.5354,2.6051,2.6835,2.7529,2.8131,2.7883,2.7966,2.8566,2.8317,2.8297,2.8607,2.7883,2.7324,2.7034,2.6123,2.4178,2.1155,0.0,0.0,0.0,0.0,0.0,0.0,0.0,0.0,0.0,0.0,0.0,0.0,0.0,0.0,0.0,0.0,0.0,0.0,0.0,0.0,0.0,0.0,0.0,1.7719,1.7961,1.8454,1.906,2.0327,2.0803,2.0004,2.1466,2.2522,2.2542,2.2956,2.3205,2.3225,2.3225,2.3432,2.3888,2.3888,2.4115,2.4529,2.455,2.455,2.455,2.455,2.455,2.455,2.455,2.455,2.455,2.455,2.4571,2.4506,2.4506,2.4506,2.4571,2.4464,2.455,2.455,2.455,2.455,2.4485,2.4571,2.4506,2.4506,2.4506,2.4506,2.4506,2.4506,2.4815,2.5057,2.4237,2.4354,2.4302,2.2923,2.2546,2.2375,2.1631,2.2013,2.2488,2.2488,2.3073,2.3655,2.4145,2.3824,2.3561,2.371,2.3148,2.2727,2.3202,2.3855,0.0,2.5452,2.6267,2.6923,2.73,2.7359,2.7784,2.8507,2.78,2.7696,2.8607,2.7841,2.7738,2.8628,2.7365,2.6641,2.6641,2.573,2.4819,2.395,0.0,0.0,0.0,0.0,0.0,0.0,0.0,0.0,0.0,0.0,0.0,0.0,0.0,0.0,0.0,0.0,0.0,0.0,0.0,0.0,0.0,1.6777,1.7872,1.7962,1.9283,2.0339,2.0555,2.1487,2.2025,2.1776,2.2501,2.3143,2.3474,2.3619,2.3826,2.4157,2.4178,2.4219,2.4364,2.4364,2.4426,2.455,2.455,2.455,2.455,2.455,2.455,2.455,2.455,2.4716,2.5047,2.5047,2.5213,2.5502,2.5502,2.5502,2.544,2.4799,2.455,2.455,2.455,2.4757,2.5088,2.5399,2.5502,2.5502,2.5502,2.5502,2.5502,2.5502,2.5227,2.4856,2.4675,2.4297,2.3916,2.3176,2.2961,2.2858,2.2356,2.2425,2.2594,2.2889,2.3042,2.3551,2.4554,2.4128,2.4079,2.5257,2.5023,2.4758,2.4871,2.4748,2.5024,2.5862,2.6206,2.6738,2.7638,2.7717,2.7938,2.8587,2.838,2.8628,2.9559,2.9373,2.9352,2.9601,2.8938,2.84,2.8048,2.6496,2.5585,0.0,0.0,0.0,0.0,0.0,0.0,0.0,0.0,0.0,0.0,0.0,0.0,0.0,0.0,0.0,0.0,0.0,0.0,0.0,0.0,0.0,0.0,1.8125,1.9272,1.9535,2.0507,2.1369,2.1618,2.2335,2.2791,2.2791,2.3205,2.3598,2.3867,2.4053,2.426,2.4529,2.455,2.455,2.455,2.455,2.455,2.455,2.4206,2.4288,2.4819,2.4472,2.4641,2.5109,2.5109,2.5254,2.5502,2.5502,2.5647,2.5875,2.5875,2.5875,2.5834,0.0,0.0,0.0,0.0,2.5275,2.5544,2.5792,2.5875,2.5875,2.5875,2.5875,2.5875,2.5875,2.5726,2.5502,2.5133,2.4691,2.4183,2.3815,2.343,2.3138,2.3134,2.3014,2.3066,2.3306,2.334,2.3513,2.4245,2.3982,0.0,2.5428,2.5136,2.4772,2.4772,2.4869,2.4981,2.5354,2.6314,2.7124,2.766,2.8533,2.9187,2.9456,2.9311,0.0,0.0,0.0,2.9911,2.9704,2.9456,0.0,0.0,0.0,2.7303,2.7883,2.6641,0.0,0.0,2.3184,2.2625,0.0,0.0,0.0,0.0,0.0,0.0,0.0,0.0,0.0,0.0,0.0,0.0,0.0,0.0,0.0,0.0,1.9819,2.1247,2.163,2.171,2.197,2.2505,2.2977,2.3267,2.3267,2.3681,2.395,2.395,2.4322,2.455,2.455,2.455,0.0,0.0,0.0,2.4571,2.4612,2.4008,2.423,2.5316,2.4654,2.4946,2.5875,2.5875,2.5916,2.5958,2.5958,2.5978,2.6041,2.6041,2.6041,2.602,2.5916,2.5875,2.5896,2.5937,2.5958,2.5958,2.602,0.0,0.0,2.6103,2.6103,2.6123,2.6165,2.6475,2.6713,2.5939,2.5431,2.5112,2.4583,2.3874,2.3358,2.3597,2.3665,2.3665,2.3717,2.3823,2.384,2.3785,2.3909,2.4138,2.4756,2.4281,2.384,2.384,2.4509,2.4774,2.4624,2.6592,2.791,2.7745,2.9554,0.0,3.0677,3.0305,3.045,3.1319,3.0615,2.9973,2.9559,2.9539,2.9539,2.9539,2.9145,2.9539,3.076,3.0346,3.016,3.0056,2.5896,2.4819,0.0,0.0,0.0,0.0,0.0,0.0,0.0,0.0,0.0,0.0,0.0,0.0,0.0,0.0,0.0,1.931,2.0611,2.1748,2.2715,2.3207,2.331,2.3101,2.3474,2.3743,2.3743,2.4157,2.4405,2.4405,2.4488,2.455,2.455,2.455,2.455,2.455,2.455,2.4716,2.5088,2.4913,2.5139,2.5751,2.5661,0.0,2.5875,2.5875,2.6082,2.6434,2.6434,2.6641,2.6993,2.6993,2.6993,2.691,2.6165,2.5875,2.5916,2.631,2.6434,2.6496,2.6868,2.6993,2.7055,2.7407,2.7531,2.7593,2.7966,2.8152,0.0,2.8017,2.7462,2.6637,2.6021,2.5216,2.442,2.3894,2.3682,2.3751,2.4059,2.4648,2.5058,2.4648,2.5121,2.5448,2.4919,2.4442,2.4343,2.4987,2.4946,2.5388,2.7178,2.7782,2.8583,2.987,3.0401,3.0677,3.0677,3.0615,3.0781,3.134,3.1215,3.1071,3.0988,3.0967,3.0967,3.0967,3.0884,3.0967,3.1236,3.1153,3.1112,3.1071,2.9435,2.8856,0.0,0.0,0.0,0.0,0.0,0.0,0.0,0.0,0.0,0.0,0.0,1.6147,1.6373,0.0,1.9473,2.0496,2.1666,2.2655,2.3474,2.3743,2.3784,2.3557,2.3929,2.4219,2.4219,2.4405,2.455,2.455,2.455,2.455,2.455,2.4757,2.4881,2.4881,2.5109,2.5316,2.5564,2.5186,2.5411,2.6227,2.5839,2.6054,2.6579,2.6579,2.6703,2.691,2.691,2.7179,2.7614,2.7841,2.7945,2.7883,2.7427,2.7117,2.6951,2.7427,2.7593,2.7614,2.7862,2.7945,2.7966,2.8193,2.8276,2.8317,2.8545,2.8607,2.8507,2.8086,2.7683,2.7114,2.6106,2.5532,2.5058,2.4429,2.4247,2.4299,2.4487,2.485,2.5173,2.513,2.5851,2.6349,2.6116,2.631,2.6444,2.6136,2.6127,2.6655,2.8201,2.8776,2.9459,3.0356,3.0997,3.136,3.136,3.1588,3.1816,3.2043,3.2064,3.2064,3.2064,3.2064,3.2064,3.2064,3.2064,3.2064,3.2064,3.2064,3.2064,3.2043,3.1588,3.1133,0.0,0.0,0.0,0.0,0.0,0.0,0.0,1.422,1.499,1.575,1.6788,1.7789,1.8385,1.9707,2.1011,2.179,2.2737,2.3474,2.395,2.4012,2.4012,2.4012,2.4322,2.455,2.455,2.455,2.455,2.455,2.455,2.4571,2.4674,2.5026,2.5275,2.5357,2.5689,2.5916,2.602,2.5452,2.5675,2.6703,2.6121,2.6364,2.7386,2.7386,2.7448,2.7531,2.7531,2.7717,2.809,2.8462,2.8607,2.8628,2.8711,2.8524,2.8235,2.8504,2.8607,2.8607,2.8607,2.8607,2.8628,2.8711,2.8752,2.8773,2.8856,2.8876,2.8776,2.8045,2.7637,2.7098,2.6074,2.5685,2.5395,2.4958,2.4984,2.5035,2.5259,2.5482,2.5681,2.5979,2.6803,2.7455,2.7332,2.8143,2.8521,2.7306,2.7413,2.7992,2.8993,2.98,3.0286,3.0589,3.1493,3.2168,3.2168,3.252,3.2727,3.2727,3.2727,3.2727,3.2727,3.2727,3.2727,3.2727,3.2727,3.2727,3.2727,3.2727,3.2727,3.2727,3.2727,3.2333,1.4966,1.4469,1.4155,1.3917,1.4506,1.5465,0.0,1.7154,1.7736,1.8233,1.9442,2.0463,2.0658,2.1372,2.2351,2.3453,2.3764,2.395,2.4405,2.4467,2.4467,2.4467,2.4509,2.455,2.455,2.455,2.455,2.455,2.455,2.4716,2.513,2.5213,2.5399,2.5792,2.5854,2.6082,2.6496,2.6403,2.6724,2.7179,2.7179,2.7311,2.7841,2.7841,2.8069,2.8462,2.8462,2.8483,2.8545,2.8587,2.8607,2.8649,2.9063,2.9187,2.9104,2.8752,2.8607,2.8607,2.8607,2.8607,2.869,2.9083,2.9228,2.9311,2.9725,2.9829,2.9829,2.9724,2.8549,2.7378,2.7201,2.6298,2.5371,2.5292,2.5566,2.6036,2.6822,2.76,2.8183,2.8352,2.9138,2.9157,2.7614,2.8384,2.907,2.8634,2.8615,2.9125,3.0305,3.0571,3.1071,3.2292,3.2509,3.2664,3.2664,3.2706,3.2727,3.2727,3.2727,3.2727,3.2727,3.2727,3.2727,3.2727,3.2727,3.2727,3.2727,3.2727,3.2727,3.2727,3.2727,3.2685,1.6535,1.6249,1.5936,1.6176,1.6904,1.7586,1.7736,1.8176,1.8754,1.9621,2.0272,2.0837,2.157,2.2145,2.2872,2.3763,2.4095,2.4322,2.4509,2.455,2.455,2.455,2.455,2.455,2.455,2.455,2.4654,2.4923,2.4943,2.513,2.5585,2.5875,2.6082,2.6268,2.6537,2.6786,2.6972,2.722,2.7448,2.7655,2.7924,2.8152,2.8317,2.8317,2.8421,2.8628,2.8897,2.9021,2.9042,2.9311,2.9415,2.9435,2.9622,2.9704,2.9684,2.9497,2.9415,2.9415,2.9415,2.9415,2.9456,2.9642,2.9704,2.9746,2.9932,2.9864,2.9641,2.9621,2.8917,2.7882,2.7456,2.7249,2.7151,2.6583,2.705,2.7746,2.8087,2.8427,2.8823,2.907,2.9809,3.0226,2.9776,3.0564,3.1217,3.1151,3.0636,3.0581,3.1714,3.1848,3.2044,3.2592,3.2727,3.2727,3.2727,3.2727,3.2727,3.2727,3.2727,3.2727,3.2727,3.2727,3.2727,3.2727,3.2727,3.2727,3.2727,3.2727,3.2727,3.2727,3.2727,3.2871,1.7305,1.7471,1.7513,1.7961,1.8774,1.929,1.8759,1.9104,1.9811,2.0659,2.1124,2.166,2.2551,2.2972,2.3442,2.3969,2.4322,2.455,2.455,2.455,2.455,2.455,2.455,2.4592,2.4716,2.4736,2.4861,2.5213,2.5337,2.5606,2.6041,2.6392,2.662,2.6765,2.72,2.7448,2.7448,2.7883,2.811,2.811,2.8442,2.869,2.8814,2.8938,2.9001,2.9021,2.9352,2.9497,2.9518,2.9849,2.9994,3.0015,3.0139,3.018,3.0201,3.0325,3.0222,3.0015,3.0139,3.018,3.0201,3.0325,3.0387,3.0387,3.0387,3.0166,2.9888,2.9977,2.9407,2.8859,2.8182,2.8389,2.8596,2.7664,2.81,2.8765,2.9108,2.9108,2.9298,3.0083,3.0829,3.1271,3.1225,3.2133,3.2612,3.2363,3.1998,3.1883,3.2612,3.2727,3.2727,3.2727,3.2727,3.2727,3.2727,3.2727,3.2727,3.2727,3.2727,3.2727,3.2727,3.2727,3.2789,3.2913,3.2913,3.2975,3.3099,3.3099,3.3099,3.3099,3.3099,3.3265,1.7121,1.7678,1.8438,1.8725,1.9456,2.0131,1.9907,2.0643,2.1451,2.1491,2.2696,2.3846,2.3846,2.4219,2.4444,2.4529,2.4444,2.455,2.455,2.455,2.455,2.455,2.455,2.4716,2.5171,2.5213,2.5213,2.5233,2.5627,2.6061,2.6517,2.6558,2.6786,2.722,2.7676,2.7903,2.7903,2.8359,2.8587,2.8587,2.8607,2.8856,2.929,2.9746,2.9953,2.9953,2.9973,2.9973,2.9973,2.9994,2.9994,3.0036,3.0491,3.0677,3.0719,3.1174,3.076,3.0056,3.0512,3.0677,3.0739,3.1195,3.134,3.134,3.134,3.134,3.136,3.136,3.0681,3.0016,3.0016,2.9637,2.901,2.8082,2.8156,2.8801,2.9728,2.9846,3.0451,3.2227,3.2592,3.2363,3.1401,3.2133,3.2363,3.1516,3.2133,3.2612,3.2727,3.2727,3.2727,3.2727,3.2727,3.2727,3.2727,3.2727,3.2727,3.2727,3.2727,3.2727,3.2727,3.2727,3.2934,3.3348,3.3348,3.3575,3.4031,3.4031,3.4031,3.4031,3.4031,3.4031,1.8175,1.8837,1.9582,2.0512,2.1267,2.168,2.1666,2.2129,2.2696,2.3002,2.2899,2.2917,2.3742,2.3655,2.3483,2.4011,2.4343,2.455,2.455,2.455,2.455,2.455,2.4819,2.5068,2.5213,2.5233,2.5482,2.6082,2.6248,2.6537,2.6993,2.7034,2.7241,2.7676,2.7841,2.8069,2.838,2.8835,2.9063,2.9083,2.9394,2.9622,2.9766,2.9932,2.9994,2.9994,2.9994,3.018,3.045,3.045,3.0636,3.0926,3.1091,3.1153,3.1153,3.1319,3.1174,3.0946,3.1091,3.1153,3.1174,3.1319,3.1381,3.1381,3.1381,3.1125,3.0994,3.1593,3.0423,2.937,3.062,3.0277,2.9792,3.0122,3.0723,3.1421,3.1672,3.1787,3.1903,3.2612,3.2727,3.2612,3.2248,3.2498,3.2612,3.2248,3.2498,3.2727,3.2727,3.2727,3.2727,3.2727,3.2727,3.2727,3.2727,3.2727,3.2851,3.3141,3.3161,3.3285,3.3596,3.3617,3.3679,3.3844,3.3844,3.3906,3.4072,3.4072,3.4072,3.4072,3.4072,3.4238,1.9375,2.0017,2.0576,2.1963,2.2522,2.267,2.241,2.294,2.3433,2.3472,2.3,2.2818,2.3701,2.341,2.3162,2.3763,2.4385,2.4736,2.4485,2.4588,2.4778,2.4778,2.5047,2.5357,2.5689,2.5709,2.5958,2.6517,2.6724,2.6951,2.7241,2.7262,2.7469,2.7903,2.809,2.84,2.8856,2.9311,2.9559,2.9559,2.9849,3.0077,3.0243,3.0243,3.0325,3.0491,3.0491,3.0657,3.0926,3.0926,3.1112,3.1402,3.1547,3.1609,3.1629,3.1795,3.1857,3.1836,3.1671,3.1609,3.165,3.1816,3.1857,3.1857,3.1857,3.1595,3.1459,3.2046,3.1202,3.0255,3.1536,3.1305,3.0956,3.1285,3.1767,3.2248,3.2248,3.2248,3.2248,3.2612,3.2727,3.2727,3.2727,3.2727,3.2727,3.2727,3.2727,3.2727,3.2727,3.2727,3.2727,3.2727,3.2727,3.2789,3.2954,3.2954,3.3141,3.3596,3.3617,3.3762,3.4051,3.4072,3.4134,3.432,3.432,3.4383,3.4548,3.4548,3.4548,3.4548,3.4548,3.4714,2.0638,2.1155,2.1507,2.2853,2.3205,2.3063,2.2389,2.3061,2.3721,2.2988,2.2939,2.3246,2.3619,2.3391,2.3267,2.3701,2.4571,2.5047,2.4526,2.4943,2.5233,2.5233,2.5275,2.5627,2.6475,2.6579,2.6599,2.6599,2.7013,2.7262,2.7262,2.7282,2.7489,2.7945,2.84,2.8876,2.9332,2.9766,2.9994,2.9994,2.9994,3.0243,3.0677,3.0677,3.0946,3.1381,3.1381,3.1381,3.1422,3.1422,3.1422,3.1485,3.1919,3.2085,3.2126,3.2561,3.2727,3.2664,3.223,3.2085,3.2147,3.2582,3.2727,3.2727,3.2727,3.2727,3.2727,3.2727,3.2612,3.2612,3.2727,3.2612,3.2363,3.1516,3.1401,3.1401,3.1401,3.1401,3.1652,3.2498,3.2727,3.2727,3.2727,3.2727,3.2727,3.2727,3.2747,3.2747,3.2727,3.2747,3.2768,3.2768,3.2789,3.2975,3.3368,3.341,3.3617,3.4072,3.4113,3.4113,3.4134,3.4134,3.4341,3.4776,3.4797,3.5004,3.5418,3.5418,3.5418,3.5418,3.5418,3.5438,2.0803,2.1611,2.2315,2.3018,2.3453,2.3701,2.3453,2.3885,2.4093,2.3248,2.2628,2.1983,2.1404,2.1776,2.219,2.2315,2.3681,2.4674,2.455,2.4943,2.5233,2.5233,2.5834,2.633,2.6558,2.6889,2.7076,2.7076,2.72,2.7262,2.7262,2.7572,2.7966,2.8421,2.8876,2.9352,2.9808,2.9932,2.9994,2.9994,2.9994,3.0243,3.0677,3.0677,3.0946,3.1381,3.1381,3.1567,3.1878,3.1878,3.2064,3.2395,3.252,3.2561,3.2561,3.2685,3.2727,3.2706,3.2602,3.2561,3.2582,3.2685,3.2727,3.2727,3.2727,3.2727,3.2727,3.2727,3.2248,3.1767,3.2498,3.2133,3.1767,3.2248,3.2363,3.2363,3.2363,3.2363,3.2363,3.2612,3.2727,3.2727,3.2727,3.2727,3.2727,3.2727,3.3016,3.3099,3.2768,3.3016,3.3223,3.3223,3.3513,3.3762,3.3886,3.3886,3.4093,3.4548,3.459,3.4734,3.5066,3.5086,3.5128,3.5252,3.5252,3.5314,3.5418,3.5418,3.5418,3.5418,3.5418,3.5604,2.1714,2.2563,2.3205,2.366,2.3971,2.3928,2.2981,2.3207,2.3185,2.1558,2.0872,2.0452,1.9934,2.0741,2.1569,2.1776,2.3515,2.484,2.484,2.5233,2.5585,2.5792,2.6268,2.6641,2.6848,2.7117,2.7262,2.7262,2.7262,2.7345,2.7552,2.78,2.8235,2.8897,2.9166,2.9518,2.9994,2.9994,2.9994,2.9994,3.0201,3.0532,3.0988,3.1195,3.1526,3.1981,3.1981,3.2106,3.2333,3.2333,3.2499,3.2727,3.2727,3.2727,3.2727,3.2727,3.2727,3.2727,3.2727,3.2727,3.2727,3.2727,3.2727,3.2727,3.2727,3.2727,3.2727,3.2727,3.2363,3.2018,3.2612,3.2248,3.2018,3.2612,3.2727,3.2727,3.2727,3.2727,3.2727,3.2727,3.2727,3.2727,3.2727,3.2727,3.2789,3.2975,3.3223,3.3368,3.3327,3.3534,3.3679,3.3679,3.3906,3.4155,3.4362,3.4362,3.4569,3.5024,3.5045,3.5169,3.5418,3.5418,3.5418,3.5418,3.5418,3.5418,3.5418,3.5625,3.5728,3.5728,3.5935,3.6163,2.2832,2.3474,2.3908,2.4405,2.455,2.4008,2.199,2.1967,2.1706,1.9163,1.8745,1.8775,1.8733,1.9872,2.101,2.1528,2.3598,2.5171,2.5233,2.5668,2.6123,2.6517,2.662,2.6827,2.722,2.7262,2.7282,2.7345,2.7345,2.751,2.7903,2.8048,2.8504,2.9373,2.9394,2.958,2.9994,2.9994,2.9994,2.9994,3.047,3.0926,3.1402,3.1836,3.2292,3.2727,3.2727,3.2727,3.2727,3.2727,3.2727,3.2727,3.2727,3.2727,3.2727,3.2727,3.2727,3.2727,3.2727,3.2727,3.2727,3.2727,3.2727,3.2727,3.2727,3.2727,3.2727,3.2727,3.2727,3.2727,3.2727,3.2727,3.2727,3.2727,3.2727,3.2727,3.2727,3.2727,3.2727,3.2727,3.2727,3.2727,3.2727,3.2768,3.2934,3.3327,3.3492,3.3699,3.4113,3.4155,3.4155,3.4155,3.4217,3.4403,3.4817,3.4859,3.5004,3.5397,3.5418,3.5418,3.5418,3.5418,3.5418,3.5418,3.548,3.5521,3.5521,3.5976,3.6204,3.6204,3.6618,3.6825,2.2915,2.3246,2.3494,2.4322,2.455,2.4093,2.2652,2.2113,2.13,1.8931,1.7905,1.7284,1.6912,1.8257,1.9686,2.0534,2.2915,2.4799,2.5171,2.5937,2.6475,2.6558,2.691,2.7179,2.7262,2.7262,2.7407,2.7779,2.78,2.7841,2.7924,2.8649,2.9311,2.9849,2.987,2.9911,2.9994,2.9994,2.9994,2.9994,3.047,3.0926,3.1402,3.1836,3.2292,3.2727,3.2727,3.2727,3.2727,3.2727,3.2727,3.2727,3.2727,3.2727,3.2727,3.2727,3.2727,3.2727,3.2727,3.2727,3.2727,3.2727,3.2727,3.2727,3.2727,3.2727,3.2727,3.2727,3.2727,3.2727,3.2727,3.2727,3.2727,3.2727,3.2727,3.2727,3.2727,3.2727,3.2727,3.2727,3.2727,3.2727,3.2727,3.3037,3.3285,3.3368,3.4031,3.4548,3.4631,3.4631,3.4631,3.4631,3.4962,3.5211,3.5293,3.5314,3.5335,3.5418,3.5418,3.5418,3.5418,3.5418,3.5418,3.5418,3.579,3.5997,3.5997,3.6453,3.668,3.668,3.6763,3.7011,2.2998,2.337,2.3701,2.4385,2.455,2.3991,2.1901,2.1073,1.9955,1.7181,1.627,1.5918,1.5691,1.7326,1.9003,1.9934,2.2397,2.4447,2.513,2.5999,2.6662,2.691,2.7117,2.7262,2.7262,2.7469,2.7696,2.7903,2.8359,2.8649,2.8649,2.929,2.9766,2.9994,2.9994,2.9994,2.9994,2.9994,2.9994,2.9994,3.0719,3.1153,3.1402,3.2085,3.252,3.2727,3.2727,3.2727,3.2727,3.2727,3.2727,3.2727,3.2727,3.2727,3.2727,3.2727,3.2727,3.2727,3.2727,3.2727,3.2727,3.2727,3.2727,3.2727,3.2727,3.2727,3.2727,3.2727,3.2727,3.2727,3.2727,3.2727,3.2727,3.2727,3.2727,3.2727,3.2727,3.2727,3.2727,3.2727,3.2913,3.3058,3.3058,3.343,3.3824,3.4051,3.4465,3.4838,3.5066,3.5107,3.5107,3.5107,3.5293,3.5418,3.5418,3.5418,3.5418,3.5418,3.5645,3.5769,3.5769,3.6018,3.6142,3.6142,3.6349,3.6473,3.6473,3.6929,3.7156,3.7177,3.7405,3.7632,2.3039,2.3453,2.3867,2.4405,2.4467,2.3701,2.1031,1.9913,1.8609,1.5608,1.4842,1.4759,1.4966,1.6622,1.834,1.963,2.1921,2.3971,2.5068,2.5999,2.6744,2.72,2.7262,2.7262,2.7262,2.7655,2.7966,2.8069,2.8938,2.9456,2.9456,2.9808,2.9994,2.9994,2.9994,2.9994,2.9994,2.9994,3.0036,3.016,3.0988,3.1422,3.1547,3.2354,3.2727,3.2727,3.2727,3.2727,3.2727,3.2727,3.2727,3.2727,3.2727,3.2727,3.2727,3.2727,3.2727,3.2727,3.2727,3.2727,3.2727,3.2727,3.2727,3.2727,3.2727,3.2727,3.2727,3.2727,3.2727,3.2727,3.2727,3.2727,3.2727,3.2727,3.2727,3.2727,3.2727,3.2727,3.2747,3.2851,3.3141,3.341,3.3513,3.3906,3.4341,3.4693,3.4838,3.5024,3.5376,3.5418,3.5418,3.5418,3.5418,3.5418,3.5418,3.5418,3.5459,3.5562,3.5914,3.6163,3.6266,3.6618,3.6804,3.6804,3.6908,3.6949,3.6949,3.7425,3.7653,3.7653,3.8026,3.8191,2.2956,2.3225,2.3453,2.4322,2.424,2.3329,2.0969,1.9437,1.7843,1.5484,1.4324,1.3993,1.4842,1.5856,1.7264,1.9484,2.1362,2.3225,2.4985,2.5999,2.6744,2.72,2.7262,2.7262,2.7262,2.7655,2.809,2.8524,2.9415,2.9932,2.9932,2.9973,2.9994,2.9994,2.9994,2.9994,2.9994,2.9994,3.0201,3.0636,3.1133,3.1588,3.2002,3.2499,3.2727,3.2727,3.2727,3.2727,3.2727,3.2727,3.2727,3.2727,3.2727,3.2727,3.2727,3.2727,3.2727,3.2727,3.2727,3.2727,3.2727,3.2727,3.2727,3.2727,3.2727,3.2727,3.2727,3.2727,3.2727,3.2727,3.2727,3.2727,3.2727,3.2727,3.2727,3.2727,3.2727,3.2727,3.2851,3.3244,3.3348,3.3513,3.3927,3.4383,3.4714,3.4755,3.5107,3.5376,3.5418,3.5418,3.5418,3.5418,3.5418,3.5418,3.5418,3.5418,3.5604,3.6018,3.608,3.6308,3.6722,3.6784,3.6804,3.6804,3.7218,3.7425,3.7425,3.7902,3.8129,3.8129,3.8171,3.8191,2.2853,2.3184,2.335,2.3991,2.3805,2.2853,2.0555,1.8961,1.7429,1.5401,1.4262,1.389,1.4821,1.5525,1.6705,1.8982,2.0659,2.2211,2.3784,2.5026,2.5937,2.6372,2.6682,2.6951,2.7241,2.7655,2.8235,2.898,2.9622,2.9994,2.9994,2.9994,2.9994,2.9994,2.9994,2.9994,2.9994,2.9994,3.0222,3.0698,3.1153,3.1609,3.2064,3.252,3.2727,3.2727,3.2727,3.2727,3.2727,3.2727,3.2727,3.2727,3.2727,3.2727,3.2727,3.2727,3.2727,3.2727,3.2727,3.2727,3.2727,3.2727,3.2727,3.2727,3.2727,3.2727,3.2727,3.2727,3.2727,3.2727,3.2727,3.2727,3.2727,3.2727,3.2727,3.2809,3.3058,3.312,3.3244,3.3699,3.401,3.4258,3.4445,3.4859,3.5148,3.5148,3.5314,3.5418,3.5418,3.5418,3.5418,3.5418,3.5418,3.5418,3.5418,3.5418,3.5625,3.608,3.637,3.6742,3.7198,3.7488,3.7632,3.7632,3.7819,3.7902,3.7902,3.8088,3.8191,3.8191,3.8191,3.8191,2.2439,2.2873,2.3101,2.3557,2.3225,2.2211,2.0058,1.8506,1.6956,1.5173,1.4159,1.389,1.4821,1.538,1.6394,1.8526,2.0017,2.1445,2.2977,2.424,2.5233,2.5813,2.6165,2.6537,2.7013,2.7717,2.8504,2.9435,2.9808,2.9994,2.9994,2.9994,2.9994,2.9994,2.9994,2.9994,2.9994,2.9994,3.0305,3.0884,3.1215,3.1671,3.225,3.2582,3.2727,3.2727,3.2727,3.2727,3.2727,3.2727,3.2727,3.2727,3.2727,3.2727,3.2727,3.2727,3.2727,3.2727,3.2727,3.2727,3.2727,3.2727,3.2727,3.2727,3.2727,3.2727,3.2727,3.2727,3.2727,3.2727,3.2727,3.283,3.2934,3.2934,3.3016,3.3203,3.3513,3.3575,3.372,3.4176,3.4527,3.4797,3.4941,3.5211,3.5418,3.5418,3.5418,3.5418,3.5418,3.5418,3.5418,3.5418,3.5418,3.5418,3.5418,3.5542,3.5832,3.6287,3.6763,3.7218,3.7674,3.8005,3.8191,3.8191,3.8191,3.8325,3.8437,3.8437,3.8437,3.8437,3.8437,3.8437,2.1569,2.2149,2.2625,2.308,2.2501,2.1342,1.9499,1.803,1.6461,1.4697,1.3952,1.389,1.4821,1.538,1.6291,1.8092,1.9541,2.1073,2.2936,2.3971,2.4881,2.5771,2.5875,2.6061,2.6537,2.78,2.898,2.9911,2.9994,2.9994,2.9994,2.9994,2.9994,2.9994,2.9994,2.9994,2.9994,2.9994,3.047,3.136,3.1381,3.1857,3.2727,3.2727,3.2727,3.2727,3.2727,3.2727,3.2727,3.2727,3.2727,3.2727,3.2727,3.2727,3.2727,3.2727,3.2727,3.2727,3.2727,3.2727,3.2727,3.2727,3.2727,3.2727,3.2727,3.2727,3.2727,3.2727,3.2727,3.2727,3.2727,3.3037,3.3368,3.3368,3.372,3.4051,3.4051,3.4051,3.4196,3.4672,3.4755,3.49,3.5335,3.5418,3.5418,3.5418,3.5418,3.5418,3.5418,3.5418,3.5418,3.5418,3.5418,3.5418,3.5418,3.5852,3.6308,3.6763,3.7239,3.7695,3.815,3.8191,3.8191,3.8191,3.8191,3.857,3.921,3.921,3.921,3.921,3.921,3.921,2.0162,2.0741,2.1031,2.0886,2.0389,1.9624,1.8423,1.7098,1.5856,1.4966,1.4159,1.389,1.4821,1.5111,1.6022,1.8464,1.9479,2.0617,2.2459,2.3764,0.0,2.5357,2.6248,2.6889,2.7034,2.7986,2.8731,2.9021,2.9642,2.9994,2.9994,2.9994,2.9994,2.9994,2.9994,2.9994,2.9994,3.0305,3.0781,3.1381,3.1692,3.2147,3.2727,3.2727,3.2727,3.2727,3.2727,3.2727,3.2727,3.2727,3.2727,3.2727,3.2727,3.2727,3.2727,3.2727,3.2727,3.2727,3.2727,3.2727,3.2727,3.2727,3.2727,3.2727,3.2727,3.2727,3.2727,3.2727,3.2727,3.2809,3.3099,3.3265,3.3451,3.3782,3.3969,3.4155,3.4465,3.4548,3.4672,3.5128,3.5211,3.5252,3.5397,3.5418,3.5418,3.5418,3.5418,3.5418,3.5418,3.5418,3.5418,3.5418,3.5418,3.5418,3.5418,3.5852,3.6308,3.6763,3.7239,3.7695,3.8171,3.8191,3.8191,3.8191,3.8702,3.8967,3.921,3.9604,3.9866,3.9866,3.9866,4.0495,1.8651,1.9437,1.9851,1.9561,1.9147,1.8526,1.7471,1.6436,1.5463,1.4635,1.4159,1.4097,1.4863,1.5277,1.6125,1.8009,1.9127,2.0348,2.2004,2.3412,0.0,2.5378,2.6372,2.7076,2.7241,2.8069,2.869,2.8856,2.9559,2.9994,2.9994,2.9994,2.9994,2.9994,2.9994,2.9994,2.9994,3.0284,3.0739,3.1381,3.165,3.2126,3.2727,3.2727,3.2727,3.2727,3.2727,3.2727,0.0,3.2727,3.2727,3.2727,3.2727,3.2727,3.2727,3.2727,3.2727,3.2727,3.2727,3.2727,3.2727,3.2727,3.2727,3.2727,3.2727,3.2727,3.2727,3.2727,3.2851,3.3037,3.3306,3.3637,3.3969,3.4258,3.4465,3.4652,3.4941,3.5004,3.5086,3.5376,3.5541,3.5788,3.5788,3.5788,3.5788,3.5788,3.5788,3.5665,3.5418,3.5665,3.5788,3.5788,3.5788,3.5995,3.641,3.6352,3.6621,3.7168,3.7775,3.8277,3.857,3.8835,3.8967,3.8967,3.9341,3.9735,3.9997,4.0388,4.0755,4.1119,4.1119,4.2016,0.0,1.8154,1.8816,1.8796,1.8464,1.7802,1.656,1.5918,0.0,1.3931,1.3972,1.4428,1.4987,1.5753,1.6498,1.708,1.8692,2.0307,2.1714,2.3163,0.0,2.5875,2.6372,2.6806,2.7262,2.811,2.8794,2.9228,2.9704,2.9994,2.9994,2.9994,2.9994,2.9994,2.9994,2.9994,2.9994,3.0056,3.0532,3.1381,3.1443,3.1919,3.2727,3.2727,3.2727,3.2727,3.2727,3.2727,3.2727,3.2727,3.2727,3.2727,3.2727,3.2727,3.2727,3.2727,3.2727,3.2727,3.2727,3.2727,3.2727,3.2727,3.2727,3.2727,3.2768,3.2747,3.2747,3.2768,3.3058,3.3389,3.3451,3.4113,3.4776,3.4797,3.5128,3.5418,3.5418,3.5418,3.5418,3.5418,3.5932,3.6423,3.6423,3.6423,3.6423,3.6423,3.6423,3.6178,3.5541,3.6055,3.6423,3.6423,3.6423,3.686,3.8073,3.7424,3.7189,3.7848,3.8699,3.921,3.921,3.9866,4.0257,4.0257,4.0257,4.0799,4.1421,4.1421,4.2038,4.3028,4.3028,4.3505,1.4987,0.0,1.6394,1.6042,1.5877,1.5711,0.0,1.4966,1.4531,1.4221,1.3952,1.4242,1.5773,1.5649,1.6167,1.8713,1.9768,2.0866,2.2625,2.4633,0.0,2.7324,2.7241,2.7282,2.7717,2.8276,2.8669,2.8773,2.9539,2.9994,2.9994,2.9994,2.9994,2.9994,2.9994,2.9994,2.9994,3.0698,3.1153,3.1381,3.2085,3.252,3.2727,3.2727,3.2727,3.2727,3.2727,3.2727,3.2727,3.2727,3.2727,3.2727,3.2727,3.2727,3.2727,3.2727,3.2727,3.2727,3.2727,3.2727,3.2727,3.3296,3.3069,3.2903,3.3696,3.3341,3.2809,3.3141,3.3306,3.3534,3.4258,3.459,3.4838,3.519,3.5725,3.6055,3.5541,3.5788,3.6178,3.6178,3.63,3.6545,3.7011,3.6789,3.6545,3.7132,3.6789,3.63,3.6178,3.63,3.6423,3.6423,3.6423,3.7105,3.8664,3.8532,3.859,3.9085,3.9671,3.9975,3.9975,4.0127,4.0257,4.0257,4.0777,4.1806,4.3177,4.3177,4.3678,4.4645,4.4645,4.5257,1.3993,1.4987,1.5939,1.5691,1.5628,1.5587,1.5359,1.48,1.4242,1.4035,1.4138,1.4614,1.5835,1.6332,1.7181,1.9127,2.0348,2.1838,0.0,0.0,2.7365,2.7862,2.7717,2.7572,2.7614,2.8214,2.8607,2.8607,2.9477,2.9994,2.9994,2.9994,2.9994,2.9994,2.9994,2.9994,2.9994,3.0698,3.1174,3.1381,3.2085,3.252,3.2727,3.2727,3.2727,3.2727,3.2727,3.2727,3.2727,3.2727,3.2727,3.2727,3.2727,3.2727,3.2727,3.2727,3.2727,3.2727,3.2727,3.2841,3.3182,3.3523,3.3614,3.3699,3.4511,3.4354,3.3925,3.4138,3.4316,3.4589,3.5113,3.5628,3.5982,3.5869,3.6401,3.6767,3.6401,3.6646,3.6911,3.6911,3.7011,3.7374,3.7736,3.7495,3.7374,3.7736,3.7495,3.7132,3.6911,3.7154,3.7253,3.7253,3.7471,3.8265,3.9756,3.9983,4.0011,4.0024,4.0511,4.0647,4.0647,4.1035,4.1399,4.1888,4.2293,4.3177,4.4546,4.4546,4.5037,4.5985,4.5985,4.6491,1.3894,1.5258,1.6566,1.621,1.6273,1.6294,1.5696,1.4914,1.4221,1.389,1.4449,1.5235,1.6063,1.7388,1.8671,1.9561,2.1176,2.3163,2.5544,2.6993,2.7841,2.7924,2.7862,2.7696,2.7386,2.811,2.8607,2.8607,2.9477,2.9994,2.9994,2.9994,2.9994,2.9994,2.9994,2.9994,3.0099,3.0639,3.0988,3.1381,3.1899,3.2354,3.2727,3.2727,3.2727,3.2727,3.2727,3.2727,3.2841,3.2727,3.2727,3.2841,3.2727,3.2727,3.2841,3.2727,3.2727,3.2841,3.2841,3.3182,3.3749,3.3926,3.4264,3.4709,3.5391,3.5566,3.5539,3.5552,3.5682,3.584,3.5926,3.6708,3.7253,3.6667,3.7011,3.7495,3.7374,3.7495,3.7495,3.7495,3.7976,3.8358,3.8477,3.8358,3.8358,3.8477,3.8358,3.8096,3.7616,3.7976,3.838,3.8447,3.8828,3.9566,4.0769,4.1329,4.1479,4.1022,4.1324,4.1444,4.1444,4.2212,4.2949,4.3802,4.3927,4.4546,4.5525,4.5525,4.5985,4.6968,4.6968,4.7442,1.5213,1.6707,1.74,1.5235,1.5676,1.6383,1.5358,1.4708,1.4407,1.4718,1.4904,1.5732,1.8112,1.8464,1.9292,2.2108,2.3764,2.4985,2.5771,2.6744,2.751,2.7883,2.7593,2.7489,2.78,2.8297,2.8607,2.8607,2.9477,2.9994,2.9994,2.9994,2.9994,2.9994,2.9994,3.0203,3.0681,3.1037,3.1298,3.1381,3.223,3.2664,3.2727,3.2727,3.2727,3.2727,3.2727,3.2955,3.3409,3.2955,3.2955,3.3409,3.2841,3.3069,3.3409,3.2841,3.3069,3.3523,3.3523,3.384,3.4556,3.5422,3.5442,3.5391,3.6872,3.6905,3.664,3.7502,3.7154,3.6622,3.7035,3.733,3.7374,3.7253,3.7736,3.7976,3.7495,3.7736,3.8096,3.8096,3.8238,3.8455,3.9072,3.8716,3.8477,3.9072,3.8716,3.8238,3.8216,3.8238,3.8515,3.8918,3.903,3.9701,4.1374,4.1535,4.2117,4.3286,4.2523,4.2212,4.2212,4.3075,4.3678,4.3802,4.4669,4.5525,4.6465,4.6465,4.6968,4.7938,4.7938,4.8055,1.5268,1.6815,1.7984,1.6921,1.797,1.9148,1.8725,1.7978,1.7444,1.769,1.7619,1.8186,2.0377,2.0471,2.1178,2.4126,2.5594,2.6689,2.7588,2.8136,2.8731,2.9379,2.8869,2.8455,2.8317,2.8976,2.9204,2.8607,2.9477,2.9994,2.9994,2.9994,2.9994,2.9994,3.0287,3.0599,3.0785,3.1529,3.1797,3.1797,3.2405,3.2841,3.3182,3.3182,3.3182,3.3182,3.3501,3.3614,3.3636,3.3296,3.3409,3.3523,3.3296,3.3409,3.3636,3.3614,3.3818,3.4043,3.4043,3.4491,3.5113,3.5848,3.6117,3.6432,3.7791,3.7969,3.7848,3.8698,3.8179,3.7569,3.7812,3.8096,3.8335,3.7976,3.8335,3.8693,3.8455,3.8574,3.8834,3.8834,3.8834,3.8953,3.9308,3.9072,3.8953,3.9308,3.9072,3.8834,3.8834,3.9061,3.9311,3.9658,4.0182,4.093,4.2233,4.2661,4.3067,4.3802,4.3927,4.3927,4.3927,4.4422,4.4915,4.5379,4.5864,4.6491,4.756,4.756,4.7703,4.8172,4.8172,4.8172,1.5564,1.6979,1.8408,1.8858,2.0009,2.1181,2.1844,2.0925,2.0159,2.0711,2.0618,2.0982,2.2541,2.3032,2.3874,2.5766,2.7059,2.812,2.9007,2.9373,2.9836,3.0536,3.0001,2.9399,2.9117,2.998,3.0068,2.9006,2.9866,3.0287,2.9994,3.0099,3.0203,3.0203,3.0703,3.1094,3.1197,3.204,3.2426,3.2426,3.2721,3.3182,3.384,3.384,3.384,3.384,3.4267,3.4267,3.3952,3.3749,3.3727,3.3952,3.3727,3.3727,3.384,3.4491,3.4692,3.4692,3.4692,3.5157,3.5711,3.6319,3.6748,3.7402,3.8436,3.8757,3.8826,3.9193,3.8953,3.8596,3.8596,3.8953,3.919,3.8716,3.8953,3.9308,3.9308,3.9308,3.9308,3.9308,3.9308,3.9308,3.9308,3.9308,3.9308,3.9308,3.9544,3.9638,3.9638,4.0339,4.0808,4.0924,4.1742,4.2574,4.3405,4.4181,4.4546,4.4546,4.5037,4.5281,4.5281,4.5525,4.601,4.6704,4.6942,4.7442,4.8172,4.8172,4.8172,4.8172,4.8172,4.8172,1.6905,1.7844,1.8758,1.9737,1.997,2.0435,2.2392,2.1308,2.0521,2.2698,2.3124,2.3485,2.4699,2.6211,2.7281,2.7044,2.8208,2.9095,2.8769,2.9573,3.0125,3.0216,3.0216,3.0125,3.0079,3.1159,3.1376,3.009,3.114,3.1278,3.0099,3.0495,3.0785,3.0785,3.13,3.1812,3.2319,3.2779,3.3071,3.3071,3.339,3.384,3.4491,3.4491,3.4491,3.4491,3.4469,3.4825,3.5157,3.4065,3.4289,3.5157,3.4065,3.3952,3.4491,3.5157,3.5378,3.5378,3.5378,3.5708,3.6438,3.7402,3.7724,3.793,3.8941,3.9262,3.9262,3.9285,3.9308,3.919,3.919,3.9308,3.9308,3.919,3.9308,3.9308,3.9308,3.9308,3.9308,3.9308,3.9308,3.9308,3.9308,3.9308,3.9308,3.9308,3.9989,4.0571,4.0571,4.1837,4.2812,4.3277,4.3863,4.4546,4.5061,4.596,4.6465,4.6465,4.5768,4.5281,4.5281,4.6105,4.6585,4.6704,4.7586,4.8172,4.8172,4.8172,4.8172,4.8172,4.8172,4.8172,1.6841,1.8248,1.9737,2.0093,2.0898,2.2063,2.3988,2.4317,2.4616,2.6169,2.6254,2.6022,2.6107,2.7419,2.8369,2.8179,2.9154,3.0145,3.0728,3.1124,3.1601,3.2302,3.1865,3.1512,3.1512,3.2448,3.2488,3.0919,3.2286,3.2555,3.1116,3.171,3.1812,3.13,3.1812,3.2218,3.242,3.322,3.3816,3.4155,3.4142,3.4491,3.5046,3.5046,3.5046,3.5046,3.5488,3.5488,3.5378,3.4936,3.4936,3.5378,3.4936,3.5046,3.5598,3.5927,3.5927,3.5927,3.5927,3.6168,3.6438,3.7448,3.7793,3.7976,3.8987,3.9308,3.9308,3.9308,3.9308,3.9308,3.9308,3.9308,3.9308,3.9308,3.9308,3.9308,3.9308,3.9308,3.9308,3.9308,3.9308,3.9544,4.0106,4.0223,4.0339,4.0894,4.1239,4.1468,4.1468,4.2568,4.3413,4.361,4.4898,4.5999,4.6105,4.7087,4.7677,4.7677,4.7324,4.7087,4.7087,4.7442,4.7677,4.7677,4.8055,4.8172,4.8172,4.8172,4.8172,4.8172,4.8172,4.8172,1.7357,1.8554,2.0064,2.0887,2.1754,2.3058,2.5472,2.6253,2.7011,2.8809,2.8747,2.8325,2.8057,2.868,2.9184,2.9263,3.0258,3.1223,3.2005,3.234,3.2846,3.3641,3.3104,3.2735,3.2735,3.382,3.3784,3.2112,3.3624,3.3923,3.2398,3.2801,3.2801,3.2218,3.2521,3.2622,3.2622,3.3925,3.4657,3.4808,3.5233,3.5576,3.5708,3.5708,3.5708,3.5708,3.6145,3.6059,3.5708,3.5488,3.5378,3.5378,3.5598,3.5927,3.6277,3.6277,3.6277,3.6277,3.6277,3.6369,3.6645,3.7517,3.7907,3.8206,3.9055,3.9308,3.9308,3.9308,3.9308,3.9308,3.9308,3.9308,3.9308,3.9308,3.9308,3.9308,3.9308,3.9308,3.9426,3.9638,3.9755,3.9989,4.0894,4.1124,4.1353,4.1899,4.2238,4.2538,4.2712,4.3762,4.4602,4.5045,4.6366,4.7205,4.7205,4.7821,4.8172,4.8172,4.8172,4.8172,4.8172,4.8172,4.8172,4.8172,4.8172,4.8172,4.8172,4.8172,4.8172,4.8172,4.8172,4.8277,1.8621,1.8719,1.949,2.2231,2.2485,2.3,2.657,2.6642,2.685,3.0028,3.0394,3.0241,3.0622,3.0394,3.0139,3.0368,3.1342,3.2085,3.2085,3.3034,3.3725,3.3725,3.3725,3.3725,3.3725,3.5011,3.5302,3.3875,3.5164,3.5281,3.3997,3.3773,3.3598,3.3598,3.3446,3.3292,3.3292,3.5152,3.5568,3.4808,3.6626,3.7096,3.6277,3.6277,3.6277,3.6277,3.6277,3.6277,3.6277,3.5708,3.5378,3.5488,3.6059,3.6277,3.6277,3.6277,3.6277,3.6277,3.6277,3.6622,3.7127,3.7632,3.816,3.8688,3.917,3.9308,3.9308,3.9308,3.9308,3.9308,3.9308,3.9308,3.9308,3.9308,3.9308,3.9308,3.9308,3.9308,3.9638,4.0571,4.0687,4.1009,4.1899,4.2012,4.2012,4.2012,4.2824,4.3609,4.4193,4.5572,4.6917,4.8068,4.8172,4.8172,4.8172,4.8172,4.8172,4.8172,4.8172,4.8172,4.8172,4.8172,4.8172,4.8172,4.8172,4.8172,4.8172,4.8172,4.8172,4.8172,4.8172,4.8512,1.7161,1.9331,2.1875,2.1794,2.4098,2.6608,2.7686,2.8032,2.8608,3.0485,3.0596,3.0368,3.0622,3.0622,3.0546,3.0622,3.1577,3.238,3.246,3.3364,3.4063,3.4147,3.423,3.423,3.423,3.5271,3.5657,3.4675,3.6259,3.6615,3.5138,3.5547,3.5547,3.4969,3.4993,3.4896,3.4896,3.6232,3.6464,3.5592,3.692,3.7096,3.6277,3.6277,3.6277,3.6277,3.6277,3.6277,3.6277,3.6168,3.6036,3.6036,3.6277,3.6277,3.6277,3.6277,3.6277,3.6323,3.6691,3.6897,3.7173,3.8068,3.8459,3.8688,3.917,3.9755,4.0339,4.0339,4.0339,4.0455,4.1009,4.0779,4.0106,3.9426,3.9755,4.0339,4.0339,4.0779,4.1239,4.1582,4.1582,4.1923,4.2824,4.2936,4.3159,4.3823,4.4513,4.527,4.6228,4.6742,4.7362,4.8094,4.8172,4.8172,4.8172,4.8172,4.8172,4.8172,4.8172,4.8172,4.8172,4.8172,4.8172,4.8172,4.8172,4.8172,4.8172,4.8172,4.8172,4.8172,4.8172,4.8512,1.8988,2.1407,2.4021,2.4372,2.6219,2.8144,2.908,2.9548,2.9991,3.0843,3.0748,3.0596,3.0773,3.0773,3.0698,3.0849,3.1811,3.254,3.2698,3.361,3.423,3.4397,3.4397,3.4397,3.4397,3.5443,3.5921,3.548,3.6949,3.7505,3.6546,3.6615,3.6521,3.6048,3.5763,3.5571,3.5571,3.6924,3.7269,3.6488,3.7861,3.8056,3.7311,3.658,3.6277,3.6277,3.6277,3.6277,3.6277,3.6277,3.6277,3.6277,3.6277,3.6277,3.6386,3.6688,3.658,3.6432,3.7364,3.7739,3.7985,3.8953,3.9651,4.0053,4.0337,4.0779,4.1239,4.1239,4.1239,4.1353,4.1899,4.1582,4.1124,4.0548,4.0779,4.1239,4.1239,4.1672,4.2125,4.2463,4.26,4.2824,4.3713,4.3958,4.4145,4.4926,4.5767,4.6552,4.7231,4.7545,4.7806,4.8146,4.8172,4.8172,4.8172,4.8172,4.8172,4.8172,4.8172,4.8172,4.8172,4.8172,4.8172,4.8172,4.8172,4.8172,4.8172,4.8172,4.8172,4.8172,4.8172,4.8616,2.2426,2.3942,2.5746,2.8386,2.8438,2.8386,3.0503,3.0973,3.0973,3.0973,3.0849,3.0773,3.0999,3.0849,3.0773,3.0999,3.194,3.2698,3.2698,3.3666,3.4397,3.4397,3.4397,3.4397,3.4397,3.5443,3.6096,3.6096,3.722,3.79,3.79,3.7201,3.6803,3.6803,3.6143,3.5763,3.5763,3.7632,3.8063,3.7294,3.9221,3.9647,3.8792,3.712,3.6363,3.6363,3.6472,3.6472,3.6363,3.6472,3.6495,3.6277,3.6495,3.6495,3.6472,3.7311,3.7203,3.682,3.8388,3.9067,3.945,4.0294,4.1225,4.2012,4.2012,4.2012,4.2125,4.2125,4.2125,4.2125,4.2238,4.2238,4.2125,4.2238,4.2238,4.2125,4.2125,4.2238,4.2463,4.3381,4.3517,4.3738,4.4692,4.48,4.5036,4.5689,4.6682,4.7362,4.7388,4.7858,4.8172,4.8172,4.8172,4.8172,4.8172,4.8172,4.8172,4.8172,4.8172,4.8172,4.8172,4.8172,4.8172,4.8172,4.8172,4.8172,4.8172,4.8172,4.8172,4.8172,4.8172,4.8799,1.9865,2.3001,2.6452,2.7079,2.8752,3.0372,3.0869,3.0973,3.0973,3.0973,3.0999,3.0924,3.0973,3.0999,3.0924,3.0973,3.194,3.2698,3.2698,3.3666,3.4397,3.4397,3.4397,3.4397,3.4397,3.5443,3.6096,3.6096,3.722,3.79,3.79,3.7716,3.7598,3.7598,3.7505,3.7413,3.7413,3.8739,3.8897,3.8088,3.9424,3.9647,3.8792,3.7737,3.7203,3.7311,3.795,3.7844,3.7311,3.795,3.7524,3.6386,3.7737,3.7844,3.7311,3.8161,3.8372,3.8388,3.9643,4.0109,4.0318,4.1286,4.1815,4.2012,4.2012,4.2488,4.3048,4.3048,4.3048,4.327,4.3932,4.3602,4.327,4.3932,4.3602,4.3048,4.3048,4.3602,4.4177,4.4396,4.4396,4.4661,4.5239,4.5428,4.5767,4.6813,4.7179,4.7492,4.7937,4.812,4.8172,4.8172,4.8172,4.8172,4.8172,4.8172,4.8172,4.8172,4.8172,4.8172,4.8172,4.8172,4.8172,4.8172,4.8172,4.8172,4.8172,4.8172,4.8172,4.8172,4.8172,4.8799,2.0623,2.355,2.6608,2.7994,2.9666,3.0973,3.0973,3.0973,3.0973,3.0973,3.0973,3.0973,3.0973,3.0973,3.1078,3.1339,3.2123,3.2803,3.3091,3.3849,3.4397,3.4397,3.4397,3.4397,3.4397,3.5443,3.6096,3.6096,3.722,3.79,3.79,3.79,3.79,3.79,3.79,3.79,3.79,3.9024,3.9407,3.8923,4.0153,4.0262,3.944,3.8477,3.8161,3.8161,3.8582,3.8582,3.8161,3.8582,3.8267,3.7524,3.8477,3.8477,3.8267,3.9104,3.9104,3.9019,4.0706,4.116,4.1297,4.2478,4.3042,4.327,4.327,4.3602,4.4068,4.4068,4.4068,4.4177,4.4613,4.4396,4.4177,4.4613,4.4396,4.4068,4.4068,4.4396,4.4722,4.4722,4.4957,4.5271,4.5584,4.6081,4.6656,4.7231,4.7571,4.7832,4.8146,4.8172,4.8172,4.8172,4.8172,4.8172,4.8172,4.8172,4.8172,4.8172,4.8172,4.8172,4.8172,4.8172,4.8172,4.8172,4.8172,4.8172,4.8172,4.8172,4.8172,4.8198,4.8486,4.9087,2.1381,2.3968,2.6504,2.9405,3.0555,3.0973,3.0973,3.0973,3.0973,3.0973,3.0973,3.0973,3.0973,3.0973,3.1182,3.1757,3.2333,3.2908,3.3509,3.4058,3.4397,3.4397,3.4397,3.4397,3.4397,3.5338,3.5992,3.6096,3.7116,3.7795,3.79,3.79,3.79,3.79,3.79,3.7952,3.8031,3.9076,3.9651,3.9756,4.0801,4.0896,4.0287,3.9544,3.9104,3.9,3.9208,3.9104,3.9,3.9208,3.9104,3.8792,3.9104,3.9104,3.9104,3.9955,3.9903,3.964,4.1672,4.2268,4.2387,4.362,4.433,4.4722,4.4722,4.4722,4.4722,4.4722,4.4722,4.4722,4.4722,4.4722,4.4722,4.4722,4.4722,4.4722,4.4722,4.4722,4.4722,4.4722,4.5297,4.5794,4.5898,4.6787,4.7492,4.7492,4.7885,4.8172,4.8172,4.8172,4.8172,4.8172,4.8172,4.8172,4.8172,4.8172,4.8172,4.8172,4.8172,4.8172,4.8172,4.8172,4.8172,4.8172,4.8172,4.8172,4.8172,4.8172,4.8172,4.8198,4.8695,4.927,1.7748,2.1825,2.6504,2.9405,3.0555,3.0973,3.0973,3.0973,3.0973,3.0973,3.0973,3.0973,3.0973,3.0973,3.1182,3.1757,3.2333,3.2908,3.3509,3.4058,3.4397,3.4397,3.4397,3.4397,3.4397,3.4999,3.56,3.607,3.6724,3.7351,3.7874,3.79,3.79,3.79,3.79,3.8135,3.8606,3.9259,3.9834,4.0305,4.0984,4.1224,4.1123,4.0997,4.0593,3.9955,4.0694,4.0593,3.9955,4.0694,4.016,3.8896,4.0364,4.0593,4.0058,4.0795,4.1409,4.1827,4.2606,4.3179,4.3753,4.4434,4.467,4.4722,4.4722,4.4722,4.4722,4.4722,4.4722,4.4722,4.4722,4.4722,4.4722,4.4722,4.4722,4.4722,4.4722,4.4722,4.4722,4.4722,4.5611,4.6525,4.7022,4.7649,4.8068,4.8068,4.8146,4.8172,4.8172,4.8172,4.8172,4.8172,4.8172,4.8172,4.8172,4.8172,4.8172,4.8172,4.8172,4.8172,4.8172,4.8172,4.8172,4.8172,4.8172,4.8172,4.8172,4.8172,4.8172,4.8172,4.8277,4.8878,1.827,2.2165,2.6033,2.8935,3.0085,3.0581,3.0921,3.0973,3.0973,3.0973,3.0973,3.0973,3.0973,3.0973,3.1287,3.2176,3.2542,3.3012,3.3927,3.4241,3.4397,3.4397,3.4397,3.4397,3.4397,3.5208,3.5835,3.6096,3.6985,3.7612,3.79,3.79,3.79,3.79,3.79,3.8161,3.871,3.9311,4.0043,4.0932,4.1193,4.1324,4.1324,4.1324,4.1097,4.0795,4.1123,4.1123,4.0795,4.1097,4.0896,4.0262,4.0997,4.1097,4.0795,4.1224,4.1664,4.2239,4.2814,4.3389,4.3964,4.4539,4.4722,4.4722,4.4722,4.4722,4.4722,4.4722,4.4722,4.4722,4.4722,4.4722,4.4722,4.4722,4.4722,4.4722,4.4722,4.5009,4.5428,4.6055,4.6342,4.6761,4.7649,4.8015,4.8172,4.8172,4.8172,4.8172,4.8172,4.8172,4.8172,4.8172,4.8172,4.8172,4.8172,4.8172,4.8172,4.8172,4.8172,4.8172,4.8172,4.8172,4.8172,4.8172,4.8172,4.8172,4.8172,4.8172,4.8172,4.8198,4.8852,4.9401,1.8534,2.1586,2.4284,2.7538,2.8969,2.9836,3.0581,3.0869,3.0973,3.0973,3.0973,3.0973,3.0973,3.0973,3.1365,3.2489,3.2698,3.3091,3.4241,3.4397,3.4397,3.4397,3.4397,3.4397,3.4397,3.5312,3.594,3.6096,3.709,3.7743,3.79,3.79,3.79,3.79,3.79,3.824,3.8919,3.9677,4.0461,4.1324,4.1324,4.1324,4.1324,4.1324,4.1324,4.1324,4.1324,4.1324,4.1324,4.1324,4.1324,4.1324,4.1324,4.1324,4.1324,4.1324,4.1768,4.2448,4.2866,4.3493,4.4173,4.4591,4.4722,4.4722,4.4722,4.4722,4.4722,4.4722,4.4722,4.4722,4.4722,4.4722,4.4722,4.4722,4.4722,4.4774,4.4931,4.5323,4.5976,4.71,4.6996,4.7022,4.8015,4.8172,4.8172,4.8172,4.8172,4.8172,4.8172,4.8172,4.8172,4.8172,4.8172,4.8172,4.8172,4.8172,4.8172,4.8172,4.8172,4.8172,4.8172,4.8172,4.8172,4.8172,4.8172,4.8172,4.8172,4.8172,4.8172,4.8198,4.9218,4.9766,1.639,1.8343,2.0398,2.4654,2.6996,2.8612,2.9869,3.0607,3.0973,3.0973,3.0973,3.0973,3.0973,3.0973,3.1365,3.2489,3.2698,3.3091,3.4241,3.4397,3.4397,3.4397,3.4397,3.4397,3.4397,3.4972,3.5547,3.607,3.6698,3.7299,3.7874,3.79,3.79,3.79,3.79,3.8423,3.9547,4.0671,4.1246,4.1324,4.1324,4.1324,4.1324,4.1324,4.1324,4.1324,4.1324,4.1324,4.1324,4.1324,4.1324,4.1324,4.1324,4.1324,4.1324,4.1324,4.203,4.2971,4.3023,4.3755,4.4696,4.4722,4.4722,4.4722,4.4722,4.4722,4.4722,4.4722,4.4722,4.4722,4.4722,4.4722,4.4722,4.4722,4.4722,4.4879,4.5454,4.5611,4.5976,4.71,4.731,4.7492,4.8068,4.8172,4.8172,4.8172,4.8172,4.8172,4.8172,4.8172,4.8172,4.8172,4.8172,4.8172,4.8172,4.8172,4.8172,4.8172,4.8172,4.8172,4.8172,4.8172,4.8172,4.8172,4.8172,4.8172,4.8172,4.8172,4.8172,4.8198,4.8826,4.9401,1.5446,1.7263,1.932,2.2736,2.5679,2.7884,2.8665,3.0388,3.1616,3.1123,3.0973,3.0973,3.0973,3.0973,3.1365,3.2489,3.2698,3.3091,3.4241,3.4397,3.4397,3.4397,3.4397,3.4397,3.4397,3.4946,3.5521,3.607,3.6671,3.7273,3.7874,3.79,3.79,3.79,3.79,3.8449,3.9599,4.0749,4.1324,4.1324,4.1324,4.1324,4.1324,4.1324,4.1324,4.1324,4.1324,4.1324,4.1324,4.1324,4.1324,4.1324,4.1324,4.1324,4.135,4.1716,4.2343,4.3075,4.3441,4.4068,4.4722,4.4722,4.4722,4.4722,4.4722,4.4722,4.4722,4.4722,4.4722,4.4722,4.4722,4.4722,4.4722,4.4722,4.5036,4.5454,4.6055,4.6186,4.6499,4.7649,4.7571,4.7519,4.8094,4.8172,4.8172,4.8172,4.8172,4.8172,4.8172,4.8172,4.8172,4.8172,4.8172,4.8172,4.8172,4.8172,4.8172,4.8172,4.8172,4.8172,4.8172,4.8172,4.8172,4.8172,4.8172,4.8172,4.8172,4.8172,4.8381,4.8773,4.9348,4.9897,1.4282,1.575,1.7777,2.0796,2.3348,2.5744,2.8083,2.9968,3.1194,3.1383,3.1542,3.169,3.1394,3.1394,3.1642,3.2568,3.2909,3.3384,3.4241,3.4397,3.4397,3.4397,3.4397,3.4397,3.4397,3.4946,3.5521,3.607,3.6671,3.7273,3.7874,3.79,3.79,3.79,3.8266,3.8841,3.9599,4.0749,4.1324,4.1324,4.1324,4.1324,4.1324,4.1324,4.1324,4.1324,4.1324,4.1324,4.1324,4.1324,4.1324,4.1324,4.1324,4.1324,4.1376,4.1951,4.2526,4.3101,4.3676,4.4251,4.4722,4.4722,4.4722,4.4722,4.4722,4.4722,4.4722,4.4722,4.4722,4.4722,4.4722,4.4722,4.4774,4.4983,4.548,4.6055,4.663,4.6761,4.7048,4.7989,4.7885,4.7728,4.812,4.8172,4.8172,4.8172,4.8172,4.8172,4.8172,4.8172,4.8172,4.8172,4.8172,4.8172,4.8172,4.8172,4.8172,4.8172,4.8172,4.8172,4.8172,4.8172,4.8172,4.8172,4.8611,4.8726,4.8726,4.8405,4.8486,4.9087,4.9636,5.0532,0.0,0.0,0.0,1.8769,2.01,2.2119,2.7844,2.9149,2.9739,3.1619,3.2609,3.2919,3.229,3.2146,3.226,3.2698,3.3274,3.3936,3.438,3.4481,3.4481,3.4481,3.4481,3.4481,3.4481,3.492,3.5495,3.607,3.6645,3.7246,3.7874,3.79,3.79,3.79,3.9024,3.9599,3.9599,4.0749,4.1324,4.1324,4.1324,4.1324,4.1324,4.1324,4.1324,4.1324,4.1324,4.1324,4.1324,4.1324,4.1324,4.1324,4.1324,4.1324,4.1402,4.1977,4.2552,4.3127,4.3702,4.4251,4.4722,4.4722,4.4722,4.4722,4.4722,4.4722,4.4722,4.4722,4.4722,4.4722,4.4722,4.4748,4.4905,4.548,4.6081,4.6656,4.7205,4.7336,4.7519,4.8068,4.8172,4.8172,4.8172,4.8172,4.8172,4.8172,4.8172,4.8172,4.8172,4.8172,4.8172,4.8172,4.8172,4.8172,4.8289,4.8289,4.8289,4.8289,4.8289,4.8289,4.8289,4.8289,4.8289,4.8289,4.9362,4.9901,4.9901,4.8842,4.8603,4.9232,4.9782,5.1349,1.2951,0.0,0.0,0.0,0.0,0.0,2.3217,2.5185,2.7202,2.9572,3.0248,3.0908,3.2598,3.3353,3.3677,3.367,3.3288,3.3619,3.526,3.5384,3.5359,3.5359,3.5359,3.5359,3.5359,3.4944,3.5305,3.6882,3.6603,3.6802,3.7848,3.79,3.79,3.79,3.9024,3.9599,3.9599,4.0749,4.1324,4.1324,4.1324,4.1324,4.1324,4.1324,4.1324,4.1324,4.1324,4.1324,4.1324,4.1324,4.1324,4.1324,4.1324,4.1559,4.2004,4.2579,4.3154,4.3729,4.4304,4.4591,4.4722,4.4722,4.4722,4.4722,4.4722,4.4722,4.4722,4.4722,4.4722,4.4722,4.4722,4.5062,4.5428,4.5584,4.6369,4.7127,4.731,4.7649,4.7989,4.8146,4.8172,4.8172,4.8172,4.8172,4.8172,4.8172,4.8172,4.8172,4.8172,4.8172,4.8172,4.8172,4.8172,4.8521,4.9362,4.9475,4.9816,5.0712,5.0712,5.0712,5.0712,5.0712,5.0712,5.0712,5.1017,5.1237,5.1237,5.0934,5.1236,5.2283,5.333,5.4256,1.3885,1.4872,1.6308,1.6847,0.0,0.0,2.3288,2.482,2.6504,2.9903,3.1025,3.1846,3.3072,3.3869,3.4361,3.4629,3.414,3.4235,3.5655,3.6036,3.6188,3.6188,3.6188,3.6188,3.6188,3.5413,3.576,3.7868,3.6791,3.6645,3.7848,3.8213,3.833,3.79,3.9024,3.9599,3.9599,4.0749,4.1324,4.1324,4.1324,4.1324,4.1324,4.1324,4.1324,4.1324,4.1324,4.1324,4.1324,4.1324,4.1324,4.1324,4.1324,4.1664,4.2239,4.2814,4.3389,4.3964,4.4539,4.4722,4.4722,4.4722,4.4722,4.4722,4.4722,4.4722,4.4722,4.4722,4.4722,4.4774,4.5036,4.5375,4.5741,4.6238,4.6839,4.7388,4.7623,4.7937,4.8172,4.8172,4.8172,4.8172,4.8172,4.8172,4.8172,4.8172,4.8172,4.8172,4.8172,4.8172,4.8405,4.8842,4.8957,4.9388,5.0573,5.0685,5.0906,5.1674,5.1674,5.1674,5.1674,5.1674,5.1674,5.1674,5.2108,5.2787,5.3608,5.2613,5.2686,5.3922,5.4934,5.5616,1.5381,1.589,1.7115,1.8313,1.7742,0.0,2.5016,2.5674,2.6139,3.0425,3.2372,3.3151,3.282,3.3245,3.3944,3.4584,3.4824,3.5176,3.5967,3.6626,3.7049,3.7049,3.7049,3.7049,3.7049,3.6267,3.6711,3.8746,3.747,3.7016,3.8004,3.8881,3.8881,3.79,3.9092,3.9695,3.9599,4.0848,4.1398,4.1324,4.1398,4.1398,4.1324,4.1324,4.1324,4.1324,4.1324,4.1324,4.1324,4.1324,4.1324,4.1324,4.1324,4.1716,4.2317,4.284,4.3415,4.4042,4.4539,4.4722,4.4722,4.4722,4.4722,4.4722,4.4722,4.4722,4.4722,4.4722,4.4774,4.4957,4.548,4.5826,4.6278,4.7302,4.7591,4.7889,4.8505,4.8637,4.8637,4.8637,4.8405,4.8172,4.8405,4.8405,4.8405,4.8637,4.8637,4.8637,4.8637,4.8637,4.8957,5.0014,5.0126,5.0573,5.1783,5.1892,5.1892,5.2136,5.2136,5.2136,5.2136,5.2136,5.2136,5.2136,5.3097,5.4524,5.6286,5.4273,5.3751,5.4913,5.5565,5.6423,1.6877,1.6906,1.7563,1.7802,1.8104,0.0,1.945,2.0258,2.1535,2.4104,2.5193,2.6314,2.836,2.9258,2.9759,2.9953,3.2109,3.4558,3.6773,3.7594,3.7947,3.7947,3.7947,3.7947,3.7947,3.7155,3.7557,3.9629,3.9759,3.9491,3.8944,3.9826,3.959,3.7992,3.9694,4.0401,3.9599,4.1576,4.2039,4.1324,4.2137,4.2039,4.1324,4.1324,4.1324,4.1324,4.1324,4.1324,4.1324,4.1324,4.1324,4.1324,4.1324,4.1951,4.2866,4.2971,4.3676,4.4565,4.4696,4.4722,4.4722,4.4722,4.4722,4.4722,4.4722,4.4722,4.4722,4.4722,4.5088,4.548,4.5611,4.6959,4.8457,4.87,4.9858,5.0878,5.1017,5.1044,5.1044,5.1044,4.9502,4.8521,4.9362,4.9589,4.9928,5.0934,5.1044,5.1044,5.1044,5.1044,5.1127,5.1347,5.1347,5.1783,5.2963,5.3097,5.3518,5.4436,5.4539,5.4539,5.4539,5.4539,5.4539,5.4539,5.4743,5.5543,5.6915,5.6466,5.664,5.7439,5.809,5.8525,1.8443,1.8227,1.8792,1.9121,0.0,0.0,0.0,2.0677,2.1455,2.4088,2.4627,2.5196,2.72,2.759,2.7829,2.8487,3.1091,3.3245,3.3873,3.6467,3.8413,3.8767,3.8797,3.8797,3.8797,3.8023,3.8053,3.931,4.0977,4.1365,4.0,4.0774,4.083,3.9761,4.1023,4.1718,4.1462,4.2901,4.3273,4.2819,4.3273,4.3273,4.2819,4.2819,4.2528,4.2065,4.2625,4.2262,4.1424,4.2333,4.2528,4.1967,4.1498,4.203,4.3023,4.3023,4.3755,4.483,4.5342,4.5127,4.483,4.5342,4.5555,4.5555,4.5555,4.5953,4.6347,4.6347,4.6808,4.7351,4.7622,4.8817,4.9995,5.0298,5.1042,5.1674,5.1674,5.1674,5.1674,5.1674,5.0712,5.0154,5.0685,5.0796,5.1017,5.1565,5.1674,5.1674,5.1674,5.1674,5.1892,5.243,5.2537,5.2992,5.42,5.4304,5.4539,5.5179,5.5179,5.5179,5.5179,5.5179,5.5179,5.5179,5.5179,5.5807,5.7094,5.7094,5.7633,5.862,5.8949,5.9099,0.0,0.0,0.0,0.0,0.0,2.0092,0.0,0.0,0.0,2.4567,2.4747,2.4777,2.5854,2.5615,2.5674,2.6871,2.9175,3.0522,2.9684,3.3574,3.6896,3.7973,3.8751,3.914,3.8871,3.8266,3.8243,3.923,4.1175,4.1901,4.0916,4.1728,4.2016,4.159,4.2326,4.2918,4.342,4.416,4.4499,4.4312,4.4499,4.4499,4.4312,4.4312,4.3843,4.3177,4.3937,4.3368,4.1967,4.3654,4.3843,4.2985,4.21,4.2488,4.3618,4.3544,4.423,4.5449,4.6374,4.6058,4.5449,4.6374,4.6687,4.6687,4.6687,4.728,4.7993,4.8134,4.8612,4.923,4.9848,5.0678,5.1378,5.1887,5.2244,5.2352,5.2352,5.2352,5.2352,5.2352,5.2352,5.2352,5.2108,5.2,5.2108,5.2352,5.2459,5.243,5.243,5.2537,5.2857,5.3727,5.3831,5.4171,5.5078,5.5179,5.5179,5.5179,5.5179,5.5179,5.528,5.528,5.528,5.528,5.54,5.6029,5.7303,5.7423,5.8008,5.9099,5.9099,5.9099,0.0,0.0,2.3254,2.2122,2.2152,2.197,1.9899,0.0,2.0633,1.9779,0.0,2.0408,2.0557,0.0,0.0,2.1485,2.331,2.4986,2.6004,2.8218,3.0612,3.3006,3.6387,3.8063,3.6926,3.6738,3.7953,4.0918,3.9785,3.9772,4.1749,4.2659,4.2679,4.1677,4.2911,4.3541,4.342,4.4891,4.5144,4.4312,4.5235,4.5144,4.4312,4.4312,4.4219,4.4125,4.4219,4.4219,4.3937,4.4219,4.4219,4.4087,4.3585,4.4409,4.5706,4.5384,4.6189,4.7661,4.7763,4.7763,4.7661,4.7791,4.7763,4.7763,4.7763,4.7864,4.8078,4.8668,4.9258,4.9848,5.0494,5.186,5.3116,5.3174,5.3964,5.4743,5.4743,5.4743,5.4743,5.4743,5.4743,5.4406,5.3413,5.3203,5.3518,5.4641,5.4947,5.5149,5.5149,5.535,5.5451,5.535,5.535,5.528,5.5179,5.5179,5.5179,5.5179,5.5179,5.528,5.5581,5.5581,5.5581,5.5581,5.6154,5.6919,5.7849,5.8455,5.8912,5.9099,5.9099,5.9099,2.5391,2.4902,2.4689,2.297,2.3047,2.2863,2.0618,2.0171,2.0158,2.008,0.0,0.0,0.0,0.0,0.0,0.0,2.1534,2.2495,2.2244,2.4942,2.803,3.1001,3.2796,3.4382,3.5789,3.6267,3.7853,4.1145,3.9529,3.9682,4.2562,4.309,4.3456,4.3712,4.4343,4.4991,4.5668,4.6315,4.6462,4.6077,4.6462,4.6462,4.6077,4.6077,4.5718,4.5235,4.5808,4.5355,4.4406,4.5537,4.5949,4.5774,4.5902,4.6011,4.6126,4.6345,4.7058,4.8066,4.8696,4.8496,4.8066,4.8696,4.8894,4.8993,4.9708,5.0165,5.0515,5.0807,5.1595,5.2442,5.2734,5.3598,5.4406,5.4406,5.4845,5.5179,5.5179,5.5179,5.528,5.5381,5.5381,5.5381,5.5018,5.4815,5.4815,5.5381,5.5681,5.588,5.588,5.5979,5.5979,5.588,5.588,5.578,5.5681,5.5481,5.5481,5.5681,5.5681,5.5681,5.578,5.588,5.6061,5.6455,5.6728,5.7395,5.8529,5.8832,5.9213,5.9667,5.9422,5.9315,2.7534,2.7092,2.6722,2.402,2.3668,2.3397,2.1247,2.0576,2.054,2.0946,2.0485,0.0,0.0,0.0,1.9031,1.9748,0.0,2.0677,1.9713,2.1873,0.0,0.0,2.9026,3.0941,3.4113,3.4203,3.5848,4.0247,3.8392,3.8871,4.312,4.3329,4.3928,4.5244,4.5304,4.5933,4.7309,4.7309,4.7309,4.7309,4.7309,4.7309,4.7309,4.7309,4.6931,4.6255,4.7019,4.6462,4.5235,4.6726,4.7229,4.731,4.7834,4.7688,4.7252,4.7685,4.8198,4.8993,4.9805,4.9513,4.8993,4.9805,5.0028,5.022,5.0917,5.1678,5.2247,5.2426,5.3294,5.4251,5.4431,5.492,5.528,5.528,5.5381,5.5381,5.5381,5.5381,5.5481,5.5681,5.5681,5.578,5.5979,5.588,5.5681,5.5681,5.5979,5.6077,5.6077,5.6176,5.6176,5.6077,5.6077,5.6077,5.5979,5.578,5.578,5.5979,5.6077,5.6077,5.5979,5.6077,5.6382,5.7051,5.7263,5.8004,5.9161,5.9344,5.971,6.0197,5.988,5.9636,3.2028,3.1117,3.0038,2.5443,2.4287,2.3579,2.0757,2.1155,2.1919,2.1166,2.1979,2.2677,2.207,2.1379,2.071,2.0096,1.9489,0.0,0.0,0.0,0.0,0.0,0.0,0.0,3.139,2.9355,3.0821,3.7943,3.5489,3.6477,4.297,4.3329,4.3928,4.5244,4.5304,4.5933,4.7309,4.7309,4.7309,4.7309,4.7309,4.7309,4.7309,4.7309,4.7309,4.7222,4.7309,4.7309,4.7222,4.7309,4.7698,4.8356,4.9015,4.9552,4.9994,4.9668,5.0191,5.1105,5.1135,5.1135,5.1105,5.1135,5.1105,5.1135,5.1229,5.1678,5.2336,5.2965,5.3653,5.4371,5.4999,5.5381,5.5581,5.5581,5.578,5.5979,5.5979,5.5979,5.5979,5.5979,5.5979,5.5979,5.5979,5.5979,5.5979,5.5979,5.6176,5.6372,5.6372,5.6567,5.6664,5.6372,5.6372,5.6274,5.5979,5.5979,5.5979,5.5979,5.6274,5.6274,5.5979,5.6274,5.6678,5.735,5.8023,5.8767,5.9778,6.0455,6.0763,6.0794,6.0197,6.0016,3.4277,3.4218,3.3419,2.9134,2.8084,2.7176,2.3538,2.3119,2.309,2.1535,2.2225,2.2683,2.113,2.0676,2.0308,1.9531,1.9192,0.0,0.0,0.0,0.0,0.0,0.0,0.0,0.0,0.0,3.145,3.6118,3.6237,3.8033,4.2462,4.309,4.3928,4.5244,4.5304,4.5933,4.7309,4.7309,4.7309,4.7309,4.7309,4.7309,4.7309,4.7309,4.7309,4.7309,4.7309,4.7309,4.7309,4.7309,4.7967,4.8955,4.9164,4.9942,5.0807,5.0733,5.0917,5.1229,5.1229,5.1229,5.1229,5.1229,5.1229,5.1289,5.1738,5.2336,5.2995,5.3653,5.4441,5.521,5.5421,5.5681,5.588,5.588,5.5979,5.5979,5.5979,5.5979,5.6077,5.6274,5.6274,5.6274,5.647,5.6567,5.647,5.6274,5.647,5.6664,5.6664,5.6761,5.6761,5.6664,5.6664,5.6664,5.6567,5.6567,5.647,5.6274,5.6567,5.6664,5.6567,5.6997,5.7648,5.8324,5.9,5.9676,6.0455,6.0701,6.0794,6.0794,6.0586,6.0377,3.6861,3.7034,3.6356,3.2498,3.1405,3.025,2.6308,2.5655,2.5434,2.398,2.4021,2.4327,2.4176,2.2734,2.1335,2.0649,1.9767,0.0,0.0,1.6537,0.0,0.0,0.0,0.0,0.0,0.0,0.0,3.54,3.528,3.7135,4.2102,4.2761,4.3688,4.5244,4.5304,4.5933,4.7309,4.7309,4.7309,4.7309,4.7309,4.7309,4.7309,4.7309,4.7309,4.7309,4.7396,4.7396,4.7396,4.7396,4.8175,4.9434,4.9434,5.0245,5.1323,5.1229,5.1229,5.1323,5.1229,5.1323,5.1509,5.1416,5.1416,5.163,5.2292,5.2954,5.3585,5.4037,5.4888,5.572,5.5379,5.5797,5.6176,5.6176,5.6176,5.6274,5.6274,5.6274,5.6372,5.647,5.6567,5.6567,5.6761,5.6761,5.6761,5.6567,5.6664,5.6761,5.6761,5.6761,5.6761,5.6761,5.6761,5.6761,5.6761,5.6761,5.6761,5.6567,5.6664,5.6761,5.6761,5.7408,5.7962,5.8423,5.9316,5.9993,6.0424,6.0671,6.0794,6.0794,6.0794,6.069]},{"header":{"parameterUnit":"m.s-1","parameterCategory":1,"la1":30.6,"la2":29.2853,"lo1":-89.7004,"lo2":-87.6739,"dx":0.0162,"dy":0.0183,"nx":112,"ny":82,"refTime":"2023-01-02T18:00:00:Z","depth":0,"parameterNumber":3,"parameterNumberName":"V-component_of_WINDS"},"data":[0.0,0.0,0.0,0.0,0.0,0.0,0.0,0.0,0.0,0.0,0.0,0.0,0.0,0.0,0.0,0.0,0.0,0.0,0.0,0.0,0.0,0.0,0.0,0.0,0.0,0.0,0.0,0.0,0.0,0.0,0.0,0.0,0.0,0.0,0.0,0.0,0.0,0.0,0.0,0.0,0.0,0.0,0.0,0.0,0.0,0.0,0.0,0.0,0.0,0.0,0.0,0.0,0.0,0.0,0.0,0.0,0.0,0.0,0.0,0.0,0.0,0.0,0.0,0.0,0.0,0.0,0.0,0.0,0.0,0.0,0.0,0.0,0.0,0.0,0.0,0.0,0.0,0.0,0.0,0.0,0.0,0.0,0.0,0.0,0.0,0.0,0.0,0.0,0.0,0.0,-2.4612,-2.6468,-2.9137,-3.057,-3.0104,-2.9364,-2.7637,-2.4797,0.0,0.0,0.0,0.0,0.0,0.0,0.0,0.0,0.0,0.0,0.0,0.0,0.0,0.0,0.0,0.0,0.0,0.0,0.0,0.0,0.0,0.0,0.0,0.0,0.0,0.0,0.0,0.0,0.0,0.0,0.0,0.0,0.0,0.0,0.0,0.0,0.0,0.0,0.0,0.0,0.0,0.0,0.0,0.0,0.0,0.0,0.0,0.0,0.0,0.0,0.0,0.0,0.0,0.0,0.0,0.0,0.0,0.0,0.0,0.0,0.0,0.0,0.0,0.0,0.0,0.0,0.0,0.0,0.0,0.0,0.0,0.0,0.0,0.0,0.0,0.0,0.0,0.0,0.0,0.0,0.0,0.0,0.0,0.0,0.0,0.0,0.0,0.0,0.0,0.0,0.0,0.0,0.0,0.0,0.0,0.0,0.0,0.0,0.0,0.0,0.0,0.0,0.0,0.0,-2.4137,-2.8495,-3.0122,-3.0537,-2.9603,-2.9101,-2.7732,-2.5247,0.0,0.0,0.0,0.0,0.0,0.0,0.0,0.0,0.0,0.0,0.0,0.0,0.0,0.0,0.0,0.0,0.0,0.0,0.0,0.0,0.0,0.0,0.0,0.0,0.0,0.0,0.0,0.0,0.0,0.0,0.0,0.0,0.0,0.0,0.0,0.0,0.0,0.0,0.0,0.0,0.0,0.0,0.0,0.0,0.0,0.0,0.0,0.0,0.0,0.0,0.0,0.0,0.0,0.0,0.0,0.0,0.0,0.0,0.0,0.0,0.0,0.0,0.0,0.0,0.0,0.0,0.0,0.0,0.0,0.0,0.0,0.0,0.0,0.0,0.0,0.0,0.0,0.0,0.0,0.0,0.0,0.0,0.0,0.0,0.0,0.0,0.0,0.0,0.0,0.0,0.0,0.0,0.0,0.0,0.0,0.0,0.0,0.0,0.0,0.0,0.0,0.0,0.0,-2.53,-2.7471,-3.1388,-3.1678,-3.1341,-3.06,-2.9787,-2.8202,-2.5514,-2.2406,0.0,0.0,0.0,0.0,0.0,0.0,0.0,0.0,0.0,0.0,0.0,0.0,0.0,0.0,0.0,0.0,0.0,0.0,0.0,0.0,0.0,0.0,0.0,0.0,0.0,0.0,0.0,0.0,0.0,0.0,0.0,0.0,0.0,0.0,0.0,0.0,0.0,0.0,0.0,0.0,0.0,0.0,0.0,0.0,0.0,0.0,0.0,0.0,0.0,0.0,0.0,0.0,0.0,0.0,0.0,0.0,0.0,0.0,0.0,0.0,0.0,0.0,0.0,0.0,0.0,0.0,0.0,0.0,0.0,0.0,0.0,0.0,0.0,0.0,0.0,0.0,0.0,0.0,0.0,0.0,0.0,0.0,0.0,0.0,0.0,0.0,0.0,0.0,0.0,0.0,0.0,0.0,0.0,0.0,0.0,0.0,0.0,0.0,0.0,0.0,0.0,0.0,-2.9278,-3.0785,-3.3488,-3.3046,-3.2428,-3.2047,-3.0896,-2.8952,-2.6082,-2.2931,0.0,0.0,0.0,0.0,0.0,0.0,0.0,0.0,0.0,0.0,0.0,0.0,0.0,0.0,0.0,0.0,0.0,0.0,0.0,0.0,0.0,0.0,0.0,0.0,0.0,0.0,0.0,0.0,0.0,0.0,0.0,0.0,0.0,0.0,0.0,0.0,0.0,0.0,0.0,0.0,0.0,0.0,0.0,0.0,0.0,0.0,0.0,0.0,0.0,0.0,0.0,0.0,0.0,0.0,0.0,0.0,0.0,0.0,0.0,0.0,0.0,0.0,0.0,0.0,0.0,0.0,0.0,0.0,0.0,0.0,0.0,0.0,0.0,0.0,0.0,0.0,0.0,0.0,0.0,0.0,0.0,0.0,0.0,0.0,0.0,0.0,0.0,0.0,0.0,0.0,0.0,0.0,0.0,0.0,0.0,0.0,0.0,0.0,0.0,0.0,0.0,0.0,-2.973,-3.1987,-3.359,-3.3727,-3.3693,-3.3624,-3.2256,-3.0135,-2.7192,-2.3465,0.0,0.0,0.0,0.0,0.0,0.0,0.0,0.0,0.0,0.0,0.0,0.0,0.0,0.0,0.0,0.0,0.0,0.0,0.0,0.0,0.0,0.0,0.0,0.0,0.0,0.0,0.0,0.0,0.0,0.0,0.0,0.0,0.0,0.0,0.0,0.0,0.0,0.0,0.0,0.0,0.0,0.0,0.0,0.0,0.0,0.0,0.0,0.0,0.0,0.0,0.0,0.0,0.0,0.0,0.0,0.0,0.0,0.0,0.0,0.0,0.0,0.0,0.0,0.0,0.0,0.0,0.0,0.0,0.0,0.0,0.0,0.0,0.0,0.0,0.0,0.0,0.0,0.0,0.0,0.0,0.0,0.0,0.0,0.0,0.0,0.0,0.0,0.0,0.0,0.0,0.0,0.0,0.0,0.0,0.0,0.0,0.0,0.0,0.0,0.0,0.0,0.0,-3.024,-3.2388,-3.4814,-3.4508,-3.4109,-3.4109,-3.2547,-3.0185,-2.6894,0.0,0.0,0.0,0.0,0.0,0.0,0.0,0.0,0.0,0.0,0.0,0.0,0.0,0.0,0.0,0.0,0.0,0.0,0.0,0.0,0.0,0.0,0.0,0.0,0.0,0.0,0.0,0.0,0.0,0.0,0.0,0.0,0.0,0.0,0.0,0.0,0.0,0.0,0.0,0.0,0.0,0.0,0.0,0.0,0.0,0.0,0.0,0.0,0.0,0.0,0.0,0.0,0.0,0.0,0.0,0.0,0.0,0.0,0.0,0.0,0.0,0.0,0.0,0.0,0.0,0.0,0.0,0.0,0.0,0.0,0.0,0.0,0.0,0.0,0.0,0.0,0.0,0.0,0.0,0.0,0.0,0.0,0.0,0.0,0.0,0.0,0.0,0.0,0.0,0.0,0.0,0.0,0.0,0.0,0.0,0.0,0.0,0.0,0.0,0.0,0.0,0.0,-2.8596,-3.1065,-3.3328,-3.6148,-3.5557,-3.5086,-3.5324,-3.3657,-3.0912,-2.6928,0.0,0.0,0.0,0.0,0.0,0.0,0.0,0.0,0.0,0.0,0.0,0.0,0.0,0.0,0.0,0.0,0.0,0.0,0.0,0.0,0.0,0.0,0.0,0.0,0.0,0.0,0.0,0.0,0.0,0.0,0.0,0.0,0.0,0.0,0.0,0.0,0.0,0.0,0.0,0.0,0.0,0.0,0.0,0.0,0.0,0.0,0.0,0.0,0.0,0.0,0.0,0.0,0.0,0.0,0.0,0.0,0.0,0.0,0.0,0.0,0.0,0.0,0.0,0.0,0.0,0.0,0.0,0.0,0.0,0.0,0.0,0.0,0.0,0.0,0.0,0.0,0.0,0.0,0.0,0.0,0.0,0.0,0.0,0.0,0.0,0.0,0.0,0.0,0.0,0.0,0.0,0.0,0.0,0.0,0.0,0.0,0.0,0.0,0.0,0.0,0.0,0.0,-2.9006,-3.2256,-3.5104,-3.7351,-3.6936,-3.6797,-3.7525,-3.5874,-3.2633,0.0,0.0,0.0,0.0,0.0,0.0,0.0,0.0,0.0,0.0,0.0,0.0,0.0,0.0,0.0,0.0,0.0,0.0,0.0,0.0,0.0,0.0,0.0,0.0,0.0,0.0,0.0,0.0,0.0,0.0,0.0,0.0,0.0,0.0,0.0,0.0,0.0,0.0,0.0,0.0,0.0,0.0,0.0,0.0,0.0,0.0,0.0,0.0,0.0,0.0,0.0,0.0,0.0,0.0,0.0,0.0,0.0,0.0,0.0,0.0,0.0,0.0,0.0,0.0,0.0,0.0,0.0,0.0,0.0,0.0,0.0,0.0,0.0,0.0,0.0,0.0,0.0,0.0,0.0,0.0,0.0,0.0,0.0,0.0,0.0,0.0,0.0,0.0,0.0,0.0,0.0,0.0,0.0,0.0,0.0,0.0,0.0,0.0,0.0,0.0,0.0,0.0,0.0,-2.9447,-3.2705,-3.5316,-3.7028,-3.7028,-3.6995,-3.7196,-3.5793,-3.2713,-2.7737,0.0,0.0,0.0,0.0,0.0,0.0,0.0,0.0,0.0,0.0,0.0,0.0,0.0,0.0,0.0,0.0,0.0,0.0,0.0,0.0,0.0,0.0,0.0,0.0,0.0,0.0,0.0,0.0,0.0,0.0,0.0,0.0,0.0,0.0,0.0,0.0,0.0,0.0,0.0,0.0,0.0,0.0,0.0,0.0,0.0,0.0,0.0,0.0,0.0,0.0,0.0,0.0,0.0,0.0,0.0,0.0,0.0,0.0,0.0,0.0,0.0,0.0,0.0,0.0,0.0,0.0,0.0,0.0,0.0,0.0,0.0,0.0,0.0,0.0,0.0,0.0,0.0,0.0,0.0,0.0,0.0,0.0,0.0,0.0,0.0,0.0,0.0,0.0,0.0,0.0,0.0,0.0,0.0,0.0,0.0,0.0,0.0,0.0,0.0,0.0,0.0,0.0,-2.9748,-3.3204,-3.6068,-3.7995,-3.7831,-3.77,-3.7968,-3.6637,-3.3914,-2.9521,0.0,0.0,0.0,0.0,0.0,0.0,0.0,0.0,0.0,0.0,0.0,0.0,0.0,0.0,0.0,0.0,0.0,0.0,0.0,0.0,0.0,0.0,0.0,0.0,0.0,0.0,0.0,0.0,0.0,0.0,0.0,0.0,0.0,0.0,0.0,0.0,0.0,0.0,0.0,0.0,0.0,0.0,0.0,0.0,0.0,0.0,0.0,0.0,0.0,0.0,0.0,0.0,0.0,0.0,0.0,0.0,0.0,0.0,0.0,0.0,0.0,0.0,0.0,0.0,0.0,0.0,0.0,0.0,0.0,0.0,0.0,0.0,0.0,0.0,0.0,0.0,0.0,0.0,0.0,0.0,0.0,0.0,0.0,0.0,0.0,0.0,0.0,0.0,0.0,0.0,0.0,0.0,0.0,0.0,0.0,0.0,0.0,0.0,0.0,0.0,0.0,0.0,-3.0026,-3.3748,-3.7055,-3.956,-3.8905,-3.8581,-3.9228,-3.8019,-3.5726,-3.2293,0.0,0.0,0.0,0.0,0.0,0.0,0.0,0.0,0.0,0.0,0.0,0.0,0.0,0.0,0.0,0.0,0.0,0.0,0.0,0.0,0.0,0.0,0.0,0.0,0.0,0.0,0.0,0.0,0.0,0.0,0.0,0.0,0.0,0.0,0.0,0.0,0.0,0.0,0.0,0.0,0.0,0.0,0.0,0.0,0.0,0.0,0.0,0.0,0.0,0.0,0.0,0.0,0.0,0.0,0.0,0.0,0.0,0.0,0.0,0.0,-2.0903,-1.8352,0.0,0.0,0.0,0.0,0.0,0.0,0.0,0.0,0.0,0.0,0.0,0.0,0.0,0.0,0.0,0.0,0.0,0.0,0.0,0.0,0.0,0.0,0.0,0.0,0.0,0.0,0.0,0.0,0.0,0.0,0.0,0.0,0.0,0.0,0.0,0.0,0.0,0.0,0.0,0.0,-3.0692,-3.4443,-3.7536,-3.9242,-3.9206,-3.912,-3.9306,-3.8465,-3.6638,-3.357,-3.1016,0.0,0.0,0.0,0.0,0.0,0.0,0.0,0.0,0.0,0.0,0.0,0.0,0.0,0.0,0.0,0.0,0.0,0.0,0.0,0.0,0.0,0.0,0.0,0.0,0.0,0.0,0.0,0.0,0.0,0.0,0.0,0.0,0.0,0.0,0.0,0.0,0.0,0.0,0.0,0.0,0.0,0.0,0.0,0.0,0.0,0.0,0.0,0.0,0.0,0.0,0.0,0.0,0.0,0.0,0.0,0.0,0.0,0.0,0.0,-2.4249,-2.2294,0.0,0.0,0.0,0.0,0.0,0.0,0.0,0.0,0.0,0.0,0.0,0.0,0.0,0.0,0.0,0.0,0.0,0.0,0.0,0.0,0.0,0.0,0.0,0.0,0.0,0.0,0.0,0.0,0.0,0.0,0.0,0.0,0.0,0.0,0.0,0.0,0.0,0.0,0.0,0.0,-3.1268,-3.5572,-3.8899,-3.9968,-3.9952,-3.9747,-3.9573,-3.903,-3.793,-3.6042,-3.3524,0.0,0.0,0.0,0.0,0.0,0.0,0.0,0.0,0.0,0.0,0.0,0.0,0.0,0.0,0.0,0.0,0.0,0.0,0.0,0.0,0.0,0.0,0.0,0.0,0.0,0.0,0.0,0.0,0.0,0.0,0.0,0.0,0.0,0.0,0.0,0.0,0.0,0.0,0.0,0.0,0.0,0.0,0.0,0.0,0.0,0.0,0.0,0.0,0.0,0.0,0.0,0.0,0.0,-2.876,-2.9158,-2.9158,-2.9251,-2.998,-3.0907,-2.7926,-2.7098,-2.7595,-2.4282,0.0,0.0,0.0,0.0,0.0,0.0,0.0,0.0,0.0,0.0,0.0,0.0,0.0,0.0,0.0,0.0,0.0,0.0,0.0,0.0,0.0,0.0,-2.7131,-2.8323,-2.998,-2.9947,-2.511,0.0,0.0,0.0,0.0,0.0,0.0,0.0,0.0,0.0,0.0,0.0,-3.2245,-3.6774,-3.9974,-4.072,-4.0563,-4.0269,-3.9935,-3.9606,-3.9129,-3.8427,-3.5976,-3.3557,0.0,0.0,0.0,0.0,0.0,0.0,0.0,0.0,0.0,0.0,0.0,0.0,0.0,0.0,0.0,0.0,0.0,0.0,0.0,0.0,0.0,0.0,0.0,0.0,0.0,0.0,0.0,0.0,0.0,0.0,0.0,0.0,-2.1135,-2.1334,0.0,0.0,0.0,0.0,0.0,0.0,0.0,0.0,0.0,0.0,0.0,0.0,0.0,-2.6936,-2.7926,-2.9284,-2.998,-3.0112,-3.147,-3.21,-3.2133,-3.2796,-3.3193,-3.3326,-3.2862,0.0,-2.9947,-2.8224,0.0,0.0,0.0,0.0,0.0,0.0,0.0,0.0,0.0,0.0,0.0,0.0,0.0,0.0,0.0,0.0,0.0,0.0,0.0,0.0,0.0,0.0,-3.3657,-3.3856,-3.4121,-3.4121,-3.3326,-2.9284,-2.5509,-2.4579,-2.3881,-2.2754,0.0,0.0,0.0,0.0,0.0,0.0,-3.4421,-3.7219,-3.9242,-3.9969,-4.0254,-4.0269,-3.9935,-3.9833,-3.9644,-3.9176,-3.8195,-3.6638,-3.4419,-3.2199,0.0,0.0,0.0,0.0,0.0,0.0,0.0,0.0,0.0,0.0,0.0,0.0,0.0,0.0,0.0,0.0,0.0,0.0,0.0,0.0,0.0,0.0,0.0,0.0,0.0,0.0,0.0,0.0,0.0,-2.0671,-2.1797,-2.1797,-2.1499,-2.1164,0.0,0.0,0.0,0.0,0.0,0.0,0.0,0.0,0.0,-2.8555,-2.892,-2.9847,-3.1404,-3.2034,-3.2762,-3.3624,-3.4253,-3.4783,-3.5181,-3.5512,-3.5644,-3.5644,-3.5644,-3.5114,-3.4021,-3.1305,-2.9019,-2.7098,0.0,0.0,0.0,0.0,-2.6535,-2.7429,-2.9218,-2.9648,-2.9284,-2.8887,0.0,0.0,0.0,0.0,0.0,0.0,0.0,-2.8727,-3.1741,-3.3383,-3.4684,-3.6373,-3.6771,-3.6821,-3.7035,-3.4938,-3.2133,-2.9364,-2.8795,-2.7563,-2.3911,-2.5581,0.0,0.0,0.0,-3.443,-3.6027,-3.878,-4.069,-4.0781,-4.1086,-4.1167,-4.0809,-4.0754,-4.07,-4.0481,-4.0183,-3.9388,-3.803,-3.5876,-3.3061,0.0,0.0,0.0,0.0,0.0,0.0,0.0,0.0,0.0,0.0,0.0,0.0,0.0,0.0,0.0,0.0,0.0,0.0,0.0,0.0,0.0,0.0,0.0,0.0,0.0,0.0,0.0,0.0,-2.1897,-2.2924,-2.2924,-2.3255,-2.3123,0.0,0.0,0.0,0.0,0.0,0.0,-2.7263,-2.7992,-2.9383,-3.157,-3.1835,-3.2796,-3.4618,-3.4651,-3.5214,-3.6274,-3.6274,-3.6572,-3.7102,-3.7102,-3.7102,-3.7102,-3.7102,-3.7102,-3.6903,-3.4154,-3.2365,-3.1305,-3.0742,-3.0344,-3.0079,-3.041,-3.1007,-3.1835,-3.3292,-3.3822,-3.3723,-3.3193,-3.263,-3.1868,-3.0245,0.0,0.0,0.0,0.0,-3.148,-3.4521,-3.5298,-3.5937,-3.8237,-3.8668,-3.8753,-3.9026,-3.8656,-3.7319,-3.3827,-3.3393,-3.2319,-2.83,-2.9648,0.0,-2.9935,-3.3671,-3.7006,-3.8027,-4.0538,-4.2068,-4.1665,-4.2072,-4.2146,-4.1633,-4.1577,-4.1521,-4.1409,-4.1409,-4.1177,-4.068,-3.9056,-3.7069,-3.4684,0.0,0.0,0.0,0.0,0.0,0.0,0.0,0.0,0.0,0.0,0.0,0.0,0.0,0.0,0.0,0.0,0.0,0.0,0.0,0.0,0.0,0.0,0.0,0.0,0.0,0.0,0.0,0.0,0.0,-2.6005,-2.7197,0.0,0.0,0.0,0.0,-2.8097,-2.8158,-2.882,-3.0245,-3.0964,-3.2431,-3.4618,-3.5346,-3.6108,-3.6936,-3.6936,-3.697,-3.7036,-3.7036,-3.7069,-3.7102,-3.7102,-3.7102,-3.7102,-3.7102,-3.7102,-3.7102,-3.6903,-3.5578,-3.3624,-3.3591,-3.2729,-3.1669,-3.3061,-3.4054,-3.4883,-3.6373,-3.687,-3.687,-3.6837,-3.5413,-3.3657,-3.3557,-3.2067,0.0,0.0,-3.4087,-3.521,-3.7868,-3.9076,-3.9699,-4.0167,-4.0036,-3.985,-3.985,-3.9228,-3.8421,-3.7562,-3.7102,-3.6222,-3.4297,0.0,-3.5742,-3.6084,-3.7216,-3.8734,-4.0878,-4.2064,-4.2482,-4.2025,-4.2723,-4.2877,-4.2038,-4.1984,-4.182,-4.1409,-4.1409,-4.1409,-4.1375,-4.1243,-3.9852,-3.7003,-3.5379,0.0,0.0,0.0,0.0,0.0,0.0,0.0,0.0,0.0,0.0,0.0,0.0,0.0,0.0,0.0,0.0,0.0,0.0,0.0,0.0,0.0,0.0,0.0,0.0,0.0,0.0,0.0,0.0,-2.6932,-2.8158,0.0,-2.7694,-2.892,-2.9947,-3.0444,-3.1769,-3.2994,-3.3988,-3.475,-3.5512,-3.6307,-3.6572,-3.6837,-3.7102,-3.7102,-3.7334,-3.7831,-3.7831,-3.8063,-3.8493,-3.8493,-3.8493,-3.8493,-3.8493,-3.8493,-3.8493,-3.8493,-3.7765,-3.6671,-3.7135,-3.7003,-3.6605,-3.7135,-3.75,-3.7798,-3.8328,-3.8493,-3.8493,-3.8493,-3.7963,-3.7334,-3.7334,-3.697,-3.6697,-3.7501,-3.8066,-3.8783,-4.0254,-4.0798,-4.1154,-4.1783,-4.1835,-4.1818,-4.2037,-4.1681,-4.1291,-4.0968,-3.98,-3.8404,-3.7086,-3.8304,-3.9177,-3.8486,-3.991,-4.146,-4.2518,-4.3064,-4.3265,-4.2745,-4.3182,-4.3574,-4.3698,-4.3731,-4.3872,-4.4191,-4.4224,-4.4224,-4.4224,-4.3761,-4.2833,-4.1342,-3.9852,-3.6373,0.0,0.0,0.0,0.0,0.0,0.0,0.0,0.0,0.0,0.0,0.0,0.0,0.0,0.0,0.0,0.0,0.0,0.0,0.0,0.0,0.0,0.0,0.0,0.0,0.0,-2.7374,-2.9076,-2.8461,-2.9847,-3.051,-2.9582,-3.1239,-3.2564,-3.3061,-3.4684,-3.5876,-3.634,-3.6837,-3.7235,-3.7466,-3.7466,-3.7599,-3.7831,-3.7831,-3.8096,-3.856,-3.856,-3.8825,-3.9288,-3.9288,-3.9288,-3.9288,-3.9288,-3.9288,-3.9288,-3.9288,-3.899,-3.8626,-3.909,-3.9288,-3.9288,-3.9288,-3.9288,-3.9288,-3.9288,-3.9288,-3.9288,-3.9288,-3.9288,-3.9288,-3.9288,-3.9668,-4.0132,-4.0254,-4.0595,-4.1154,-4.1968,-4.2205,-4.2309,-4.3024,-4.3062,-4.3062,-4.3227,-4.3062,-4.2826,-4.3013,-4.1852,-4.056,-3.983,-4.099,-4.1813,-4.1194,-4.2227,-4.3357,-4.413,-4.4331,-4.4359,-4.4226,-4.444,-4.4704,-4.5019,-4.4622,-4.4754,-4.5715,-4.5317,-4.5284,-4.5781,-4.4622,-4.3727,-4.3264,-4.1806,-3.8692,-3.3856,0.0,0.0,0.0,0.0,0.0,0.0,0.0,0.0,0.0,0.0,0.0,0.0,0.0,0.0,0.0,0.0,0.0,0.0,0.0,0.0,0.0,0.0,0.0,-2.8495,-3.004,-3.1019,-3.0651,-3.2531,-3.3292,-3.1858,-3.4352,-3.6042,-3.6075,-3.6738,-3.7135,-3.7168,-3.7168,-3.75,-3.8228,-3.8228,-3.8593,-3.9255,-3.9288,-3.9288,-3.9288,-3.9288,-3.9288,-3.9288,-3.9288,-3.9288,-3.9288,-3.9288,-3.9322,-3.9408,-3.9408,-3.9408,-3.9322,-3.9342,-3.9288,-3.9288,-3.9288,-3.9288,-3.9375,-3.9322,-3.9408,-3.9408,-3.9408,-3.9408,-3.9408,-3.9408,-3.9906,-4.0491,-4.0942,-4.1553,-4.2306,-4.3113,-4.3311,-4.3444,-4.3863,-4.3672,-4.3429,-4.3429,-4.3166,-4.3117,-4.3784,-4.3425,-4.2946,-4.2774,-4.3081,-4.3657,-4.4335,-4.4165,0.0,-4.5917,-4.5727,-4.5707,-4.6346,-4.6447,-4.624,-4.5844,-4.4489,-4.4324,-4.5781,-4.4556,-4.439,-4.5814,-4.3794,-4.2634,-4.2634,-4.1177,-3.9719,-3.8328,0.0,0.0,0.0,0.0,0.0,0.0,0.0,0.0,0.0,0.0,0.0,0.0,0.0,0.0,0.0,0.0,0.0,0.0,0.0,0.0,0.0,-2.9059,-3.1269,-3.0494,-3.1934,-3.3029,-3.2895,-3.4386,-3.5247,-3.4849,-3.6009,-3.7036,-3.7566,-3.7798,-3.8129,-3.8659,-3.8692,-3.8758,-3.899,-3.899,-3.909,-3.9288,-3.9288,-3.9288,-3.9288,-3.9288,-3.9288,-3.9288,-3.9288,-3.9553,-4.0083,-4.0083,-4.0348,-4.0812,-4.0812,-4.0812,-4.0713,-3.9686,-3.9288,-3.9288,-3.9288,-3.962,-4.015,-4.0647,-4.0812,-4.0812,-4.0812,-4.0812,-4.0812,-4.0812,-4.1166,-4.1573,-4.1681,-4.2083,-4.2704,-4.3819,-4.4108,-4.4381,-4.5334,-4.5474,-4.5565,-4.616,-4.6215,-4.6221,-4.6669,-4.6847,-4.6256,-4.419,-4.4681,-4.5363,-4.5569,-4.6301,-4.6818,-4.6896,-4.6794,-4.6312,-4.5324,-4.523,-4.5369,-4.5748,-4.5417,-4.5814,-4.7305,-4.7007,-4.6974,-4.7371,-4.6311,-4.545,-4.4887,-4.2402,-4.0945,0.0,0.0,0.0,0.0,0.0,0.0,0.0,0.0,0.0,0.0,0.0,0.0,0.0,0.0,0.0,0.0,0.0,0.0,0.0,0.0,0.0,0.0,-3.1393,-3.3212,-3.333,-3.4298,-3.4872,-3.4764,-3.5744,-3.6473,-3.6473,-3.7135,-3.7765,-3.8195,-3.8493,-3.8825,-3.9255,-3.9288,-3.9288,-3.9288,-3.9288,-3.9288,-3.9288,-3.9501,-3.9634,-3.9719,-3.9934,-4.0014,-4.0183,-4.0183,-4.0415,-4.0812,-4.0812,-4.1044,-4.1409,-4.1409,-4.1409,-4.1342,0.0,0.0,0.0,0.0,-4.0448,-4.0878,-4.1276,-4.1409,-4.1409,-4.1409,-4.1409,-4.1409,-4.1409,-4.1777,-4.2234,-4.2454,-4.2983,-4.3852,-4.5027,-4.5493,-4.5905,-4.6911,-4.7187,-4.7292,-4.7783,-4.7854,-4.7943,-4.8102,-4.8365,0.0,-4.611,-4.6536,-4.7084,-4.7084,-4.7519,-4.7989,-4.819,-4.7717,-4.7217,-4.6723,-4.6562,-4.6709,-4.7139,-4.6908,0.0,0.0,0.0,-4.7868,-4.7537,-4.7139,0.0,0.0,0.0,-4.3694,-4.4622,-4.2634,0.0,0.0,-3.7102,-3.6208,0.0,0.0,0.0,0.0,0.0,0.0,0.0,0.0,0.0,0.0,0.0,0.0,0.0,0.0,0.0,0.0,-3.348,-3.4672,-3.6357,-3.6673,-3.6563,-3.6191,-3.6771,-3.7235,-3.7235,-3.7897,-3.8328,-3.8328,-3.8924,-3.9288,-3.9288,-3.9288,0.0,0.0,0.0,-3.9322,-3.9388,-3.9759,-4.0127,-4.0514,-4.0829,-4.1109,-4.1409,-4.1409,-4.1475,-4.1541,-4.1541,-4.1574,-4.1674,-4.1674,-4.1674,-4.164,-4.1475,-4.1409,-4.1442,-4.1508,-4.1541,-4.1541,-4.164,0.0,0.0,-4.1773,-4.1773,-4.1806,-4.1872,-4.2369,-4.2958,-4.3384,-4.427,-4.5302,-4.6477,-4.7108,-4.7627,-4.838,-4.8521,-4.8521,-4.8626,-4.8574,-4.8609,-4.8766,-4.875,-4.868,-4.8325,-4.8434,-4.8609,-4.8609,-4.8363,-4.8622,-4.966,-4.8723,-4.8342,-4.929,-4.9187,0.0,-4.9094,-4.8498,-4.873,-5.0121,-4.8995,-4.7968,-4.7305,-4.7272,-4.7272,-4.7272,-4.6643,-4.7272,-4.9226,-4.8564,-4.8266,-4.81,-4.1442,-3.9719,0.0,0.0,0.0,0.0,0.0,0.0,0.0,0.0,0.0,0.0,0.0,0.0,0.0,0.0,0.0,-3.2782,-3.4645,-3.6195,-3.6887,-3.7502,-3.7668,-3.697,-3.7566,-3.7996,-3.7996,-3.8659,-3.9056,-3.9056,-3.9189,-3.9288,-3.9288,-3.9288,-3.9288,-3.9288,-3.9288,-3.9553,-4.015,-4.0259,-4.0624,-4.121,-4.1266,0.0,-4.1409,-4.1409,-4.174,-4.2303,-4.2303,-4.2634,-4.3197,-4.3197,-4.3197,-4.3065,-4.1872,-4.1409,-4.1475,-4.2104,-4.2303,-4.2402,-4.2999,-4.3197,-4.3297,-4.386,-4.4059,-4.4158,-4.4754,-4.5052,0.0,-4.5275,-4.5704,-4.637,-4.6942,-4.7424,-4.7926,-4.8452,-4.8556,-4.8696,-4.9328,-4.9168,-4.9179,-5.0258,-5.011,-4.9945,-5.0255,-4.9837,-4.9363,-4.904,-4.9761,-5.0369,-5.0317,-5.012,-4.9757,-4.9224,-4.9128,-4.9094,-4.9094,-4.8995,-4.926,-5.0154,-4.9955,-4.9723,-4.9591,-4.9558,-4.9558,-4.9558,-4.9425,-4.9558,-4.9988,-4.9856,-4.979,-4.9723,-4.7106,-4.6179,0.0,0.0,0.0,0.0,0.0,0.0,0.0,0.0,0.0,0.0,0.0,-2.8833,-2.9691,0.0,-3.3728,-3.4622,-3.588,-3.697,-3.7566,-3.7996,-3.8063,-3.7698,-3.8295,-3.8758,-3.8758,-3.9056,-3.9288,-3.9288,-3.9288,-3.9288,-3.9288,-3.962,-3.9818,-3.9818,-4.0183,-4.0514,-4.0912,-4.11,-4.1466,-4.1972,-4.2166,-4.2309,-4.2535,-4.2535,-4.2734,-4.3065,-4.3065,-4.3495,-4.4191,-4.4556,-4.4721,-4.4622,-4.3893,-4.3396,-4.3131,-4.3893,-4.4158,-4.4191,-4.4589,-4.4721,-4.4754,-4.5119,-4.5251,-4.5317,-4.5682,-4.5781,-4.5844,-4.6057,-4.6301,-4.6727,-4.7832,-4.8273,-4.8653,-4.9538,-4.9714,-4.982,-5.0206,-5.0115,-5.0215,-5.124,-5.1011,-5.0887,-5.1533,-5.1084,-5.053,-5.0206,-5.1002,-5.1477,-5.1138,-5.0861,-5.0514,-5.0026,-5.0091,-5.0187,-5.0187,-5.0551,-5.0916,-5.128,-5.1313,-5.1313,-5.1313,-5.1313,-5.1313,-5.1313,-5.1313,-5.1313,-5.1313,-5.1313,-5.1313,-5.128,-5.0551,-4.9823,0.0,0.0,0.0,0.0,0.0,0.0,0.0,-2.6327,-2.7465,-2.9008,-3.0443,-3.1764,-3.2997,-3.4134,-3.5316,-3.6625,-3.7103,-3.7566,-3.8328,-3.8427,-3.8427,-3.8427,-3.8924,-3.9288,-3.9288,-3.9288,-3.9288,-3.9288,-3.9288,-3.9322,-3.9487,-4.005,-4.0448,-4.058,-4.111,-4.1475,-4.164,-4.1944,-4.2311,-4.2734,-4.3046,-4.3447,-4.3827,-4.3827,-4.3926,-4.4059,-4.4059,-4.4357,-4.4953,-4.5549,-4.5781,-4.5814,-4.5947,-4.5649,-4.5185,-4.5616,-4.5781,-4.5781,-4.5781,-4.5781,-4.5814,-4.5947,-4.6013,-4.6046,-4.6179,-4.6212,-4.6275,-4.6675,-4.6918,-4.7412,-4.8781,-4.934,-4.9841,-5.0889,-5.1224,-5.1329,-5.122,-5.1109,-5.1228,-5.1822,-5.1488,-5.1365,-5.2226,-5.2104,-5.1719,-5.1356,-5.183,-5.2096,-5.177,-5.1355,-5.116,-5.1162,-5.1391,-5.1479,-5.1479,-5.2042,-5.2373,-5.2373,-5.2373,-5.2373,-5.2373,-5.2373,-5.2373,-5.2373,-5.2373,-5.2373,-5.2373,-5.2373,-5.2373,-5.2373,-5.2373,-5.1744,-2.3951,-2.3156,-2.3212,-2.4978,-2.5902,-2.7335,0.0,-3.1268,-3.1031,-3.2724,-3.4016,-3.4914,-3.5071,-3.6283,-3.7382,-3.79,-3.803,-3.8328,-3.9056,-3.9156,-3.9156,-3.9156,-3.9222,-3.9288,-3.9288,-3.9288,-3.9288,-3.9288,-3.9288,-3.9553,-4.0216,-4.0348,-4.0647,-4.1276,-4.1375,-4.174,-4.2402,-4.246,-4.2767,-4.3495,-4.3495,-4.392,-4.4556,-4.4556,-4.492,-4.5549,-4.5549,-4.5582,-4.5682,-4.5748,-4.5781,-4.5847,-4.651,-4.6709,-4.6576,-4.6013,-4.5781,-4.5781,-4.5781,-4.5781,-4.5914,-4.6543,-4.6775,-4.6908,-4.757,-4.7736,-4.7736,-4.7801,-4.8467,-4.9138,-4.9325,-5.0518,-5.1731,-5.1856,-5.2418,-5.2796,-5.2358,-5.1908,-5.1638,-5.1679,-5.124,-5.1274,-5.2209,-5.2551,-5.2443,-5.1657,-5.1623,-5.1741,-5.1965,-5.19,-5.1967,-5.2184,-5.2279,-5.2274,-5.2274,-5.234,-5.2373,-5.2373,-5.2373,-5.2373,-5.2373,-5.2373,-5.2373,-5.2373,-5.2373,-5.2373,-5.2373,-5.2373,-5.2373,-5.2373,-5.2373,-5.2307,-2.6333,-2.6005,-2.5878,-2.7737,-2.8986,-3.0306,-3.2329,-3.2622,-3.3148,-3.5215,-3.6014,-3.6457,-3.6619,-3.7595,-3.8254,-3.8214,-3.856,-3.8924,-3.9222,-3.9288,-3.9288,-3.9288,-3.9288,-3.9288,-3.9288,-3.9288,-3.9454,-3.9885,-3.9918,-4.0216,-4.0945,-4.1409,-4.174,-4.2038,-4.2469,-4.2866,-4.3164,-4.3562,-4.3926,-4.4257,-4.4688,-4.5052,-4.5317,-4.5317,-4.5483,-4.5814,-4.6245,-4.6444,-4.6477,-4.6908,-4.7073,-4.7106,-4.7404,-4.7537,-4.7504,-4.7206,-4.7073,-4.7073,-4.7073,-4.7073,-4.7139,-4.7438,-4.7537,-4.7603,-4.7901,-4.8495,-4.9089,-4.9055,-4.9835,-5.0823,-5.1098,-5.1519,-5.1879,-5.2172,-5.224,-5.2183,-5.2001,-5.1816,-5.1731,-5.2175,-5.1891,-5.183,-5.2629,-5.2673,-5.2471,-5.2101,-5.2269,-5.2437,-5.2263,-5.2227,-5.2291,-5.2412,-5.2373,-5.2373,-5.2373,-5.2373,-5.2373,-5.2373,-5.2373,-5.2373,-5.2373,-5.2373,-5.2373,-5.2373,-5.2373,-5.2373,-5.2373,-5.2373,-5.2373,-5.2373,-5.2373,-5.2605,-2.7694,-2.7959,-2.8301,-3.004,-3.1556,-3.2749,-3.3325,-3.3938,-3.4839,-3.6514,-3.7148,-3.7516,-3.7718,-3.8422,-3.8823,-3.8546,-3.8924,-3.9288,-3.9288,-3.9288,-3.9288,-3.9288,-3.9288,-3.9355,-3.9553,-3.9587,-3.9785,-4.0348,-4.0547,-4.0978,-4.1674,-4.2237,-4.2601,-4.2833,-4.3529,-4.3926,-4.3926,-4.4622,-4.4986,-4.4986,-4.5516,-4.5914,-4.6113,-4.6311,-4.6411,-4.6444,-4.6974,-4.7206,-4.7239,-4.7769,-4.8001,-4.8034,-4.8233,-4.8299,-4.8332,-4.8531,-4.8365,-4.8034,-4.8233,-4.8299,-4.8332,-4.8531,-4.863,-4.863,-4.863,-4.9227,-4.9989,-4.989,-5.068,-5.1532,-5.1905,-5.2015,-5.2124,-5.2581,-5.2571,-5.2432,-5.2243,-5.2243,-5.2316,-5.2634,-5.2337,-5.2302,-5.301,-5.2694,-5.2445,-5.2553,-5.2731,-5.28,-5.2445,-5.2373,-5.2373,-5.2373,-5.2373,-5.2373,-5.2373,-5.2373,-5.2373,-5.2373,-5.2373,-5.2373,-5.2373,-5.2373,-5.2473,-5.2672,-5.2672,-5.2771,-5.297,-5.297,-5.297,-5.297,-5.297,-5.3235,-2.7533,-2.829,-2.9795,-3.1631,-3.3195,-3.452,-3.5547,-3.6118,-3.6417,-3.6485,-3.7402,-3.8162,-3.8162,-3.8758,-3.9309,-3.9255,-3.9309,-3.9288,-3.9288,-3.9288,-3.9288,-3.9288,-3.9288,-3.9553,-4.0282,-4.0348,-4.0348,-4.0382,-4.1011,-4.1707,-4.2435,-4.2502,-4.2866,-4.3562,-4.4291,-4.4655,-4.4655,-4.5384,-4.5748,-4.5748,-4.5781,-4.6179,-4.6874,-4.7603,-4.7934,-4.7934,-4.7968,-4.7968,-4.7968,-4.8001,-4.8001,-4.8067,-4.8796,-4.9094,-4.916,-4.9889,-4.9226,-4.81,-4.8829,-4.9094,-4.9193,-4.9922,-5.0154,-5.0154,-5.0154,-5.0154,-5.0187,-5.0187,-5.056,-5.0957,-5.0957,-5.1854,-5.2877,-5.3376,-5.4087,-5.4454,-5.3909,-5.3844,-5.3549,-5.259,-5.2412,-5.2553,-5.3043,-5.2694,-5.2553,-5.2974,-5.2694,-5.2445,-5.2373,-5.2373,-5.2373,-5.2373,-5.2373,-5.2373,-5.2373,-5.2373,-5.2373,-5.2373,-5.2373,-5.2373,-5.2373,-5.2373,-5.2705,-5.3367,-5.3367,-5.3732,-5.446,-5.446,-5.446,-5.446,-5.446,-5.446,-2.9085,-3.0145,-3.1338,-3.3473,-3.4705,-3.5552,-3.588,-3.6467,-3.7036,-3.7536,-3.7736,-3.7953,-3.8181,-3.8602,-3.889,-3.8612,-3.8957,-3.9288,-3.9288,-3.9288,-3.9288,-3.9288,-3.9719,-4.0117,-4.0348,-4.0382,-4.0779,-4.174,-4.2005,-4.2469,-4.3197,-4.3264,-4.3595,-4.4291,-4.4556,-4.492,-4.5417,-4.6146,-4.651,-4.6543,-4.704,-4.7404,-4.7636,-4.7901,-4.8001,-4.8001,-4.8001,-4.8299,-4.873,-4.873,-4.9028,-4.9491,-4.9756,-4.9856,-4.9856,-5.0121,-4.9889,-4.9525,-4.9756,-4.9856,-4.9889,-5.0121,-5.022,-5.022,-5.022,-5.0792,-5.1329,-5.1054,-5.2167,-5.3259,-5.2505,-5.2974,-5.3471,-5.3241,-5.3213,-5.3076,-5.2972,-5.2903,-5.2834,-5.2445,-5.2373,-5.2445,-5.2624,-5.2516,-5.2445,-5.2624,-5.2516,-5.2373,-5.2373,-5.2373,-5.2373,-5.2373,-5.2373,-5.2373,-5.2373,-5.2373,-5.2572,-5.3036,-5.3069,-5.3268,-5.3765,-5.3798,-5.3897,-5.4162,-5.4162,-5.4262,-5.4527,-5.4527,-5.4527,-5.4527,-5.4527,-5.4792,-3.1007,-3.2034,-3.2928,-3.5148,-3.6042,-3.6456,-3.657,-3.707,-3.7683,-3.8302,-3.7903,-3.7603,-3.8114,-3.8202,-3.817,-3.8214,-3.9023,-3.9587,-3.9375,-3.9541,-3.9653,-3.9653,-4.0083,-4.058,-4.111,-4.1143,-4.1541,-4.2435,-4.2767,-4.3131,-4.3595,-4.3628,-4.3959,-4.4655,-4.4953,-4.545,-4.6179,-4.6908,-4.7305,-4.7305,-4.7769,-4.8133,-4.8398,-4.8398,-4.8531,-4.8796,-4.8796,-4.9061,-4.9491,-4.9491,-4.979,-5.0253,-5.0485,-5.0585,-5.0618,-5.0883,-5.0982,-5.0949,-5.0684,-5.0585,-5.0651,-5.0916,-5.0982,-5.0982,-5.0982,-5.1558,-5.2098,-5.1785,-5.2707,-5.3749,-5.3008,-5.3145,-5.3349,-5.3111,-5.287,-5.2624,-5.2624,-5.2624,-5.2624,-5.2445,-5.2373,-5.2373,-5.2373,-5.2373,-5.2373,-5.2373,-5.2373,-5.2373,-5.2373,-5.2373,-5.2373,-5.2373,-5.2373,-5.2473,-5.2738,-5.2738,-5.3036,-5.3765,-5.3798,-5.403,-5.4494,-5.4527,-5.4626,-5.4924,-5.4924,-5.5024,-5.5289,-5.5289,-5.5289,-5.5289,-5.5289,-5.5554,-3.3027,-3.3856,-3.4419,-3.6572,-3.7135,-3.7269,-3.7633,-3.8003,-3.8332,-3.864,-3.7803,-3.7201,-3.7798,-3.7433,-3.7235,-3.793,-3.9322,-4.0083,-3.9441,-3.9918,-4.0382,-4.0382,-4.0448,-4.1011,-4.2369,-4.2535,-4.2568,-4.2568,-4.323,-4.3628,-4.3628,-4.3661,-4.3992,-4.4721,-4.545,-4.6212,-4.6941,-4.7636,-4.8001,-4.8001,-4.8001,-4.8398,-4.9094,-4.9094,-4.9525,-5.022,-5.022,-5.022,-5.0286,-5.0286,-5.0286,-5.0386,-5.1082,-5.1347,-5.1413,-5.2108,-5.2373,-5.2274,-5.1578,-5.1347,-5.1446,-5.2142,-5.2373,-5.2373,-5.2373,-5.2373,-5.2373,-5.2373,-5.2445,-5.2445,-5.2373,-5.2445,-5.2553,-5.2974,-5.3043,-5.3043,-5.3043,-5.3043,-5.2939,-5.2516,-5.2373,-5.2373,-5.2373,-5.2373,-5.2373,-5.2373,-5.2407,-5.2407,-5.2373,-5.2407,-5.244,-5.244,-5.2473,-5.2771,-5.34,-5.3467,-5.3798,-5.4527,-5.4593,-5.4593,-5.4626,-5.4626,-5.4957,-5.5653,-5.5686,-5.6017,-5.668,-5.668,-5.668,-5.668,-5.668,-5.6713,-3.3292,-3.4584,-3.5711,-3.6837,-3.7533,-3.793,-3.8085,-3.8598,-3.8745,-3.7752,-3.639,-3.5181,-3.4253,-3.4849,-3.5512,-3.5711,-3.7897,-3.9487,-3.9288,-3.9918,-4.0382,-4.0382,-4.1342,-4.2137,-4.2502,-4.3032,-4.333,-4.333,-4.3529,-4.3628,-4.3628,-4.4125,-4.4754,-4.5483,-4.6212,-4.6974,-4.7703,-4.7901,-4.8001,-4.8001,-4.8001,-4.8398,-4.9094,-4.9094,-4.9525,-5.022,-5.022,-5.0518,-5.1015,-5.1015,-5.1313,-5.1843,-5.2042,-5.2108,-5.2108,-5.2307,-5.2373,-5.234,-5.2175,-5.2108,-5.2142,-5.2307,-5.2373,-5.2373,-5.2373,-5.2373,-5.2373,-5.2373,-5.2624,-5.287,-5.2516,-5.2694,-5.287,-5.2624,-5.2553,-5.2553,-5.2553,-5.2553,-5.2553,-5.2445,-5.2373,-5.2373,-5.2373,-5.2373,-5.2373,-5.2373,-5.2837,-5.297,-5.244,-5.2837,-5.3169,-5.3169,-5.3632,-5.403,-5.4229,-5.4229,-5.456,-5.5289,-5.5355,-5.5587,-5.6117,-5.615,-5.6216,-5.6415,-5.6415,-5.6514,-5.668,-5.668,-5.668,-5.668,-5.668,-5.6978,-3.475,-3.6108,-3.7135,-3.7864,-3.8361,-3.8479,-3.7686,-3.7685,-3.7285,-3.5352,-3.3894,-3.2729,-3.1901,-3.3193,-3.4518,-3.4849,-3.7632,-3.9752,-3.9752,-4.0382,-4.0945,-4.1276,-4.2038,-4.2634,-4.2965,-4.3396,-4.3628,-4.3628,-4.3628,-4.3761,-4.4092,-4.4489,-4.5185,-4.6245,-4.6676,-4.7239,-4.8001,-4.8001,-4.8001,-4.8001,-4.8332,-4.8862,-4.9591,-4.9922,-5.0452,-5.1181,-5.1181,-5.138,-5.1744,-5.1744,-5.2009,-5.2373,-5.2373,-5.2373,-5.2373,-5.2373,-5.2373,-5.2373,-5.2373,-5.2373,-5.2373,-5.2373,-5.2373,-5.2373,-5.2373,-5.2373,-5.2373,-5.2373,-5.2553,-5.2764,-5.2445,-5.2624,-5.2764,-5.2445,-5.2373,-5.2373,-5.2373,-5.2373,-5.2373,-5.2373,-5.2373,-5.2373,-5.2373,-5.2373,-5.2473,-5.2771,-5.3169,-5.34,-5.3334,-5.3665,-5.3897,-5.3897,-5.4262,-5.4659,-5.499,-5.499,-5.5322,-5.6051,-5.6084,-5.6282,-5.668,-5.668,-5.668,-5.668,-5.668,-5.668,-5.668,-5.7011,-5.7177,-5.7177,-5.7508,-5.7873,-3.6539,-3.7566,-3.8261,-3.9056,-3.9288,-3.8797,-3.6961,-3.62,-3.5077,-3.237,-3.089,-3.0046,-2.998,-3.1802,-3.3624,-3.4452,-3.7765,-4.0282,-4.0382,-4.1077,-4.1806,-4.2435,-4.2601,-4.2932,-4.3562,-4.3628,-4.3661,-4.3761,-4.3761,-4.4026,-4.4655,-4.4887,-4.5616,-4.7007,-4.704,-4.7338,-4.8001,-4.8001,-4.8001,-4.8001,-4.8763,-4.9491,-5.0253,-5.0949,-5.1678,-5.2373,-5.2373,-5.2373,-5.2373,-5.2373,-5.2373,-5.2373,-5.2373,-5.2373,-5.2373,-5.2373,-5.2373,-5.2373,-5.2373,-5.2373,-5.2373,-5.2373,-5.2373,-5.2373,-5.2373,-5.2373,-5.2373,-5.2373,-5.2373,-5.2373,-5.2373,-5.2373,-5.2373,-5.2373,-5.2373,-5.2373,-5.2373,-5.2373,-5.2373,-5.2373,-5.2373,-5.2373,-5.2373,-5.244,-5.2705,-5.3334,-5.3599,-5.393,-5.4593,-5.4659,-5.4659,-5.4659,-5.4759,-5.5057,-5.5719,-5.5786,-5.6017,-5.6647,-5.668,-5.668,-5.668,-5.668,-5.668,-5.668,-5.6779,-5.6846,-5.6846,-5.7574,-5.7939,-5.7939,-5.8601,-5.8933,-3.6671,-3.7201,-3.7599,-3.8924,-3.9288,-3.8745,-3.6605,-3.556,-3.4087,-3.0593,-2.8793,-2.7661,-2.7065,-2.9218,-3.1504,-3.2862,-3.6671,-3.9686,-4.0282,-4.1508,-4.2369,-4.2502,-4.3065,-4.3495,-4.3628,-4.3628,-4.386,-4.4456,-4.4489,-4.4556,-4.4688,-4.5847,-4.6908,-4.7769,-4.7802,-4.7868,-4.8001,-4.8001,-4.8001,-4.8001,-4.8763,-4.9491,-5.0253,-5.0949,-5.1678,-5.2373,-5.2373,-5.2373,-5.2373,-5.2373,-5.2373,-5.2373,-5.2373,-5.2373,-5.2373,-5.2373,-5.2373,-5.2373,-5.2373,-5.2373,-5.2373,-5.2373,-5.2373,-5.2373,-5.2373,-5.2373,-5.2373,-5.2373,-5.2373,-5.2373,-5.2373,-5.2373,-5.2373,-5.2373,-5.2373,-5.2373,-5.2373,-5.2373,-5.2373,-5.2373,-5.2373,-5.2373,-5.2373,-5.287,-5.3268,-5.34,-5.446,-5.5289,-5.5421,-5.5421,-5.5421,-5.5421,-5.5951,-5.6349,-5.6481,-5.6514,-5.6547,-5.668,-5.668,-5.668,-5.668,-5.668,-5.668,-5.668,-5.7276,-5.7608,-5.7608,-5.8336,-5.8701,-5.8701,-5.8833,-5.9231,-3.6804,-3.74,-3.793,-3.9023,-3.9288,-3.8394,-3.5048,-3.3723,-3.1934,-2.7495,-2.6038,-2.5475,-2.511,-2.7727,-3.041,-3.1901,-3.5843,-3.9123,-4.0216,-4.1607,-4.2667,-4.3065,-4.3396,-4.3628,-4.3628,-4.3959,-4.4324,-4.4655,-4.5384,-4.5847,-4.5847,-4.6874,-4.7636,-4.8001,-4.8001,-4.8001,-4.8001,-4.8001,-4.8001,-4.8001,-4.916,-4.9856,-5.0253,-5.1347,-5.2042,-5.2373,-5.2373,-5.2373,-5.2373,-5.2373,-5.2373,-5.2373,-5.2373,-5.2373,-5.2373,-5.2373,-5.2373,-5.2373,-5.2373,-5.2373,-5.2373,-5.2373,-5.2373,-5.2373,-5.2373,-5.2373,-5.2373,-5.2373,-5.2373,-5.2373,-5.2373,-5.2373,-5.2373,-5.2373,-5.2373,-5.2373,-5.2373,-5.2373,-5.2373,-5.2373,-5.2672,-5.2904,-5.2904,-5.35,-5.4129,-5.4494,-5.5156,-5.5752,-5.6117,-5.6183,-5.6183,-5.6183,-5.6481,-5.668,-5.668,-5.668,-5.668,-5.668,-5.7044,-5.7243,-5.7243,-5.7641,-5.7839,-5.7839,-5.8171,-5.8369,-5.8369,-5.9098,-5.9463,-5.9496,-5.986,-6.0225,-3.687,-3.7533,-3.8195,-3.9056,-3.9156,-3.793,-3.3657,-3.1868,-2.9781,-2.4978,-2.3752,-2.3619,-2.3951,-2.6601,-2.935,-3.1262,-3.5081,-3.8361,-4.0117,-4.1607,-4.28,-4.3529,-4.3628,-4.3628,-4.3628,-4.4257,-4.4754,-4.492,-4.6311,-4.7139,-4.7139,-4.7703,-4.8001,-4.8001,-4.8001,-4.8001,-4.8001,-4.8001,-4.8067,-4.8266,-4.9591,-5.0286,-5.0485,-5.1777,-5.2373,-5.2373,-5.2373,-5.2373,-5.2373,-5.2373,-5.2373,-5.2373,-5.2373,-5.2373,-5.2373,-5.2373,-5.2373,-5.2373,-5.2373,-5.2373,-5.2373,-5.2373,-5.2373,-5.2373,-5.2373,-5.2373,-5.2373,-5.2373,-5.2373,-5.2373,-5.2373,-5.2373,-5.2373,-5.2373,-5.2373,-5.2373,-5.2373,-5.2373,-5.2407,-5.2572,-5.3036,-5.3467,-5.3632,-5.4262,-5.4957,-5.5521,-5.5752,-5.6051,-5.6614,-5.668,-5.668,-5.668,-5.668,-5.668,-5.668,-5.668,-5.6746,-5.6912,-5.7475,-5.7873,-5.8038,-5.8601,-5.8899,-5.8899,-5.9065,-5.9131,-5.9131,-5.9893,-6.0258,-6.0258,-6.0854,-6.1119,-3.6738,-3.7168,-3.7533,-3.8924,-3.8791,-3.7334,-3.3557,-3.1106,-2.8555,-2.4779,-2.2924,-2.2394,-2.3752,-2.5375,-2.7628,-3.1031,-3.4187,-3.7168,-3.9984,-4.1607,-4.28,-4.3529,-4.3628,-4.3628,-4.3628,-4.4257,-4.4953,-4.5649,-4.7073,-4.7901,-4.7901,-4.7968,-4.8001,-4.8001,-4.8001,-4.8001,-4.8001,-4.8001,-4.8332,-4.9028,-4.9823,-5.0551,-5.1214,-5.2009,-5.2373,-5.2373,-5.2373,-5.2373,-5.2373,-5.2373,-5.2373,-5.2373,-5.2373,-5.2373,-5.2373,-5.2373,-5.2373,-5.2373,-5.2373,-5.2373,-5.2373,-5.2373,-5.2373,-5.2373,-5.2373,-5.2373,-5.2373,-5.2373,-5.2373,-5.2373,-5.2373,-5.2373,-5.2373,-5.2373,-5.2373,-5.2373,-5.2373,-5.2373,-5.2572,-5.3202,-5.3367,-5.3632,-5.4295,-5.5024,-5.5554,-5.562,-5.6183,-5.6614,-5.668,-5.668,-5.668,-5.668,-5.668,-5.668,-5.668,-5.668,-5.6978,-5.7641,-5.774,-5.8104,-5.8767,-5.8866,-5.8899,-5.8899,-5.9562,-5.9893,-5.9893,-6.0655,-6.102,-6.102,-6.1086,-6.1119,-3.6572,-3.7102,-3.7367,-3.8394,-3.8096,-3.6572,-3.2895,-3.0344,-2.7893,-2.4646,-2.2824,-2.2228,-2.3719,-2.4845,-2.6733,-3.0377,-3.3061,-3.5545,-3.8063,-4.005,-4.1508,-4.2204,-4.27,-4.3131,-4.3595,-4.4257,-4.5185,-4.6378,-4.7404,-4.8001,-4.8001,-4.8001,-4.8001,-4.8001,-4.8001,-4.8001,-4.8001,-4.8001,-4.8365,-4.9127,-4.9856,-5.0585,-5.1313,-5.2042,-5.2373,-5.2373,-5.2373,-5.2373,-5.2373,-5.2373,-5.2373,-5.2373,-5.2373,-5.2373,-5.2373,-5.2373,-5.2373,-5.2373,-5.2373,-5.2373,-5.2373,-5.2373,-5.2373,-5.2373,-5.2373,-5.2373,-5.2373,-5.2373,-5.2373,-5.2373,-5.2373,-5.2373,-5.2373,-5.2373,-5.2373,-5.2506,-5.2904,-5.3003,-5.3202,-5.393,-5.4427,-5.4825,-5.5123,-5.5786,-5.6249,-5.6249,-5.6514,-5.668,-5.668,-5.668,-5.668,-5.668,-5.668,-5.668,-5.668,-5.668,-5.7011,-5.774,-5.8204,-5.88,-5.9529,-5.9993,-6.0225,-6.0225,-6.0523,-6.0655,-6.0655,-6.0953,-6.1119,-6.1119,-6.1119,-6.1119,-3.5909,-3.6605,-3.697,-3.7698,-3.7168,-3.5545,-3.21,-2.9615,-2.7267,-2.4282,-2.2659,-2.2228,-2.3719,-2.4613,-2.6236,-2.9648,-3.2034,-3.4319,-3.6771,-3.8791,-4.0382,-4.1309,-4.1872,-4.2469,-4.323,-4.4357,-4.5616,-4.7106,-4.7703,-4.8001,-4.8001,-4.8001,-4.8001,-4.8001,-4.8001,-4.8001,-4.8001,-4.8001,-4.8498,-4.9425,-4.9955,-5.0684,-5.1612,-5.2142,-5.2373,-5.2373,-5.2373,-5.2373,-5.2373,-5.2373,-5.2373,-5.2373,-5.2373,-5.2373,-5.2373,-5.2373,-5.2373,-5.2373,-5.2373,-5.2373,-5.2373,-5.2373,-5.2373,-5.2373,-5.2373,-5.2373,-5.2373,-5.2373,-5.2373,-5.2373,-5.2373,-5.2539,-5.2705,-5.2705,-5.2837,-5.3135,-5.3632,-5.3732,-5.3964,-5.4692,-5.5256,-5.5686,-5.5918,-5.6349,-5.668,-5.668,-5.668,-5.668,-5.668,-5.668,-5.668,-5.668,-5.668,-5.668,-5.668,-5.6879,-5.7342,-5.8071,-5.8833,-5.9562,-6.0291,-6.0821,-6.1119,-6.1119,-6.1119,-6.1035,-6.0919,-6.0919,-6.0919,-6.0919,-6.0919,-6.0919,-3.4518,-3.5446,-3.6208,-3.6936,-3.6009,-3.4154,-3.1205,-2.8853,-2.6471,-2.352,-2.2327,-2.2228,-2.3719,-2.4613,-2.6071,-2.8953,-3.1272,-3.3723,-3.6704,-3.8361,-3.9818,-4.1243,-4.1409,-4.1707,-4.2469,-4.4489,-4.6378,-4.7868,-4.8001,-4.8001,-4.8001,-4.8001,-4.8001,-4.8001,-4.8001,-4.8001,-4.8001,-4.8001,-4.8763,-5.0187,-5.022,-5.0982,-5.2373,-5.2373,-5.2373,-5.2373,-5.2373,-5.2373,-5.2373,-5.2373,-5.2373,-5.2373,-5.2373,-5.2373,-5.2373,-5.2373,-5.2373,-5.2373,-5.2373,-5.2373,-5.2373,-5.2373,-5.2373,-5.2373,-5.2373,-5.2373,-5.2373,-5.2373,-5.2373,-5.2373,-5.2373,-5.287,-5.34,-5.34,-5.3964,-5.4494,-5.4494,-5.4494,-5.4725,-5.5487,-5.562,-5.5852,-5.6547,-5.668,-5.668,-5.668,-5.668,-5.668,-5.668,-5.668,-5.668,-5.668,-5.668,-5.668,-5.668,-5.7376,-5.8104,-5.8833,-5.9595,-6.0324,-6.1053,-6.1119,-6.1119,-6.1119,-6.1119,-6.0835,-6.0378,-6.0378,-6.0378,-6.0378,-6.0378,-6.0378,-3.2266,-3.3193,-3.3657,-3.3425,-3.263,-3.1404,-2.9483,-2.7363,-2.5375,-2.3951,-2.2659,-2.2228,-2.3719,-2.4183,-2.564,-2.9549,-3.1172,-3.2994,-3.5943,-3.803,0.0,-4.058,-4.2005,-4.3032,-4.3264,-4.4787,-4.598,-4.6444,-4.7438,-4.8001,-4.8001,-4.8001,-4.8001,-4.8001,-4.8001,-4.8001,-4.8001,-4.8498,-4.926,-5.022,-5.0717,-5.1446,-5.2373,-5.2373,-5.2373,-5.2373,-5.2373,-5.2373,-5.2373,-5.2373,-5.2373,-5.2373,-5.2373,-5.2373,-5.2373,-5.2373,-5.2373,-5.2373,-5.2373,-5.2373,-5.2373,-5.2373,-5.2373,-5.2373,-5.2373,-5.2373,-5.2373,-5.2373,-5.2373,-5.2506,-5.297,-5.3235,-5.3533,-5.4063,-5.4361,-5.4659,-5.5156,-5.5289,-5.5487,-5.6216,-5.6349,-5.6415,-5.6647,-5.668,-5.668,-5.668,-5.668,-5.668,-5.668,-5.668,-5.668,-5.668,-5.668,-5.668,-5.668,-5.7376,-5.8104,-5.8833,-5.9595,-6.0324,-6.1086,-6.1119,-6.1119,-6.1119,-6.075,-6.0581,-6.0378,-6.012,-5.9946,-5.9946,-5.9946,-5.9476,-2.9847,-3.1106,-3.1769,-3.1305,-3.0642,-2.9648,-2.7959,-2.6303,-2.4746,-2.3421,-2.2659,-2.2559,-2.3785,-2.4448,-2.5806,-2.882,-3.0609,-3.2564,-3.5214,-3.7466,0.0,-4.0613,-4.2204,-4.333,-4.3595,-4.492,-4.5914,-4.6179,-4.7305,-4.8001,-4.8001,-4.8001,-4.8001,-4.8001,-4.8001,-4.8001,-4.8001,-4.8465,-4.9193,-5.022,-5.0651,-5.1413,-5.2373,-5.2373,-5.2373,-5.2373,-5.2373,-5.2373,0.0,-5.2373,-5.2373,-5.2373,-5.2373,-5.2373,-5.2373,-5.2373,-5.2373,-5.2373,-5.2373,-5.2373,-5.2373,-5.2373,-5.2373,-5.2373,-5.2373,-5.2373,-5.2373,-5.2373,-5.2572,-5.287,-5.3301,-5.3831,-5.4361,-5.4825,-5.5156,-5.5454,-5.5918,-5.6017,-5.615,-5.6614,-5.6603,-5.6447,-5.6447,-5.6447,-5.6447,-5.6447,-5.6447,-5.6525,-5.668,-5.6525,-5.6447,-5.6447,-5.6447,-5.6501,-5.6606,-5.7615,-5.8323,-5.8624,-5.9581,-6.0373,-6.0835,-6.0666,-6.0581,-6.0581,-6.0292,-6.0033,-5.9859,-5.9596,-5.9298,-5.8998,-5.8998,-5.8363,0.0,-2.9052,-3.0112,-3.0079,-2.9549,-2.8489,-2.6501,-2.5475,0.0,-2.2294,-2.2361,-2.3089,-2.3984,-2.5209,-2.6402,-2.7466,-2.9914,-3.2497,-3.475,-3.7069,0.0,-4.1409,-4.2204,-4.2899,-4.3628,-4.4986,-4.6079,-4.6775,-4.7537,-4.8001,-4.8001,-4.8001,-4.8001,-4.8001,-4.8001,-4.8001,-4.8001,-4.81,-4.8862,-5.022,-5.032,-5.1082,-5.2373,-5.2373,-5.2373,-5.2373,-5.2373,-5.2373,-5.2373,-5.2373,-5.2373,-5.2373,-5.2373,-5.2373,-5.2373,-5.2373,-5.2373,-5.2373,-5.2373,-5.2373,-5.2373,-5.2373,-5.2373,-5.2373,-5.244,-5.2407,-5.2407,-5.244,-5.2904,-5.3434,-5.3533,-5.4593,-5.5653,-5.5686,-5.6216,-5.668,-5.668,-5.668,-5.668,-5.668,-5.6402,-5.6086,-5.6086,-5.6086,-5.6086,-5.6086,-5.6086,-5.6244,-5.6603,-5.6323,-5.6086,-5.6086,-5.6086,-5.6221,-5.6446,-5.7904,-5.8657,-5.8281,-5.9591,-6.0378,-6.0378,-5.9946,-5.9684,-5.9684,-5.9684,-5.9363,-5.8882,-5.8882,-5.8395,-5.7621,-5.7621,-5.7213,-2.3984,0.0,-2.6236,-2.5673,-2.5408,-2.5143,0.0,-2.3951,-2.3255,-2.2758,-2.2327,-2.2791,-2.5243,-2.5044,-2.5872,-2.9947,-3.1636,-3.3392,-3.6208,-3.9421,0.0,-4.3727,-4.3595,-4.3661,-4.4357,-4.5251,-4.5881,-4.6046,-4.7272,-4.8001,-4.8001,-4.8001,-4.8001,-4.8001,-4.8001,-4.8001,-4.8001,-4.9127,-4.9856,-5.022,-5.1347,-5.2042,-5.2373,-5.2373,-5.2373,-5.2373,-5.2373,-5.2373,-5.2373,-5.2373,-5.2373,-5.2373,-5.2373,-5.2373,-5.2373,-5.2373,-5.2373,-5.2373,-5.2373,-5.2373,-5.2373,-5.2013,-5.2158,-5.2401,-5.2638,-5.2587,-5.2506,-5.3036,-5.3301,-5.3665,-5.4825,-5.5355,-5.5752,-5.6316,-5.6348,-5.6323,-5.6603,-5.6447,-5.6244,-5.6244,-5.6165,-5.6006,-5.5653,-5.5846,-5.6006,-5.5572,-5.5846,-5.6165,-5.6244,-5.6165,-5.6086,-5.6086,-5.6086,-5.6059,-5.5995,-5.7126,-5.8027,-5.8495,-5.9372,-5.9827,-5.9827,-5.9772,-5.9684,-5.9684,-5.9331,-5.861,-5.7559,-5.7559,-5.718,-5.6378,-5.6378,-5.5888,-2.2394,-2.3984,-2.5508,-2.511,-2.5011,-2.4944,-2.458,-2.3686,-2.2791,-2.246,-2.2626,-2.3388,-2.5342,-2.6137,-2.7495,-3.0609,-3.2564,-3.4949,0.0,0.0,-4.3794,-4.4589,-4.4357,-4.4125,-4.4191,-4.5152,-4.5781,-4.5781,-4.7173,-4.8001,-4.8001,-4.8001,-4.8001,-4.8001,-4.8001,-4.8001,-4.8001,-4.9127,-4.9889,-5.022,-5.1347,-5.2042,-5.2373,-5.2373,-5.2373,-5.2373,-5.2373,-5.2373,-5.2373,-5.2373,-5.2373,-5.2373,-5.2373,-5.2373,-5.2373,-5.2373,-5.2373,-5.2373,-5.2373,-5.2302,-5.2086,-5.1868,-5.1762,-5.1893,-5.2389,-5.2398,-5.2491,-5.3329,-5.3865,-5.4293,-5.5117,-5.539,-5.5673,-5.6303,-5.6053,-5.5814,-5.6053,-5.5894,-5.5766,-5.5766,-5.5653,-5.5409,-5.5164,-5.5328,-5.5409,-5.5164,-5.5328,-5.5572,-5.5766,-5.5604,-5.5491,-5.5491,-5.5815,-5.5937,-5.5994,-5.6837,-5.7676,-5.8236,-5.8944,-5.9419,-5.9419,-5.9152,-5.885,-5.8455,-5.8211,-5.7559,-5.6506,-5.6506,-5.6115,-5.529,-5.529,-5.4917,-2.181,-2.3951,-2.6129,-2.5568,-2.5667,-2.57,-2.4876,-2.3753,-2.2758,-2.2228,-2.3123,-2.4381,-2.5706,-2.7827,-2.988,-3.1305,-3.3889,-3.7069,-4.0878,-4.3197,-4.4556,-4.4688,-4.4589,-4.4324,-4.3827,-4.4986,-4.5781,-4.5781,-4.7173,-4.8001,-4.8001,-4.8001,-4.8001,-4.8001,-4.8001,-4.8001,-4.7935,-4.8795,-4.9591,-5.022,-5.1048,-5.1777,-5.2373,-5.2373,-5.2373,-5.2373,-5.2373,-5.2373,-5.2302,-5.2373,-5.2373,-5.2302,-5.2373,-5.2373,-5.2302,-5.2373,-5.2373,-5.2302,-5.2302,-5.2086,-5.1721,-5.1745,-5.1522,-5.1459,-5.2223,-5.2482,-5.2689,-5.3714,-5.4424,-5.4927,-5.5058,-5.5197,-5.5491,-5.5927,-5.5653,-5.5328,-5.5409,-5.5328,-5.5328,-5.5328,-5.4998,-5.4781,-5.4697,-5.4781,-5.4781,-5.4697,-5.4781,-5.4915,-5.5246,-5.4998,-5.4813,-5.4909,-5.5453,-5.5984,-5.6373,-5.6884,-5.7354,-5.7777,-5.8473,-5.8914,-5.8914,-5.8367,-5.7778,-5.7084,-5.6988,-5.6506,-5.572,-5.572,-5.529,-5.4509,-5.4509,-5.4097,-2.1727,-2.3971,-2.5675,-2.28,-2.3351,-2.4288,-2.3094,-2.2866,-2.3056,-2.3553,-2.3851,-2.5176,-2.8986,-2.9549,-3.0874,-3.5379,-3.803,-3.9984,-4.1243,-4.28,-4.4026,-4.4622,-4.4158,-4.3992,-4.4489,-4.5284,-4.5781,-4.5781,-4.7173,-4.8001,-4.8001,-4.8001,-4.8001,-4.8001,-4.8001,-4.7869,-4.7471,-4.9191,-5.0088,-5.022,-5.1578,-5.2274,-5.2373,-5.2373,-5.2373,-5.2373,-5.2373,-5.223,-5.1941,-5.223,-5.223,-5.1941,-5.2302,-5.2158,-5.1941,-5.2302,-5.2158,-5.1868,-5.1868,-5.1614,-5.1232,-5.154,-5.1811,-5.2223,-5.315,-5.3697,-5.4067,-5.4566,-5.4568,-5.455,-5.5166,-5.5345,-5.5409,-5.5491,-5.5164,-5.4998,-5.5328,-5.5164,-5.4915,-5.4915,-5.4864,-5.4665,-5.4274,-5.4528,-5.4697,-5.4274,-5.4528,-5.4864,-5.4832,-5.4864,-5.5005,-5.5581,-5.5741,-5.6176,-5.6947,-5.7168,-5.7178,-5.7183,-5.7995,-5.8367,-5.8367,-5.7684,-5.718,-5.7084,-5.6409,-5.572,-5.4887,-5.4887,-5.4509,-5.371,-5.371,-5.3605,-2.1209,-2.2933,-2.4304,-2.266,-2.4508,-2.6598,-2.5891,-2.5321,-2.5029,-2.5381,-2.5999,-2.7218,-2.9649,-3.1373,-3.3565,-3.715,-3.9224,-4.0515,-4.0901,-4.2509,-4.3614,-4.3557,-4.3616,-4.3608,-4.3604,-4.462,-4.5403,-4.5781,-4.7173,-4.8001,-4.8001,-4.8001,-4.8001,-4.8001,-4.777,-4.7571,-4.7404,-4.9017,-4.9912,-4.9912,-5.1607,-5.2302,-5.2086,-5.2086,-5.2086,-5.2086,-5.1835,-5.1762,-5.1794,-5.2013,-5.1941,-5.1868,-5.2013,-5.1941,-5.1794,-5.1762,-5.1582,-5.1434,-5.1434,-5.1135,-5.0852,-5.1435,-5.1581,-5.1789,-5.2981,-5.3477,-5.3802,-5.4253,-5.4525,-5.4663,-5.5017,-5.4915,-5.4749,-5.4998,-5.4749,-5.4497,-5.4665,-5.4581,-5.4444,-5.4444,-5.4444,-5.4359,-5.4103,-5.4274,-5.4359,-5.4103,-5.4274,-5.4444,-5.4444,-5.4762,-5.5112,-5.5343,-5.6074,-5.6594,-5.6557,-5.6871,-5.7152,-5.7084,-5.6988,-5.6988,-5.6988,-5.6603,-5.6213,-5.5789,-5.5391,-5.4917,-5.3993,-5.3993,-5.3919,-5.35,-5.35,-5.35,-2.0749,-2.1929,-2.3142,-2.308,-2.561,-2.8108,-2.834,-2.7518,-2.6873,-2.7484,-2.8379,-2.9416,-3.0602,-3.3512,-3.6241,-3.7842,-3.9371,-4.0347,-4.0293,-4.1949,-4.3008,-4.2417,-4.2845,-4.2977,-4.2365,-4.3621,-4.4788,-4.553,-4.6881,-4.777,-4.8001,-4.7935,-4.7869,-4.7869,-4.7504,-4.7202,-4.7134,-4.8637,-4.9458,-4.9458,-5.1361,-5.2086,-5.1614,-5.1614,-5.1614,-5.1614,-5.1285,-5.1285,-5.154,-5.1721,-5.1688,-5.154,-5.1688,-5.1688,-5.1614,-5.1135,-5.0951,-5.0951,-5.0951,-5.0679,-5.053,-5.1391,-5.1518,-5.148,-5.2902,-5.3344,-5.3439,-5.3945,-5.4359,-5.4613,-5.4613,-5.4359,-5.4189,-5.4528,-5.4359,-5.4103,-5.4103,-5.4103,-5.4103,-5.4103,-5.4103,-5.4103,-5.4103,-5.4103,-5.4103,-5.4103,-5.3931,-5.3813,-5.3813,-5.4267,-5.4648,-5.4804,-5.59,-5.6497,-5.6059,-5.6296,-5.6506,-5.6506,-5.6115,-5.5918,-5.5918,-5.572,-5.532,-5.4684,-5.4479,-5.4097,-5.35,-5.35,-5.35,-5.35,-5.35,-5.35,-2.0691,-2.184,-2.3061,-2.3314,-2.4442,-2.5922,-2.7406,-2.7272,-2.748,-2.985,-3.041,-3.1165,-3.3379,-3.6242,-3.807,-3.7567,-3.9184,-4.023,-3.9598,-4.0704,-4.1654,-4.1588,-4.1588,-4.1654,-4.1591,-4.269,-4.3786,-4.4821,-4.595,-4.7033,-4.7935,-4.7638,-4.7404,-4.7404,-4.7066,-4.6722,-4.6372,-4.8142,-4.903,-4.903,-5.0928,-5.1614,-5.1135,-5.1135,-5.1135,-5.1135,-5.1102,-5.0908,-5.0679,-5.1466,-5.1317,-5.0679,-5.1466,-5.154,-5.1135,-5.0679,-5.0525,-5.0525,-5.0525,-5.0292,-5.0153,-5.148,-5.1922,-5.2207,-5.3597,-5.404,-5.404,-5.4071,-5.4103,-5.4189,-5.4189,-5.4103,-5.4103,-5.4189,-5.4103,-5.4103,-5.4103,-5.4103,-5.4103,-5.4103,-5.4103,-5.4103,-5.4103,-5.4103,-5.4103,-5.4103,-5.3552,-5.3113,-5.3113,-5.307,-5.3343,-5.3922,-5.4653,-5.5256,-5.5895,-5.526,-5.4887,-5.4887,-5.5521,-5.5918,-5.5918,-5.519,-5.4786,-5.4684,-5.4023,-5.35,-5.35,-5.35,-5.35,-5.35,-5.35,-5.35,-1.9982,-2.1555,-2.3212,-2.3319,-2.4686,-2.6411,-2.8211,-2.9109,-3.0129,-3.1887,-3.2421,-3.3157,-3.4961,-3.6222,-3.6971,-3.6723,-3.7994,-3.8758,-3.7946,-3.948,-4.0447,-3.9889,-4.0239,-4.0516,-4.0516,-4.1718,-4.2918,-4.4157,-4.5056,-4.6064,-4.7235,-4.6791,-4.6722,-4.7066,-4.6722,-4.6442,-4.6301,-4.7886,-4.8519,-4.8328,-5.038,-5.1135,-5.0755,-5.0755,-5.0755,-5.0755,-5.0448,-5.0448,-5.0525,-5.0832,-5.0832,-5.0525,-5.0832,-5.0755,-5.037,-5.0136,-5.0136,-5.0136,-5.0136,-5.001,-5.0153,-5.1543,-5.2017,-5.227,-5.366,-5.4103,-5.4103,-5.4103,-5.4103,-5.4103,-5.4103,-5.4103,-5.4103,-5.4103,-5.4103,-5.4103,-5.4103,-5.4103,-5.4103,-5.4103,-5.4103,-5.3931,-5.3465,-5.3377,-5.329,-5.2815,-5.2547,-5.2366,-5.2366,-5.3038,-5.3611,-5.3854,-5.4466,-5.482,-5.519,-5.4406,-5.389,-5.389,-5.42,-5.4406,-5.4406,-5.4097,-5.389,-5.389,-5.3605,-5.35,-5.35,-5.35,-5.35,-5.35,-5.35,-5.35,-2.0055,-2.1344,-2.2878,-2.3922,-2.5136,-2.6642,-2.9046,-3.0334,-3.1486,-3.3288,-3.3958,-3.4514,-3.5431,-3.5734,-3.5879,-3.5816,-3.6869,-3.7541,-3.698,-3.8542,-3.9493,-3.887,-3.9277,-3.9535,-3.9535,-4.0664,-4.1906,-4.32,-4.4018,-4.5017,-4.6269,-4.5985,-4.5985,-4.6442,-4.623,-4.6159,-4.6159,-4.7342,-4.7921,-4.7909,-4.9623,-5.0338,-5.0292,-5.0292,-5.0292,-5.0292,-4.9979,-5.0089,-5.0292,-5.0448,-5.0525,-5.0525,-5.037,-5.0136,-4.9931,-4.9931,-4.9931,-4.9931,-4.9931,-5.0058,-5.0437,-5.1638,-5.2175,-5.2586,-5.3755,-5.4103,-5.4103,-5.4103,-5.4103,-5.4103,-5.4103,-5.4103,-5.4103,-5.4103,-5.4103,-5.4103,-5.4103,-5.4103,-5.4017,-5.3813,-5.3726,-5.3552,-5.2815,-5.2637,-5.2457,-5.1972,-5.1697,-5.1602,-5.1813,-5.2617,-5.3391,-5.3683,-5.4048,-5.4304,-5.4304,-5.3815,-5.35,-5.35,-5.35,-5.35,-5.35,-5.35,-5.35,-5.35,-5.35,-5.35,-5.35,-5.35,-5.35,-5.35,-5.35,-5.3617,-2.1234,-2.1252,-2.203,-2.5238,-2.5639,-2.6226,-2.99,-3.0514,-3.1161,-3.409,-3.4964,-3.5096,-3.4765,-3.4964,-3.5133,-3.4935,-3.6055,-3.691,-3.691,-3.8001,-3.8797,-3.8797,-3.8797,-3.8797,-3.8797,-3.9748,-4.079,-4.1832,-4.2848,-4.396,-4.4911,-4.5227,-4.5405,-4.5405,-4.5614,-4.5823,-4.5823,-4.6438,-4.72,-4.7909,-4.8604,-4.9228,-4.9931,-4.9931,-4.9931,-4.9931,-4.9931,-4.9931,-4.9931,-5.0292,-5.0525,-5.0448,-5.0089,-4.9931,-4.9931,-4.9931,-4.9931,-4.9931,-4.9931,-5.0405,-5.1101,-5.1796,-5.2523,-5.325,-5.3913,-5.4103,-5.4103,-5.4103,-5.4103,-5.4103,-5.4103,-5.4103,-5.4103,-5.4103,-5.4103,-5.4103,-5.4103,-5.4103,-5.3813,-5.3113,-5.3024,-5.2726,-5.1972,-5.188,-5.188,-5.188,-5.1263,-5.106,-5.1743,-5.1736,-5.2107,-5.3384,-5.35,-5.35,-5.35,-5.35,-5.35,-5.35,-5.35,-5.35,-5.35,-5.35,-5.35,-5.35,-5.35,-5.35,-5.35,-5.35,-5.35,-5.35,-5.35,-5.3878,-1.9397,-2.1754,-2.4509,-2.4634,-2.7237,-3.0075,-3.1156,-3.1684,-3.2478,-3.4155,-3.4735,-3.4935,-3.4765,-3.4765,-3.4831,-3.4765,-3.5849,-3.6599,-3.6529,-3.7711,-3.8501,-3.8427,-3.8352,-3.8352,-3.8352,-3.9518,-4.048,-4.1324,-4.208,-4.3061,-4.4174,-4.3897,-4.3897,-4.4358,-4.4389,-4.4465,-4.4465,-4.555,-4.6462,-4.7232,-4.8333,-4.9228,-4.9931,-4.9931,-4.9931,-4.9931,-4.9931,-4.9931,-4.9931,-5.001,-5.0058,-5.0058,-4.9931,-4.9931,-4.9931,-4.9931,-4.9931,-4.9995,-5.05,-5.0785,-5.1164,-5.2396,-5.2934,-5.325,-5.3913,-5.3726,-5.329,-5.329,-5.329,-5.3201,-5.2726,-5.2905,-5.3465,-5.4017,-5.3726,-5.329,-5.329,-5.2905,-5.2547,-5.2276,-5.2276,-5.2002,-5.1263,-5.1169,-5.0981,-5.0412,-5.0535,-5.1169,-5.2251,-5.237,-5.2601,-5.3413,-5.35,-5.35,-5.35,-5.35,-5.35,-5.35,-5.35,-5.35,-5.35,-5.35,-5.35,-5.35,-5.35,-5.35,-5.35,-5.35,-5.35,-5.35,-5.35,-5.3878,-2.1274,-2.388,-2.6678,-2.7307,-2.9376,-3.1533,-3.2582,-3.3106,-3.3602,-3.4254,-3.4601,-3.4735,-3.4631,-3.4631,-3.4698,-3.4563,-3.5642,-3.6458,-3.6315,-3.7492,-3.8352,-3.8202,-3.8202,-3.8202,-3.8202,-3.9363,-4.0246,-4.0636,-4.158,-4.2392,-4.317,-4.3061,-4.314,-4.3536,-4.3771,-4.3927,-4.3927,-4.4992,-4.5819,-4.6493,-4.7598,-4.849,-4.9066,-4.9661,-4.9931,-4.9931,-4.9931,-4.9931,-4.9931,-4.9931,-4.9931,-4.9931,-4.9931,-4.9931,-4.9852,-4.9582,-4.9661,-4.9915,-4.9809,-5.0309,-5.11,-5.1693,-5.2144,-5.2673,-5.3046,-5.2905,-5.2547,-5.2547,-5.2547,-5.2457,-5.1972,-5.2276,-5.2637,-5.3082,-5.2905,-5.2547,-5.2547,-5.2154,-5.1789,-5.1512,-5.1449,-5.1263,-5.0508,-5.0346,-5.0338,-5.0115,-5.083,-5.1701,-5.2455,-5.2804,-5.3094,-5.3471,-5.35,-5.35,-5.35,-5.35,-5.35,-5.35,-5.35,-5.35,-5.35,-5.35,-5.35,-5.35,-5.35,-5.35,-5.35,-5.35,-5.35,-5.35,-5.35,-5.3994,-2.4907,-2.6591,-2.8594,-3.1526,-3.1584,-3.1526,-3.3877,-3.4399,-3.4399,-3.4399,-3.4563,-3.4631,-3.4428,-3.4563,-3.4631,-3.4428,-3.5473,-3.6315,-3.6315,-3.7389,-3.8202,-3.8202,-3.8202,-3.8202,-3.8202,-3.9363,-4.0089,-4.0089,-4.1337,-4.2092,-4.2092,-4.2607,-4.29,-4.29,-4.3457,-4.3771,-4.3771,-4.4452,-4.5161,-4.5849,-4.6535,-4.7249,-4.7904,-4.9259,-4.9821,-4.9821,-4.9741,-4.9741,-4.9821,-4.9741,-4.9773,-4.9931,-4.9773,-4.9773,-4.9741,-4.9066,-4.9147,-4.9533,-4.8477,-4.9335,-5.0722,-5.0205,-5.0909,-5.188,-5.188,-5.188,-5.1789,-5.1789,-5.1789,-5.1789,-5.1697,-5.1697,-5.1789,-5.1697,-5.1697,-5.1789,-5.1789,-5.1697,-5.1512,-5.0793,-5.0728,-5.0537,-4.9853,-4.9756,-5.0017,-5.0743,-5.1846,-5.2601,-5.263,-5.3152,-5.35,-5.35,-5.35,-5.35,-5.35,-5.35,-5.35,-5.35,-5.35,-5.35,-5.35,-5.35,-5.35,-5.35,-5.35,-5.35,-5.35,-5.35,-5.35,-5.35,-5.35,-5.4197,-2.2062,-2.5546,-2.9377,-3.0074,-3.1932,-3.3732,-3.4283,-3.4399,-3.4399,-3.4399,-3.4428,-3.4496,-3.4399,-3.4428,-3.4496,-3.4399,-3.5473,-3.6315,-3.6315,-3.7389,-3.8202,-3.8202,-3.8202,-3.8202,-3.8202,-3.9363,-4.0089,-4.0089,-4.1337,-4.2092,-4.2092,-4.2257,-4.231,-4.231,-4.2392,-4.2474,-4.2474,-4.3595,-4.4549,-4.5191,-4.6364,-4.7249,-4.7904,-4.8738,-4.9147,-4.9066,-4.8573,-4.8656,-4.9066,-4.8573,-4.8903,-4.9852,-4.8738,-4.8656,-4.9066,-4.8407,-4.824,-4.8477,-4.9174,-4.9752,-5.0235,-5.1212,-5.1638,-5.188,-5.188,-5.1542,-5.1075,-5.1075,-5.1075,-5.0887,-5.0316,-5.0603,-5.0887,-5.0316,-5.0603,-5.1075,-5.1075,-5.0603,-5.0154,-4.996,-4.996,-5.0038,-5.0464,-5.0452,-5.083,-5.1991,-5.2397,-5.2746,-5.3239,-5.3442,-5.35,-5.35,-5.35,-5.35,-5.35,-5.35,-5.35,-5.35,-5.35,-5.35,-5.35,-5.35,-5.35,-5.35,-5.35,-5.35,-5.35,-5.35,-5.35,-5.35,-5.35,-5.4197,-2.2904,-2.6155,-2.9552,-3.109,-3.2948,-3.4399,-3.4399,-3.4399,-3.4399,-3.4399,-3.4399,-3.4399,-3.4399,-3.4399,-3.4516,-3.4806,-3.5677,-3.6431,-3.6751,-3.7593,-3.8202,-3.8202,-3.8202,-3.8202,-3.8202,-3.9363,-4.0089,-4.0089,-4.1337,-4.2092,-4.2092,-4.2092,-4.2092,-4.2092,-4.2092,-4.2092,-4.2092,-4.334,-4.4151,-4.4579,-4.5786,-4.6726,-4.7422,-4.8157,-4.8407,-4.8407,-4.8072,-4.8072,-4.8407,-4.8072,-4.8324,-4.8903,-4.8157,-4.8157,-4.8324,-4.7649,-4.7649,-4.797,-4.8298,-4.8835,-4.9434,-5.0176,-5.0619,-5.0887,-5.0887,-5.0603,-5.025,-5.025,-5.025,-5.0154,-4.9766,-4.996,-5.0154,-4.9766,-4.996,-5.025,-5.025,-4.996,-4.9669,-4.9669,-4.993,-5.0278,-5.0627,-5.1178,-5.1817,-5.2455,-5.2833,-5.3123,-5.3471,-5.35,-5.35,-5.35,-5.35,-5.35,-5.35,-5.35,-5.35,-5.35,-5.35,-5.35,-5.35,-5.35,-5.35,-5.35,-5.35,-5.35,-5.35,-5.35,-5.35,-5.353,-5.3849,-5.4517,-2.3746,-2.662,-2.9435,-3.2658,-3.3935,-3.4399,-3.4399,-3.4399,-3.4399,-3.4399,-3.4399,-3.4399,-3.4399,-3.4399,-3.4632,-3.527,-3.5909,-3.6548,-3.7215,-3.7825,-3.8202,-3.8202,-3.8202,-3.8202,-3.8202,-3.9247,-3.9973,-4.0089,-4.1221,-4.1976,-4.2092,-4.2092,-4.2092,-4.2092,-4.2092,-4.215,-4.2237,-4.3398,-4.4037,-4.4153,-4.5314,-4.6225,-4.6756,-4.7336,-4.7649,-4.7734,-4.7563,-4.7649,-4.7734,-4.7563,-4.7649,-4.7904,-4.7649,-4.7649,-4.7649,-4.6989,-4.7135,-4.7662,-4.7102,-4.7775,-4.8761,-4.8872,-4.9233,-4.9669,-4.9669,-4.9669,-4.9669,-4.9669,-4.9669,-4.9669,-4.9669,-4.9669,-4.9669,-4.9669,-4.9669,-4.9669,-4.9669,-4.9669,-4.9669,-4.9669,-5.0307,-5.0859,-5.0975,-5.1962,-5.2746,-5.2746,-5.3181,-5.35,-5.35,-5.35,-5.35,-5.35,-5.35,-5.35,-5.35,-5.35,-5.35,-5.35,-5.35,-5.35,-5.35,-5.35,-5.35,-5.35,-5.35,-5.35,-5.35,-5.35,-5.35,-5.353,-5.4081,-5.472,-1.9711,-2.4239,-2.9435,-3.2658,-3.3935,-3.4399,-3.4399,-3.4399,-3.4399,-3.4399,-3.4399,-3.4399,-3.4399,-3.4399,-3.4632,-3.527,-3.5909,-3.6548,-3.7215,-3.7825,-3.8202,-3.8202,-3.8202,-3.8202,-3.8202,-3.887,-3.9538,-4.006,-4.0786,-4.1482,-4.2063,-4.2092,-4.2092,-4.2092,-4.2092,-4.2353,-4.2876,-4.3602,-4.424,-4.4763,-4.5518,-4.5985,-4.6075,-4.6135,-4.6491,-4.6989,-4.6403,-4.6491,-4.6989,-4.6403,-4.6814,-4.7819,-4.6638,-4.6491,-4.6901,-4.6314,-4.6395,-4.707,-4.7526,-4.8166,-4.8806,-4.9349,-4.9611,-4.9669,-4.9669,-4.9669,-4.9669,-4.9669,-4.9669,-4.9669,-4.9669,-4.9669,-4.9669,-4.9669,-4.9669,-4.9669,-4.9669,-4.9669,-4.9669,-4.9669,-5.0656,-5.1672,-5.2223,-5.292,-5.3384,-5.3384,-5.3471,-5.35,-5.35,-5.35,-5.35,-5.35,-5.35,-5.35,-5.35,-5.35,-5.35,-5.35,-5.35,-5.35,-5.35,-5.35,-5.35,-5.35,-5.35,-5.35,-5.35,-5.35,-5.35,-5.35,-5.3617,-5.4284,-2.0291,-2.4617,-2.8913,-3.2135,-3.3412,-3.3964,-3.4341,-3.4399,-3.4399,-3.4399,-3.4399,-3.4399,-3.4399,-3.4399,-3.4748,-3.5735,-3.6141,-3.6664,-3.768,-3.8028,-3.8202,-3.8202,-3.8202,-3.8202,-3.8202,-3.9102,-3.9799,-4.0089,-4.1076,-4.1773,-4.2092,-4.2092,-4.2092,-4.2092,-4.2092,-4.2382,-4.2992,-4.366,-4.4472,-4.5459,-4.575,-4.5895,-4.5895,-4.5895,-4.6046,-4.6314,-4.6075,-4.6075,-4.6314,-4.6046,-4.6225,-4.6726,-4.6135,-4.6046,-4.6314,-4.5985,-4.6272,-4.6911,-4.755,-4.8188,-4.8827,-4.9465,-4.9669,-4.9669,-4.9669,-4.9669,-4.9669,-4.9669,-4.9669,-4.9669,-4.9669,-4.9669,-4.9669,-4.9669,-4.9669,-4.9669,-4.9669,-4.9988,-5.0452,-5.1149,-5.1468,-5.1933,-5.292,-5.3326,-5.35,-5.35,-5.35,-5.35,-5.35,-5.35,-5.35,-5.35,-5.35,-5.35,-5.35,-5.35,-5.35,-5.35,-5.35,-5.35,-5.35,-5.35,-5.35,-5.35,-5.35,-5.35,-5.35,-5.35,-5.35,-5.353,-5.4255,-5.4865,-2.005,-2.3454,-2.6385,-3.0185,-3.1893,-3.2847,-3.3964,-3.4283,-3.4399,-3.4399,-3.4399,-3.4399,-3.4399,-3.4399,-3.4835,-3.6083,-3.6315,-3.6751,-3.8028,-3.8202,-3.8202,-3.8202,-3.8202,-3.8202,-3.8202,-3.9218,-3.9915,-4.0089,-4.1192,-4.1918,-4.2092,-4.2092,-4.2092,-4.2092,-4.2092,-4.2469,-4.3224,-4.4066,-4.4937,-4.5895,-4.5895,-4.5895,-4.5895,-4.5895,-4.5895,-4.5895,-4.5895,-4.5895,-4.5895,-4.5895,-4.5895,-4.5895,-4.5895,-4.5895,-4.5895,-4.5895,-4.6388,-4.7143,-4.7608,-4.8304,-4.9059,-4.9524,-4.9669,-4.9669,-4.9669,-4.9669,-4.9669,-4.9669,-4.9669,-4.9669,-4.9669,-4.9669,-4.9669,-4.9669,-4.9669,-4.9727,-4.9901,-5.0336,-5.1062,-5.231,-5.2194,-5.2223,-5.3326,-5.35,-5.35,-5.35,-5.35,-5.35,-5.35,-5.35,-5.35,-5.35,-5.35,-5.35,-5.35,-5.35,-5.35,-5.35,-5.35,-5.35,-5.35,-5.35,-5.35,-5.35,-5.35,-5.35,-5.35,-5.35,-5.35,-5.353,-5.4662,-5.5271,-1.6534,-1.8504,-2.0757,-2.6094,-2.8824,-3.0683,-3.3028,-3.3993,-3.4399,-3.4399,-3.4399,-3.4399,-3.4399,-3.4399,-3.4835,-3.6083,-3.6315,-3.6751,-3.8028,-3.8202,-3.8202,-3.8202,-3.8202,-3.8202,-3.8202,-3.8841,-3.9479,-4.006,-4.0757,-4.1424,-4.2063,-4.2092,-4.2092,-4.2092,-4.2092,-4.2673,-4.3921,-4.5169,-4.5808,-4.5895,-4.5895,-4.5895,-4.5895,-4.5895,-4.5895,-4.5895,-4.5895,-4.5895,-4.5895,-4.5895,-4.5895,-4.5895,-4.5895,-4.5895,-4.5895,-4.5895,-4.6679,-4.7724,-4.7782,-4.8595,-4.964,-4.9669,-4.9669,-4.9669,-4.9669,-4.9669,-4.9669,-4.9669,-4.9669,-4.9669,-4.9669,-4.9669,-4.9669,-4.9669,-4.9669,-4.9843,-5.0481,-5.0656,-5.1062,-5.231,-5.2543,-5.2746,-5.3384,-5.35,-5.35,-5.35,-5.35,-5.35,-5.35,-5.35,-5.35,-5.35,-5.35,-5.35,-5.35,-5.35,-5.35,-5.35,-5.35,-5.35,-5.35,-5.35,-5.35,-5.35,-5.35,-5.35,-5.35,-5.35,-5.35,-5.353,-5.4226,-5.4865,-1.5379,-1.7263,-1.9405,-2.3441,-2.6246,-2.8624,-3.074,-3.2445,-3.3756,-3.4264,-3.4399,-3.4399,-3.4399,-3.4399,-3.4835,-3.6083,-3.6315,-3.6751,-3.8028,-3.8202,-3.8202,-3.8202,-3.8202,-3.8202,-3.8202,-3.8812,-3.945,-4.006,-4.0728,-4.1395,-4.2063,-4.2092,-4.2092,-4.2092,-4.2092,-4.2702,-4.3979,-4.5256,-4.5895,-4.5895,-4.5895,-4.5895,-4.5895,-4.5895,-4.5895,-4.5895,-4.5895,-4.5895,-4.5895,-4.5895,-4.5895,-4.5895,-4.5895,-4.5895,-4.5924,-4.633,-4.7027,-4.784,-4.8246,-4.8943,-4.9669,-4.9669,-4.9669,-4.9669,-4.9669,-4.9669,-4.9669,-4.9669,-4.9669,-4.9669,-4.9669,-4.9669,-4.9669,-4.9669,-5.0017,-5.0481,-5.1149,-5.1294,-5.1643,-5.292,-5.2833,-5.2775,-5.3413,-5.35,-5.35,-5.35,-5.35,-5.35,-5.35,-5.35,-5.35,-5.35,-5.35,-5.35,-5.35,-5.35,-5.35,-5.35,-5.35,-5.35,-5.35,-5.35,-5.35,-5.35,-5.35,-5.35,-5.35,-5.35,-5.3733,-5.4168,-5.4807,-5.5416,-1.3494,-1.5011,-1.7018,-2.0525,-2.2944,-2.5298,-2.8703,-3.0629,-3.2162,-3.3654,-3.3825,-3.3687,-3.3962,-3.3962,-3.4531,-3.6012,-3.6072,-3.6432,-3.8028,-3.8202,-3.8202,-3.8202,-3.8202,-3.8202,-3.8202,-3.8812,-3.945,-4.006,-4.0728,-4.1395,-4.2063,-4.2092,-4.2092,-4.2092,-4.2498,-4.3137,-4.3979,-4.5256,-4.5895,-4.5895,-4.5895,-4.5895,-4.5895,-4.5895,-4.5895,-4.5895,-4.5895,-4.5895,-4.5895,-4.5895,-4.5895,-4.5895,-4.5895,-4.5895,-4.5953,-4.6592,-4.723,-4.7869,-4.8508,-4.9146,-4.9669,-4.9669,-4.9669,-4.9669,-4.9669,-4.9669,-4.9669,-4.9669,-4.9669,-4.9669,-4.9669,-4.9669,-4.9727,-4.9959,-5.0511,-5.1149,-5.1788,-5.1933,-5.2252,-5.3297,-5.3181,-5.3007,-5.3442,-5.35,-5.35,-5.35,-5.35,-5.35,-5.35,-5.35,-5.35,-5.35,-5.35,-5.35,-5.35,-5.35,-5.35,-5.35,-5.35,-5.35,-5.35,-5.35,-5.35,-5.35,-5.3049,-5.2943,-5.2943,-5.329,-5.3849,-5.4517,-5.5126,-5.5632,0.0,0.0,0.0,-1.7274,-1.8825,-2.0898,-2.7006,-2.852,-2.9481,-3.2457,-3.2467,-3.2208,-3.3003,-3.3143,-3.3847,-3.5841,-3.5682,-3.5918,-3.7849,-3.8127,-3.8127,-3.8127,-3.8127,-3.8127,-3.8127,-3.8783,-3.9421,-4.006,-4.0699,-4.1366,-4.2063,-4.2092,-4.2092,-4.2092,-4.334,-4.3979,-4.3979,-4.5256,-4.5895,-4.5895,-4.5895,-4.5895,-4.5895,-4.5895,-4.5895,-4.5895,-4.5895,-4.5895,-4.5895,-4.5895,-4.5895,-4.5895,-4.5895,-4.5895,-4.5982,-4.6621,-4.7259,-4.7898,-4.8537,-4.9146,-4.9669,-4.9669,-4.9669,-4.9669,-4.9669,-4.9669,-4.9669,-4.9669,-4.9669,-4.9669,-4.9669,-4.9698,-4.9872,-5.0511,-5.1178,-5.1817,-5.2426,-5.2572,-5.2775,-5.3384,-5.35,-5.35,-5.35,-5.35,-5.35,-5.35,-5.35,-5.35,-5.35,-5.35,-5.35,-5.35,-5.35,-5.35,-5.3395,-5.3395,-5.3395,-5.3395,-5.3395,-5.3395,-5.3395,-5.3395,-5.3395,-5.3395,-5.2244,-5.1674,-5.1674,-5.2837,-5.3743,-5.4438,-5.5047,-5.5306,-1.0819,0.0,0.0,0.0,0.0,0.0,-2.184,-2.3795,-2.5926,-2.9316,-2.9855,-3.0241,-3.2034,-3.1928,-3.2098,-3.367,-3.5079,-3.5894,-3.5725,-3.6641,-3.726,-3.726,-3.726,-3.726,-3.726,-3.7968,-3.8698,-3.9207,-3.9945,-4.0873,-4.2034,-4.2092,-4.2092,-4.2092,-4.334,-4.3979,-4.3979,-4.5256,-4.5895,-4.5895,-4.5895,-4.5895,-4.5895,-4.5895,-4.5895,-4.5895,-4.5895,-4.5895,-4.5895,-4.5895,-4.5895,-4.5895,-4.5895,-4.6156,-4.665,-4.7288,-4.7927,-4.8566,-4.9204,-4.9524,-4.9669,-4.9669,-4.9669,-4.9669,-4.9669,-4.9669,-4.9669,-4.9669,-4.9669,-4.9669,-4.9669,-5.0046,-5.0452,-5.0627,-5.1497,-5.2339,-5.2543,-5.292,-5.3297,-5.3471,-5.35,-5.35,-5.35,-5.35,-5.35,-5.35,-5.35,-5.35,-5.35,-5.35,-5.35,-5.35,-5.35,-5.3184,-5.2244,-5.2136,-5.1811,-5.0934,-5.0934,-5.0934,-5.0934,-5.0934,-5.0934,-5.0934,-5.0573,-5.035,-5.035,-5.0712,-5.146,-5.2512,-5.3564,-5.4019,-1.165,-1.2479,-1.3684,-1.4136,0.0,0.0,-2.0603,-2.2055,-2.3864,-2.813,-2.8932,-2.931,-3.0975,-3.1035,-3.1075,-3.1593,-3.3696,-3.5143,-3.4886,-3.5723,-3.6346,-3.6346,-3.6346,-3.6346,-3.6346,-3.7155,-3.7848,-3.82,-3.9453,-4.0699,-4.2034,-4.1702,-4.1647,-4.2092,-4.334,-4.3979,-4.3979,-4.5256,-4.5895,-4.5895,-4.5895,-4.5895,-4.5895,-4.5895,-4.5895,-4.5895,-4.5895,-4.5895,-4.5895,-4.5895,-4.5895,-4.5895,-4.5895,-4.6272,-4.6911,-4.755,-4.8188,-4.8827,-4.9465,-4.9669,-4.9669,-4.9669,-4.9669,-4.9669,-4.9669,-4.9669,-4.9669,-4.9669,-4.9669,-4.9727,-5.0017,-5.0394,-5.0801,-5.1352,-5.202,-5.263,-5.2891,-5.3239,-5.35,-5.35,-5.35,-5.35,-5.35,-5.35,-5.35,-5.35,-5.35,-5.35,-5.35,-5.35,-5.329,-5.2837,-5.273,-5.2272,-5.1017,-5.0906,-5.0685,-4.9901,-4.9901,-4.9901,-4.9901,-4.9901,-4.9901,-4.9901,-4.9448,-4.901,-4.8694,-4.971,-5.0878,-5.2072,-5.3049,-5.3241,-1.2906,-1.3393,-1.4425,-1.5367,-1.4953,0.0,-2.0991,-2.1543,-2.2325,-2.7155,-2.8017,-2.8189,-2.9165,-2.9803,-2.9899,-2.9277,-3.1494,-3.3526,-3.4281,-3.5062,-3.5467,-3.5467,-3.5467,-3.5467,-3.5467,-3.6267,-3.6872,-3.7253,-3.8971,-4.0573,-4.184,-4.0972,-4.0972,-4.2092,-4.3226,-4.3892,-4.3979,-4.5167,-4.5776,-4.5895,-4.5776,-4.5776,-4.5895,-4.5895,-4.5895,-4.5895,-4.5895,-4.5895,-4.5895,-4.5895,-4.5895,-4.5895,-4.5895,-4.633,-4.6998,-4.7579,-4.8217,-4.8914,-4.9465,-4.9669,-4.9669,-4.9669,-4.9669,-4.9669,-4.9669,-4.9669,-4.9669,-4.9669,-4.9727,-4.993,-5.0511,-5.0672,-5.0948,-5.2075,-5.2393,-5.2491,-5.2934,-5.3078,-5.3078,-5.3078,-5.329,-5.35,-5.329,-5.329,-5.329,-5.3078,-5.3078,-5.3078,-5.3078,-5.3078,-5.273,-5.1565,-5.1456,-5.1017,-4.9788,-4.9675,-4.9675,-4.9475,-4.9475,-4.9475,-4.9475,-4.9475,-4.9475,-4.9475,-4.8442,-4.7606,-4.723,-4.9298,-5.1008,-5.211,-5.2729,-5.2385,-1.4161,-1.4249,-1.4802,-1.5004,-1.5191,0.0,-1.6321,-1.6999,-1.815,-2.0496,-2.1327,-2.2178,-2.4115,-2.4988,-2.5304,-2.5134,-2.7424,-2.9909,-3.1826,-3.3554,-3.462,-3.462,-3.462,-3.462,-3.462,-3.5413,-3.5953,-3.6313,-3.8228,-3.9837,-4.0859,-4.0,-4.0287,-4.2009,-4.2567,-4.3136,-4.3979,-4.439,-4.5081,-4.5895,-4.4989,-4.5081,-4.5895,-4.5895,-4.5895,-4.5895,-4.5895,-4.5895,-4.5895,-4.5895,-4.5895,-4.5895,-4.5895,-4.6592,-4.7608,-4.7724,-4.8508,-4.9494,-4.964,-4.9669,-4.9669,-4.9669,-4.9669,-4.9669,-4.9669,-4.9669,-4.9669,-4.9669,-5.0075,-5.0511,-5.0656,-5.08,-5.0841,-5.1095,-5.0735,-5.0436,-5.0573,-5.0601,-5.0601,-5.0601,-5.2164,-5.3184,-5.2244,-5.2028,-5.1702,-5.0712,-5.0601,-5.0601,-5.0601,-5.0601,-5.0462,-5.0238,-5.0238,-4.9788,-4.8532,-4.8442,-4.7977,-4.7112,-4.6993,-4.6993,-4.6993,-4.6993,-4.6993,-4.6993,-4.6755,-4.7021,-4.7757,-4.8226,-4.8804,-4.9492,-5.0053,-5.0206,-1.5271,-1.5226,-1.5768,-1.6045,0.0,0.0,0.0,-1.735,-1.8003,-2.0213,-2.0665,-2.1142,-2.2824,-2.315,-2.3351,-2.3904,-2.6088,-2.7896,-2.8423,-3.1284,-3.3392,-3.37,-3.3725,-3.3725,-3.3725,-3.4538,-3.5485,-3.6657,-3.7385,-3.8405,-3.9826,-3.9033,-3.9257,-4.0994,-4.1563,-4.2084,-4.2935,-4.3277,-4.3843,-4.434,-4.3843,-4.3843,-4.434,-4.434,-4.462,-4.511,-4.4527,-4.4926,-4.5805,-4.4805,-4.462,-4.5201,-4.5685,-4.6679,-4.7782,-4.7782,-4.8595,-4.9571,-4.905,-4.9248,-4.9571,-4.905,-4.8852,-4.8852,-4.8852,-4.8424,-4.7993,-4.7993,-4.8471,-4.9033,-4.9314,-4.9677,-4.9995,-5.0298,-5.0159,-4.9901,-4.9901,-4.9901,-4.9901,-4.9901,-5.0934,-5.1484,-5.0906,-5.0796,-5.0573,-5.0014,-4.9901,-4.9901,-4.9901,-4.9901,-4.9675,-4.9106,-4.8992,-4.8558,-4.7324,-4.7205,-4.6993,-4.6301,-4.6301,-4.6301,-4.6301,-4.6301,-4.6301,-4.6301,-4.6301,-4.6828,-4.7908,-4.7908,-4.836,-4.9188,-4.9464,-4.959,0.0,0.0,0.0,0.0,0.0,-1.671,0.0,0.0,0.0,-2.0614,-2.0765,-2.079,-2.1694,-2.1493,-2.1543,-2.2548,-2.4481,-2.5611,-2.4908,-2.8172,-3.0959,-3.1863,-3.2516,-3.2842,-3.2616,-3.3264,-3.4585,-3.6743,-3.6109,-3.6585,-3.8827,-3.8069,-3.8333,-3.9988,-4.0518,-4.1086,-4.1748,-4.2274,-4.2598,-4.2792,-4.2598,-4.2598,-4.2792,-4.2792,-4.3273,-4.3937,-4.3177,-4.3748,-4.5201,-4.3464,-4.3273,-4.4125,-4.5344,-4.6368,-4.7186,-4.752,-4.8269,-4.8951,-4.8021,-4.8324,-4.8951,-4.8021,-4.7717,-4.7717,-4.7717,-4.7074,-4.6347,-4.6482,-4.6944,-4.7541,-4.8138,-4.8514,-4.8969,-4.9454,-4.9362,-4.9247,-4.9247,-4.9247,-4.9247,-4.9247,-4.9247,-4.9247,-4.9448,-4.9562,-4.9448,-4.9247,-4.9133,-4.9106,-4.9106,-4.8992,-4.8647,-4.7743,-4.7626,-4.7298,-4.6421,-4.6301,-4.6301,-4.6301,-4.6301,-4.6301,-4.618,-4.618,-4.618,-4.618,-4.628,-4.6806,-4.7658,-4.7758,-4.8459,-4.959,-4.959,-4.959,0.0,0.0,-1.883,-1.7994,-1.8018,-1.787,-1.6331,0.0,-1.716,-1.6597,0.0,-1.7124,-1.725,0.0,0.0,-1.8028,-1.956,-2.0966,-2.182,-2.3678,-2.5686,-2.7695,-3.0532,-3.1938,-3.0984,-3.0964,-3.2129,-3.4793,-3.3532,-3.427,-3.7756,-3.7083,-3.7593,-3.9897,-3.9841,-4.0425,-4.1748,-4.1497,-4.1914,-4.2792,-4.1815,-4.1914,-4.2792,-4.2792,-4.2889,-4.2985,-4.2889,-4.2889,-4.3177,-4.2889,-4.2889,-4.3136,-4.4741,-4.5191,-4.5111,-4.6587,-4.7002,-4.6632,-4.6528,-4.6528,-4.6632,-4.6556,-4.6528,-4.6528,-4.6528,-4.6424,-4.6428,-4.6998,-4.7568,-4.8138,-4.8762,-4.8572,-4.8247,-4.83,-4.7534,-4.6755,-4.6755,-4.6755,-4.6755,-4.6755,-4.6755,-4.7087,-4.8094,-4.8326,-4.7977,-4.6874,-4.6516,-4.6276,-4.6276,-4.6035,-4.5914,-4.6035,-4.6035,-4.618,-4.6301,-4.6301,-4.6301,-4.6301,-4.6301,-4.618,-4.5817,-4.5817,-4.5817,-4.5817,-4.6289,-4.6712,-4.7055,-4.7548,-4.8348,-4.959,-4.959,-4.959,-2.0287,-1.9456,-1.903,-1.8435,-1.8087,-1.7623,-1.6622,-1.6554,-1.6691,-1.6479,0.0,0.0,0.0,0.0,0.0,0.0,-1.7909,-1.8709,-1.8582,-2.0836,-2.3416,-2.6013,-2.7519,-2.885,-3.003,-3.0432,-3.1763,-3.4525,-3.3169,-3.3593,-3.6836,-3.664,-3.7115,-3.8843,-3.8717,-3.9282,-4.0582,-4.0438,-4.0567,-4.0945,-4.0567,-4.0567,-4.0945,-4.0945,-4.1345,-4.1815,-4.1246,-4.1743,-4.2695,-4.1544,-4.1555,-4.2498,-4.356,-4.4238,-4.4738,-4.5742,-4.6243,-4.6215,-4.5608,-4.582,-4.6215,-4.5608,-4.5395,-4.5289,-4.4561,-4.4577,-4.4889,-4.5148,-4.5849,-4.6601,-4.6861,-4.7004,-4.7087,-4.7087,-4.6636,-4.6301,-4.6301,-4.6301,-4.618,-4.6059,-4.6059,-4.6059,-4.6371,-4.661,-4.661,-4.6059,-4.5696,-4.5453,-4.5453,-4.5331,-4.5331,-4.5453,-4.5453,-4.5574,-4.5696,-4.5939,-4.5939,-4.5696,-4.5696,-4.5696,-4.5574,-4.5453,-4.5601,-4.5921,-4.6143,-4.6685,-4.7396,-4.7641,-4.8164,-4.8967,-4.9202,-4.9332,-2.1033,-2.0323,-1.9773,-1.8936,-1.8243,-1.7631,-1.69,-1.6737,-1.6781,-1.6962,-1.6663,0.0,0.0,0.0,-1.548,-1.6207,0.0,-1.7045,-1.625,-1.8111,0.0,0.0,-2.4356,-2.5963,-2.8624,-2.8699,-3.008,-3.3771,-3.2215,-3.2616,-3.6182,-3.6358,-3.686,-3.7965,-3.8015,-3.8542,-3.9697,-3.9697,-3.9697,-3.9697,-3.9697,-3.9697,-3.9697,-3.9697,-4.0083,-4.0743,-3.9981,-4.0567,-4.1815,-4.0262,-4.0516,-4.1673,-4.232,-4.3127,-4.4063,-4.4858,-4.534,-4.5289,-4.4453,-4.4778,-4.5289,-4.4453,-4.4261,-4.4042,-4.3295,-4.3363,-4.384,-4.3991,-4.4719,-4.5522,-4.5673,-4.588,-4.618,-4.618,-4.6059,-4.6059,-4.6059,-4.6059,-4.5939,-4.5696,-4.5696,-4.5574,-4.5331,-4.5453,-4.5696,-4.5696,-4.5331,-4.5208,-4.5208,-4.5086,-4.5086,-4.5208,-4.5208,-4.5208,-4.5331,-4.5574,-4.5574,-4.5331,-4.5208,-4.5208,-4.5331,-4.5208,-4.5454,-4.5993,-4.6165,-4.6553,-4.7482,-4.7629,-4.7922,-4.8313,-4.8706,-4.8942,-2.2635,-2.2298,-2.1724,-1.9523,-1.8975,-1.8422,-1.6511,-1.6827,-1.7435,-1.7063,-1.7798,-1.8363,-1.7872,-1.7235,-1.6696,-1.6274,-1.5782,0.0,0.0,0.0,0.0,0.0,0.0,0.0,-2.6339,-2.4632,-2.5862,-3.1838,-2.9779,-3.0608,-3.6056,-3.6358,-3.686,-3.7965,-3.8015,-3.8542,-3.9697,-3.9697,-3.9697,-3.9697,-3.9697,-3.9697,-3.9697,-3.9697,-3.9697,-3.98,-3.9697,-3.9697,-3.98,-3.9697,-4.0023,-4.0576,-4.1128,-4.1764,-4.2511,-4.4136,-4.4016,-4.3073,-4.3098,-4.3098,-4.3073,-4.3098,-4.3073,-4.3098,-4.2986,-4.3363,-4.3915,-4.4443,-4.502,-4.5623,-4.615,-4.6059,-4.5817,-4.5817,-4.5574,-4.5331,-4.5331,-4.5331,-4.5331,-4.5331,-4.5331,-4.5331,-4.5331,-4.5331,-4.5331,-4.5331,-4.5086,-4.484,-4.484,-4.4594,-4.447,-4.484,-4.484,-4.4963,-4.5331,-4.5331,-4.5331,-4.5331,-4.4963,-4.4963,-4.5331,-4.4963,-4.5084,-4.5619,-4.6154,-4.6536,-4.6704,-4.7233,-4.7473,-4.7497,-4.8313,-4.86,-2.3229,-2.2756,-2.191,-2.0023,-1.9482,-1.894,-1.718,-1.774,-1.8285,-1.6977,-1.7678,-1.8043,-1.6733,-1.63,-1.6009,-1.5605,-1.5404,0.0,0.0,0.0,0.0,0.0,0.0,0.0,0.0,0.0,-2.6389,-3.0306,-3.0407,-3.1913,-3.5629,-3.6157,-3.686,-3.7965,-3.8015,-3.8542,-3.9697,-3.9697,-3.9697,-3.9697,-3.9697,-3.9697,-3.9697,-3.9697,-3.9697,-3.9697,-3.9697,-3.9697,-3.9697,-3.9697,-4.0249,-4.1078,-4.1254,-4.1907,-4.2821,-4.333,-4.3295,-4.2986,-4.2986,-4.2986,-4.2986,-4.2986,-4.2986,-4.3037,-4.3413,-4.3915,-4.4468,-4.502,-4.5479,-4.5714,-4.5889,-4.5696,-4.5453,-4.5453,-4.5331,-4.5331,-4.5331,-4.5331,-4.5208,-4.4963,-4.4963,-4.4963,-4.4717,-4.4594,-4.4717,-4.4963,-4.4717,-4.447,-4.447,-4.4347,-4.4347,-4.447,-4.447,-4.447,-4.4594,-4.4594,-4.4717,-4.4963,-4.4594,-4.447,-4.4594,-4.4933,-4.5242,-4.5773,-4.6303,-4.6834,-4.7233,-4.7425,-4.7497,-4.7497,-4.7762,-4.8026,-2.371,-2.3366,-2.2608,-2.1105,-2.0492,-1.9833,-1.7997,-1.8384,-1.8821,-1.7502,-1.7775,-1.8084,-1.7565,-1.6822,-1.615,-1.5631,-1.5305,0.0,0.0,-1.3095,0.0,0.0,0.0,0.0,0.0,0.0,0.0,-2.9704,-2.9603,-3.116,-3.5328,-3.5881,-3.6659,-3.7965,-3.8015,-3.8542,-3.9697,-3.9697,-3.9697,-3.9697,-3.9697,-3.9697,-3.9697,-3.9697,-3.9697,-3.9697,-3.9594,-3.9594,-3.9594,-3.9594,-4.0245,-4.1114,-4.1114,-4.1788,-4.2874,-4.2986,-4.2986,-4.2874,-4.2986,-4.2874,-4.265,-4.2762,-4.2762,-4.275,-4.3298,-4.3846,-4.4369,-4.4743,-4.5246,-4.5525,-4.5448,-4.5183,-4.5086,-4.5086,-4.5086,-4.4963,-4.4963,-4.4963,-4.484,-4.4717,-4.4594,-4.4594,-4.4347,-4.4347,-4.4347,-4.4594,-4.447,-4.4347,-4.4347,-4.4347,-4.4347,-4.4347,-4.4347,-4.4347,-4.4347,-4.4347,-4.4347,-4.4594,-4.447,-4.4347,-4.4347,-4.4852,-4.5285,-4.5645,-4.6343,-4.6872,-4.7209,-4.7401,-4.7497,-4.7497,-4.7497,-4.763]}]]